<?xml version="1.0" encoding="UTF-8" standalone="no" ?>
<gpx xmlns="http://www.topografix.com/GPX/1/1" xmlns:xsi="http://www.w3.org/2001/XMLSchema-instance" xsi:schemaLocation="http://www.topografix.com/GPX/1/1 http://www.topografix.com/GPX/1/1/gpx.xsd" version="1.1" creator="VisuGPX - https://www.visugpx.com">
  <metadata>
    <name>les 3 Géants autour de Toulon</name>
    <desc><![CDATA[voici le tour des 3 sommets majeurs au départ de Toulon,
soit le Coudon (700m) ensuite le Mt Caume (800m) et le Faron (580m)
Ce circuit est optimisé en distance et après lissage comptez 2000 m .]]></desc>
  </metadata>
  <trk>
    <name><![CDATA[les 3 Géants autour de Toulon_1]]></name>
    <trkseg>
      <trkpt lat="43.12594" lon="5.9593">
        <ele>56.60521697998</ele>
        <time>2009-06-25T04:07:12Z</time>
      </trkpt>
      <trkpt lat="43.13096" lon="5.97269">
        <ele>56.787231445312</ele>
        <time>2009-06-25T04:07:14Z</time>
      </trkpt>
      <trkpt lat="43.13106" lon="5.9729">
        <ele>58.486442565918</ele>
        <time>2009-06-25T04:07:17Z</time>
      </trkpt>
      <trkpt lat="43.13116" lon="5.97317">
        <ele>58.755744934082</ele>
        <time>2009-06-25T04:07:22Z</time>
      </trkpt>
      <trkpt lat="43.13127" lon="5.9734">
        <ele>59.001968383789</ele>
        <time>2009-06-25T04:07:27Z</time>
      </trkpt>
      <trkpt lat="43.1313" lon="5.97348">
        <ele>59.202812194824</ele>
        <time>2009-06-25T04:07:29Z</time>
      </trkpt>
      <trkpt lat="43.13142" lon="5.97379">
        <ele>59.742637634277</ele>
        <time>2009-06-25T04:07:35Z</time>
      </trkpt>
      <trkpt lat="43.13149" lon="5.97397">
        <ele>59.656818389893</ele>
        <time>2009-06-25T04:07:38Z</time>
      </trkpt>
      <trkpt lat="43.13163" lon="5.97435">
        <ele>59.894050598145</ele>
        <time>2009-06-25T04:07:45Z</time>
      </trkpt>
      <trkpt lat="43.13165" lon="5.97438">
        <ele>60.067714691162</ele>
        <time>2009-06-25T04:07:46Z</time>
      </trkpt>
      <trkpt lat="43.13178" lon="5.97474">
        <ele>60.775024414062</ele>
        <time>2009-06-25T04:07:53Z</time>
      </trkpt>
      <trkpt lat="43.13183" lon="5.97486">
        <ele>60.575775146484</ele>
        <time>2009-06-25T04:07:55Z</time>
      </trkpt>
      <trkpt lat="43.13189" lon="5.97507">
        <ele>59.953075408936</ele>
        <time>2009-06-25T04:07:59Z</time>
      </trkpt>
      <trkpt lat="43.13197" lon="5.9753">
        <ele>60.167919158936</ele>
        <time>2009-06-25T04:08:04Z</time>
      </trkpt>
      <trkpt lat="43.13213" lon="5.97569">
        <ele>59.840587615967</ele>
        <time>2009-06-25T04:08:12Z</time>
      </trkpt>
      <trkpt lat="43.13229" lon="5.97591">
        <ele>60</ele>
        <time>2009-06-25T04:08:18Z</time>
      </trkpt>
      <trkpt lat="43.13241" lon="5.97607">
        <ele>60</ele>
        <time>2009-06-25T04:08:22Z</time>
      </trkpt>
      <trkpt lat="43.13252" lon="5.97623">
        <ele>60.093479156494</ele>
        <time>2009-06-25T04:08:26Z</time>
      </trkpt>
      <trkpt lat="43.13273" lon="5.97642">
        <ele>59.983425140381</ele>
        <time>2009-06-25T04:08:32Z</time>
      </trkpt>
      <trkpt lat="43.13286" lon="5.9765">
        <ele>60.350666046143</ele>
        <time>2009-06-25T04:08:35Z</time>
      </trkpt>
      <trkpt lat="43.13302" lon="5.97658">
        <ele>60.527950286865</ele>
        <time>2009-06-25T04:08:39Z</time>
      </trkpt>
      <trkpt lat="43.13313" lon="5.97662">
        <ele>60.847869873047</ele>
        <time>2009-06-25T04:08:42Z</time>
      </trkpt>
      <trkpt lat="43.13343" lon="5.9768">
        <ele>62.198059082031</ele>
        <time>2009-06-25T04:08:49Z</time>
      </trkpt>
      <trkpt lat="43.13361" lon="5.97691">
        <ele>64.053413391113</ele>
        <time>2009-06-25T04:08:54Z</time>
      </trkpt>
      <trkpt lat="43.13367" lon="5.97694">
        <ele>64.448684692383</ele>
        <time>2009-06-25T04:08:56Z</time>
      </trkpt>
      <trkpt lat="43.13391" lon="5.97706">
        <ele>65.263633728027</ele>
        <time>2009-06-25T04:09:03Z</time>
      </trkpt>
      <trkpt lat="43.13414" lon="5.97715">
        <ele>65.676918029785</ele>
        <time>2009-06-25T04:09:09Z</time>
      </trkpt>
      <trkpt lat="43.13436" lon="5.97728">
        <ele>65.929183959961</ele>
        <time>2009-06-25T04:09:15Z</time>
      </trkpt>
      <trkpt lat="43.13462" lon="5.97739">
        <ele>67.014083862305</ele>
        <time>2009-06-25T04:09:22Z</time>
      </trkpt>
      <trkpt lat="43.13482" lon="5.97748">
        <ele>67.530746459961</ele>
        <time>2009-06-25T04:09:28Z</time>
      </trkpt>
      <trkpt lat="43.13507" lon="5.97757">
        <ele>67.797561645508</ele>
        <time>2009-06-25T04:09:35Z</time>
      </trkpt>
      <trkpt lat="43.13524" lon="5.97771">
        <ele>67.981910705566</ele>
        <time>2009-06-25T04:09:40Z</time>
      </trkpt>
      <trkpt lat="43.13541" lon="5.97787">
        <ele>67.830368041992</ele>
        <time>2009-06-25T04:09:46Z</time>
      </trkpt>
      <trkpt lat="43.1355" lon="5.97789">
        <ele>68.02262878418</ele>
        <time>2009-06-25T04:09:52Z</time>
      </trkpt>
      <trkpt lat="43.1355" lon="5.97789">
        <ele>67.991729736328</ele>
        <time>2009-06-25T04:10:06Z</time>
      </trkpt>
      <trkpt lat="43.1355" lon="5.97789">
        <ele>67.988296508789</ele>
        <time>2009-06-25T04:10:10Z</time>
      </trkpt>
      <trkpt lat="43.1355" lon="5.97789">
        <ele>67.988296508789</ele>
        <time>2009-06-25T04:10:14Z</time>
      </trkpt>
      <trkpt lat="43.1355" lon="5.97789">
        <ele>67.988296508789</ele>
        <time>2009-06-25T04:10:17Z</time>
      </trkpt>
      <trkpt lat="43.1355" lon="5.97789">
        <ele>67.98486328125</ele>
        <time>2009-06-25T04:10:20Z</time>
      </trkpt>
      <trkpt lat="43.13559" lon="5.97781">
        <ele>68.925567626953</ele>
        <time>2009-06-25T04:12:05Z</time>
      </trkpt>
      <trkpt lat="43.13561" lon="5.97775">
        <ele>69.315887451172</ele>
        <time>2009-06-25T04:12:06Z</time>
      </trkpt>
      <trkpt lat="43.13567" lon="5.97761">
        <ele>69.997383117676</ele>
        <time>2009-06-25T04:12:10Z</time>
      </trkpt>
      <trkpt lat="43.13571" lon="5.97756">
        <ele>70.333839416504</ele>
        <time>2009-06-25T04:12:12Z</time>
      </trkpt>
      <trkpt lat="43.13585" lon="5.97751">
        <ele>71.017051696777</ele>
        <time>2009-06-25T04:12:17Z</time>
      </trkpt>
      <trkpt lat="43.13612" lon="5.97752">
        <ele>71.952606201172</ele>
        <time>2009-06-25T04:12:24Z</time>
      </trkpt>
      <trkpt lat="43.13628" lon="5.97754">
        <ele>72.474456787109</ele>
        <time>2009-06-25T04:12:29Z</time>
      </trkpt>
      <trkpt lat="43.13644" lon="5.97757">
        <ele>72.939659118652</ele>
        <time>2009-06-25T04:12:34Z</time>
      </trkpt>
      <trkpt lat="43.13663" lon="5.97761">
        <ele>73.471809387207</ele>
        <time>2009-06-25T04:12:39Z</time>
      </trkpt>
      <trkpt lat="43.13681" lon="5.97763">
        <ele>74.52619934082</ele>
        <time>2009-06-25T04:12:44Z</time>
      </trkpt>
      <trkpt lat="43.13706" lon="5.97771">
        <ele>75.241394042969</ele>
        <time>2009-06-25T04:12:51Z</time>
      </trkpt>
      <trkpt lat="43.13737" lon="5.97777">
        <ele>76.054542541504</ele>
        <time>2009-06-25T04:12:59Z</time>
      </trkpt>
      <trkpt lat="43.13757" lon="5.97784">
        <ele>76.611328125</ele>
        <time>2009-06-25T04:13:04Z</time>
      </trkpt>
      <trkpt lat="43.13783" lon="5.97798">
        <ele>76.472450256348</ele>
        <time>2009-06-25T04:13:11Z</time>
      </trkpt>
      <trkpt lat="43.13805" lon="5.97811">
        <ele>76.79517364502</ele>
        <time>2009-06-25T04:13:17Z</time>
      </trkpt>
      <trkpt lat="43.13831" lon="5.97829">
        <ele>77.08528137207</ele>
        <time>2009-06-25T04:13:24Z</time>
      </trkpt>
      <trkpt lat="43.13857" lon="5.9784">
        <ele>77.607131958008</ele>
        <time>2009-06-25T04:13:31Z</time>
      </trkpt>
      <trkpt lat="43.13886" lon="5.97846">
        <ele>78.905616760254</ele>
        <time>2009-06-25T04:13:38Z</time>
      </trkpt>
      <trkpt lat="43.13901" lon="5.97848">
        <ele>79.164962768555</ele>
        <time>2009-06-25T04:13:41Z</time>
      </trkpt>
      <trkpt lat="43.13951" lon="5.97845">
        <ele>82.869117736816</ele>
        <time>2009-06-25T04:13:50Z</time>
      </trkpt>
      <trkpt lat="43.13963" lon="5.97846">
        <ele>83.773506164551</ele>
        <time>2009-06-25T04:13:52Z</time>
      </trkpt>
      <trkpt lat="43.13997" lon="5.9786">
        <ele>85.618988037109</ele>
        <time>2009-06-25T04:13:59Z</time>
      </trkpt>
      <trkpt lat="43.14032" lon="5.97878">
        <ele>87.935607910156</ele>
        <time>2009-06-25T04:14:07Z</time>
      </trkpt>
      <trkpt lat="43.14037" lon="5.97881">
        <ele>88.01587677002</ele>
        <time>2009-06-25T04:14:08Z</time>
      </trkpt>
      <trkpt lat="43.14068" lon="5.97896">
        <ele>89.636535644531</ele>
        <time>2009-06-25T04:14:16Z</time>
      </trkpt>
      <trkpt lat="43.14092" lon="5.97914">
        <ele>91.143173217773</ele>
        <time>2009-06-25T04:14:23Z</time>
      </trkpt>
      <trkpt lat="43.14114" lon="5.97931">
        <ele>91.820846557617</ele>
        <time>2009-06-25T04:14:29Z</time>
      </trkpt>
      <trkpt lat="43.14135" lon="5.97944">
        <ele>93.506378173828</ele>
        <time>2009-06-25T04:14:34Z</time>
      </trkpt>
      <trkpt lat="43.14166" lon="5.97952">
        <ele>95.451858520508</ele>
        <time>2009-06-25T04:14:41Z</time>
      </trkpt>
      <trkpt lat="43.14198" lon="5.97956">
        <ele>96.771110534668</ele>
        <time>2009-06-25T04:14:48Z</time>
      </trkpt>
      <trkpt lat="43.14211" lon="5.97956">
        <ele>97.51155090332</ele>
        <time>2009-06-25T04:14:51Z</time>
      </trkpt>
      <trkpt lat="43.14244" lon="5.97961">
        <ele>98.299713134766</ele>
        <time>2009-06-25T04:14:58Z</time>
      </trkpt>
      <trkpt lat="43.14266" lon="5.97963">
        <ele>98.89136505127</ele>
        <time>2009-06-25T04:15:03Z</time>
      </trkpt>
      <trkpt lat="43.14286" lon="5.97966">
        <ele>99.773994445801</ele>
        <time>2009-06-25T04:15:09Z</time>
      </trkpt>
      <trkpt lat="43.14307" lon="5.97969">
        <ele>100.57368469238</ele>
        <time>2009-06-25T04:15:15Z</time>
      </trkpt>
      <trkpt lat="43.14327" lon="5.97976">
        <ele>101.29051208496</ele>
        <time>2009-06-25T04:15:21Z</time>
      </trkpt>
      <trkpt lat="43.14348" lon="5.97983">
        <ele>101.88642120361</ele>
        <time>2009-06-25T04:15:27Z</time>
      </trkpt>
      <trkpt lat="43.14367" lon="5.97988">
        <ele>102.46216583252</ele>
        <time>2009-06-25T04:15:33Z</time>
      </trkpt>
      <trkpt lat="43.14392" lon="5.97996">
        <ele>104.80898284912</ele>
        <time>2009-06-25T04:15:41Z</time>
      </trkpt>
      <trkpt lat="43.14426" lon="5.98009">
        <ele>105.84043884277</ele>
        <time>2009-06-25T04:15:50Z</time>
      </trkpt>
      <trkpt lat="43.1445" lon="5.98011">
        <ele>106.69702148438</ele>
        <time>2009-06-25T04:15:56Z</time>
      </trkpt>
      <trkpt lat="43.14475" lon="5.98002">
        <ele>108.81439971924</ele>
        <time>2009-06-25T04:16:03Z</time>
      </trkpt>
      <trkpt lat="43.14499" lon="5.97983">
        <ele>110.21522521973</ele>
        <time>2009-06-25T04:16:10Z</time>
      </trkpt>
      <trkpt lat="43.14523" lon="5.97961">
        <ele>111.04608154297</ele>
        <time>2009-06-25T04:16:18Z</time>
      </trkpt>
      <trkpt lat="43.14539" lon="5.97942">
        <ele>112.26252746582</ele>
        <time>2009-06-25T04:16:25Z</time>
      </trkpt>
      <trkpt lat="43.14558" lon="5.97919">
        <ele>113.68228149414</ele>
        <time>2009-06-25T04:16:32Z</time>
      </trkpt>
      <trkpt lat="43.14574" lon="5.97902">
        <ele>113.55576324463</ele>
        <time>2009-06-25T04:16:37Z</time>
      </trkpt>
      <trkpt lat="43.14602" lon="5.9788">
        <ele>113.74052429199</ele>
        <time>2009-06-25T04:16:44Z</time>
      </trkpt>
      <trkpt lat="43.14631" lon="5.9786">
        <ele>113.32658386231</ele>
        <time>2009-06-25T04:16:51Z</time>
      </trkpt>
      <trkpt lat="43.14648" lon="5.97849">
        <ele>113.52914428711</ele>
        <time>2009-06-25T04:16:55Z</time>
      </trkpt>
      <trkpt lat="43.14676" lon="5.9783">
        <ele>113.76310729981</ele>
        <time>2009-06-25T04:17:02Z</time>
      </trkpt>
      <trkpt lat="43.14694" lon="5.97819">
        <ele>113.53651428223</ele>
        <time>2009-06-25T04:17:06Z</time>
      </trkpt>
      <trkpt lat="43.14719" lon="5.97817">
        <ele>113.60202789307</ele>
        <time>2009-06-25T04:17:11Z</time>
      </trkpt>
      <trkpt lat="43.1473" lon="5.97831">
        <ele>113.35075378418</ele>
        <time>2009-06-25T04:17:14Z</time>
      </trkpt>
      <trkpt lat="43.14738" lon="5.97842">
        <ele>113.25290679932</ele>
        <time>2009-06-25T04:17:16Z</time>
      </trkpt>
      <trkpt lat="43.14756" lon="5.97843">
        <ele>113.8623046875</ele>
        <time>2009-06-25T04:17:19Z</time>
      </trkpt>
      <trkpt lat="43.14767" lon="5.97825">
        <ele>114.93347167969</ele>
        <time>2009-06-25T04:17:22Z</time>
      </trkpt>
      <trkpt lat="43.14769" lon="5.97818">
        <ele>115.23387908935</ele>
        <time>2009-06-25T04:17:23Z</time>
      </trkpt>
      <trkpt lat="43.14781" lon="5.97771">
        <ele>116.3779296875</ele>
        <time>2009-06-25T04:17:31Z</time>
      </trkpt>
      <trkpt lat="43.14797" lon="5.97724">
        <ele>117.97925567627</ele>
        <time>2009-06-25T04:17:40Z</time>
      </trkpt>
      <trkpt lat="43.14802" lon="5.9771">
        <ele>118.39725494385</ele>
        <time>2009-06-25T04:17:43Z</time>
      </trkpt>
      <trkpt lat="43.14811" lon="5.97684">
        <ele>119</ele>
        <time>2009-06-25T04:17:49Z</time>
      </trkpt>
      <trkpt lat="43.14819" lon="5.97662">
        <ele>119</ele>
        <time>2009-06-25T04:17:55Z</time>
      </trkpt>
      <trkpt lat="43.14825" lon="5.97644">
        <ele>119</ele>
        <time>2009-06-25T04:18:01Z</time>
      </trkpt>
      <trkpt lat="43.14831" lon="5.97628">
        <ele>119.38265228272</ele>
        <time>2009-06-25T04:18:06Z</time>
      </trkpt>
      <trkpt lat="43.14835" lon="5.97615">
        <ele>119.86212158203</ele>
        <time>2009-06-25T04:18:10Z</time>
      </trkpt>
      <trkpt lat="43.14844" lon="5.97598">
        <ele>120</ele>
        <time>2009-06-25T04:18:16Z</time>
      </trkpt>
      <trkpt lat="43.14854" lon="5.97569">
        <ele>120</ele>
        <time>2009-06-25T04:18:24Z</time>
      </trkpt>
      <trkpt lat="43.14864" lon="5.97534">
        <ele>120</ele>
        <time>2009-06-25T04:18:33Z</time>
      </trkpt>
      <trkpt lat="43.14871" lon="5.97505">
        <ele>120</ele>
        <time>2009-06-25T04:18:40Z</time>
      </trkpt>
      <trkpt lat="43.14878" lon="5.9748">
        <ele>120.85498809815</ele>
        <time>2009-06-25T04:18:46Z</time>
      </trkpt>
      <trkpt lat="43.14886" lon="5.97453">
        <ele>123.05990600586</ele>
        <time>2009-06-25T04:18:52Z</time>
      </trkpt>
      <trkpt lat="43.14899" lon="5.97417">
        <ele>125.98197937012</ele>
        <time>2009-06-25T04:19:01Z</time>
      </trkpt>
      <trkpt lat="43.14911" lon="5.97389">
        <ele>129.13412475586</ele>
        <time>2009-06-25T04:19:09Z</time>
      </trkpt>
      <trkpt lat="43.14927" lon="5.97364">
        <ele>130.24774169922</ele>
        <time>2009-06-25T04:19:17Z</time>
      </trkpt>
      <trkpt lat="43.14938" lon="5.97346">
        <ele>131.94567871094</ele>
        <time>2009-06-25T04:19:23Z</time>
      </trkpt>
      <trkpt lat="43.14953" lon="5.97323">
        <ele>134.56741333008</ele>
        <time>2009-06-25T04:19:30Z</time>
      </trkpt>
      <trkpt lat="43.14969" lon="5.97297">
        <ele>137.55389404297</ele>
        <time>2009-06-25T04:19:38Z</time>
      </trkpt>
      <trkpt lat="43.14982" lon="5.97277">
        <ele>138.36004638672</ele>
        <time>2009-06-25T04:19:45Z</time>
      </trkpt>
      <trkpt lat="43.14994" lon="5.97259">
        <ele>138.79949951172</ele>
        <time>2009-06-25T04:19:51Z</time>
      </trkpt>
      <trkpt lat="43.15009" lon="5.97236">
        <ele>139.65742492676</ele>
        <time>2009-06-25T04:19:58Z</time>
      </trkpt>
      <trkpt lat="43.15019" lon="5.9721">
        <ele>140</ele>
        <time>2009-06-25T04:20:05Z</time>
      </trkpt>
      <trkpt lat="43.15036" lon="5.97164">
        <ele>140</ele>
        <time>2009-06-25T04:20:16Z</time>
      </trkpt>
      <trkpt lat="43.15043" lon="5.97146">
        <ele>140</ele>
        <time>2009-06-25T04:20:21Z</time>
      </trkpt>
      <trkpt lat="43.15054" lon="5.97116">
        <ele>140</ele>
        <time>2009-06-25T04:20:28Z</time>
      </trkpt>
      <trkpt lat="43.15068" lon="5.97074">
        <ele>142.32948303223</ele>
        <time>2009-06-25T04:20:38Z</time>
      </trkpt>
      <trkpt lat="43.1508" lon="5.97037">
        <ele>145.28536987305</ele>
        <time>2009-06-25T04:20:46Z</time>
      </trkpt>
      <trkpt lat="43.15094" lon="5.97003">
        <ele>148.19781494141</ele>
        <time>2009-06-25T04:20:53Z</time>
      </trkpt>
      <trkpt lat="43.15107" lon="5.96969">
        <ele>150.80767822266</ele>
        <time>2009-06-25T04:21:01Z</time>
      </trkpt>
      <trkpt lat="43.15121" lon="5.96931">
        <ele>152.85382080078</ele>
        <time>2009-06-25T04:21:10Z</time>
      </trkpt>
      <trkpt lat="43.15136" lon="5.96907">
        <ele>154.2442779541</ele>
        <time>2009-06-25T04:21:17Z</time>
      </trkpt>
      <trkpt lat="43.15156" lon="5.96878">
        <ele>165.29830932617</ele>
        <time>2009-06-25T04:21:25Z</time>
      </trkpt>
      <trkpt lat="43.1518" lon="5.96845">
        <ele>175.62730407715</ele>
        <time>2009-06-25T04:21:33Z</time>
      </trkpt>
      <trkpt lat="43.15201" lon="5.96815">
        <ele>179.22900390625</ele>
        <time>2009-06-25T04:21:40Z</time>
      </trkpt>
      <trkpt lat="43.15224" lon="5.96771">
        <ele>180</ele>
        <time>2009-06-25T04:21:49Z</time>
      </trkpt>
      <trkpt lat="43.15239" lon="5.96734">
        <ele>180</ele>
        <time>2009-06-25T04:21:57Z</time>
      </trkpt>
      <trkpt lat="43.15246" lon="5.96705">
        <ele>180</ele>
        <time>2009-06-25T04:22:03Z</time>
      </trkpt>
      <trkpt lat="43.15252" lon="5.96669">
        <ele>180</ele>
        <time>2009-06-25T04:22:11Z</time>
      </trkpt>
      <trkpt lat="43.15256" lon="5.96639">
        <ele>180</ele>
        <time>2009-06-25T04:22:18Z</time>
      </trkpt>
      <trkpt lat="43.15259" lon="5.96614">
        <ele>180</ele>
        <time>2009-06-25T04:22:24Z</time>
      </trkpt>
      <trkpt lat="43.15264" lon="5.96588">
        <ele>180</ele>
        <time>2009-06-25T04:22:31Z</time>
      </trkpt>
      <trkpt lat="43.15266" lon="5.9657">
        <ele>180</ele>
        <time>2009-06-25T04:22:36Z</time>
      </trkpt>
      <trkpt lat="43.1527" lon="5.96537">
        <ele>180</ele>
        <time>2009-06-25T04:22:44Z</time>
      </trkpt>
      <trkpt lat="43.15275" lon="5.96506">
        <ele>180</ele>
        <time>2009-06-25T04:22:52Z</time>
      </trkpt>
      <trkpt lat="43.1528" lon="5.96477">
        <ele>180</ele>
        <time>2009-06-25T04:22:59Z</time>
      </trkpt>
      <trkpt lat="43.15282" lon="5.96457">
        <ele>180</ele>
        <time>2009-06-25T04:23:04Z</time>
      </trkpt>
      <trkpt lat="43.15288" lon="5.96431">
        <ele>180</ele>
        <time>2009-06-25T04:23:11Z</time>
      </trkpt>
      <trkpt lat="43.15298" lon="5.96405">
        <ele>180.23115539551</ele>
        <time>2009-06-25T04:23:18Z</time>
      </trkpt>
      <trkpt lat="43.1531" lon="5.96383">
        <ele>180.34315490723</ele>
        <time>2009-06-25T04:23:25Z</time>
      </trkpt>
      <trkpt lat="43.1532" lon="5.9636">
        <ele>181.09603881836</ele>
        <time>2009-06-25T04:23:32Z</time>
      </trkpt>
      <trkpt lat="43.1533" lon="5.96341">
        <ele>183.22463989258</ele>
        <time>2009-06-25T04:23:38Z</time>
      </trkpt>
      <trkpt lat="43.15345" lon="5.96313">
        <ele>187.36262512207</ele>
        <time>2009-06-25T04:23:46Z</time>
      </trkpt>
      <trkpt lat="43.15357" lon="5.96289">
        <ele>190.67785644531</ele>
        <time>2009-06-25T04:23:53Z</time>
      </trkpt>
      <trkpt lat="43.1537" lon="5.9626">
        <ele>194.02151489258</ele>
        <time>2009-06-25T04:24:01Z</time>
      </trkpt>
      <trkpt lat="43.1538" lon="5.96241">
        <ele>196.13078308106</ele>
        <time>2009-06-25T04:24:07Z</time>
      </trkpt>
      <trkpt lat="43.15393" lon="5.96211">
        <ele>198.80426025391</ele>
        <time>2009-06-25T04:24:15Z</time>
      </trkpt>
      <trkpt lat="43.15405" lon="5.96189">
        <ele>200.49256896973</ele>
        <time>2009-06-25T04:24:21Z</time>
      </trkpt>
      <trkpt lat="43.15417" lon="5.96162">
        <ele>202.52801513672</ele>
        <time>2009-06-25T04:24:28Z</time>
      </trkpt>
      <trkpt lat="43.15436" lon="5.96143">
        <ele>205.20764160156</ele>
        <time>2009-06-25T04:24:35Z</time>
      </trkpt>
      <trkpt lat="43.15454" lon="5.96142">
        <ele>205.74920654297</ele>
        <time>2009-06-25T04:24:41Z</time>
      </trkpt>
      <trkpt lat="43.15472" lon="5.9615">
        <ele>205.21670532227</ele>
        <time>2009-06-25T04:24:47Z</time>
      </trkpt>
      <trkpt lat="43.15491" lon="5.96161">
        <ele>204.95404052734</ele>
        <time>2009-06-25T04:24:54Z</time>
      </trkpt>
      <trkpt lat="43.15508" lon="5.96167">
        <ele>205.00137329102</ele>
        <time>2009-06-25T04:25:00Z</time>
      </trkpt>
      <trkpt lat="43.15528" lon="5.96181">
        <ele>205.52398681641</ele>
        <time>2009-06-25T04:25:07Z</time>
      </trkpt>
      <trkpt lat="43.15542" lon="5.962">
        <ele>207.11003112793</ele>
        <time>2009-06-25T04:25:13Z</time>
      </trkpt>
      <trkpt lat="43.15558" lon="5.96213">
        <ele>209.63833618164</ele>
        <time>2009-06-25T04:25:18Z</time>
      </trkpt>
      <trkpt lat="43.15575" lon="5.96215">
        <ele>215.85725402832</ele>
        <time>2009-06-25T04:25:23Z</time>
      </trkpt>
      <trkpt lat="43.15599" lon="5.96207">
        <ele>220.07765197754</ele>
        <time>2009-06-25T04:25:29Z</time>
      </trkpt>
      <trkpt lat="43.1562" lon="5.96196">
        <ele>221.7022857666</ele>
        <time>2009-06-25T04:25:36Z</time>
      </trkpt>
      <trkpt lat="43.15632" lon="5.96187">
        <ele>222.24768066406</ele>
        <time>2009-06-25T04:25:41Z</time>
      </trkpt>
      <trkpt lat="43.15647" lon="5.96176">
        <ele>222.63265991211</ele>
        <time>2009-06-25T04:25:47Z</time>
      </trkpt>
      <trkpt lat="43.15665" lon="5.9617">
        <ele>223.05323791504</ele>
        <time>2009-06-25T04:25:53Z</time>
      </trkpt>
      <trkpt lat="43.15681" lon="5.96163">
        <ele>222.35394287109</ele>
        <time>2009-06-25T04:25:58Z</time>
      </trkpt>
      <trkpt lat="43.15701" lon="5.96149">
        <ele>221.35083007812</ele>
        <time>2009-06-25T04:26:05Z</time>
      </trkpt>
      <trkpt lat="43.15718" lon="5.96143">
        <ele>221.13110351562</ele>
        <time>2009-06-25T04:26:10Z</time>
      </trkpt>
      <trkpt lat="43.15734" lon="5.96149">
        <ele>220.96612548828</ele>
        <time>2009-06-25T04:26:15Z</time>
      </trkpt>
      <trkpt lat="43.15742" lon="5.96167">
        <ele>221.29400634766</ele>
        <time>2009-06-25T04:26:20Z</time>
      </trkpt>
      <trkpt lat="43.15739" lon="5.96192">
        <ele>222.30337524414</ele>
        <time>2009-06-25T04:26:26Z</time>
      </trkpt>
      <trkpt lat="43.1573" lon="5.96235">
        <ele>224.17446899414</ele>
        <time>2009-06-25T04:26:35Z</time>
      </trkpt>
      <trkpt lat="43.15721" lon="5.96272">
        <ele>224.99180603027</ele>
        <time>2009-06-25T04:26:42Z</time>
      </trkpt>
      <trkpt lat="43.15715" lon="5.96315">
        <ele>226.34352111816</ele>
        <time>2009-06-25T04:26:50Z</time>
      </trkpt>
      <trkpt lat="43.15712" lon="5.96366">
        <ele>228.16485595703</ele>
        <time>2009-06-25T04:26:58Z</time>
      </trkpt>
      <trkpt lat="43.1571" lon="5.9642">
        <ele>230.07708740234</ele>
        <time>2009-06-25T04:27:06Z</time>
      </trkpt>
      <trkpt lat="43.15711" lon="5.96468">
        <ele>231.43518066406</ele>
        <time>2009-06-25T04:27:14Z</time>
      </trkpt>
      <trkpt lat="43.15714" lon="5.96509">
        <ele>233.01960754394</ele>
        <time>2009-06-25T04:27:22Z</time>
      </trkpt>
      <trkpt lat="43.15716" lon="5.96541">
        <ele>234.23324584961</ele>
        <time>2009-06-25T04:27:28Z</time>
      </trkpt>
      <trkpt lat="43.15714" lon="5.96578">
        <ele>234.93902587891</ele>
        <time>2009-06-25T04:27:35Z</time>
      </trkpt>
      <trkpt lat="43.15705" lon="5.96624">
        <ele>236.47747802734</ele>
        <time>2009-06-25T04:27:43Z</time>
      </trkpt>
      <trkpt lat="43.1569" lon="5.96676">
        <ele>237.60050964356</ele>
        <time>2009-06-25T04:27:50Z</time>
      </trkpt>
      <trkpt lat="43.15688" lon="5.96683">
        <ele>237.92840576172</ele>
        <time>2009-06-25T04:27:51Z</time>
      </trkpt>
      <trkpt lat="43.15672" lon="5.96732">
        <ele>239.35702514648</ele>
        <time>2009-06-25T04:27:59Z</time>
      </trkpt>
      <trkpt lat="43.15665" lon="5.9675">
        <ele>240.04258728027</ele>
        <time>2009-06-25T04:28:02Z</time>
      </trkpt>
      <trkpt lat="43.15661" lon="5.96762">
        <ele>240.97288513184</ele>
        <time>2009-06-25T04:28:04Z</time>
      </trkpt>
      <trkpt lat="43.15655" lon="5.96782">
        <ele>242.22358703613</ele>
        <time>2009-06-25T04:28:07Z</time>
      </trkpt>
      <trkpt lat="43.1565" lon="5.96802">
        <ele>243.19984436035</ele>
        <time>2009-06-25T04:28:10Z</time>
      </trkpt>
      <trkpt lat="43.15634" lon="5.96852">
        <ele>244.90733337402</ele>
        <time>2009-06-25T04:28:18Z</time>
      </trkpt>
      <trkpt lat="43.15617" lon="5.96886">
        <ele>245.97738647461</ele>
        <time>2009-06-25T04:28:25Z</time>
      </trkpt>
      <trkpt lat="43.15591" lon="5.96928">
        <ele>247.53567504883</ele>
        <time>2009-06-25T04:28:34Z</time>
      </trkpt>
      <trkpt lat="43.1557" lon="5.96965">
        <ele>247.18615722656</ele>
        <time>2009-06-25T04:28:40Z</time>
      </trkpt>
      <trkpt lat="43.15562" lon="5.97005">
        <ele>246.29724121094</ele>
        <time>2009-06-25T04:28:45Z</time>
      </trkpt>
      <trkpt lat="43.15562" lon="5.97013">
        <ele>246.02772521973</ele>
        <time>2009-06-25T04:28:46Z</time>
      </trkpt>
      <trkpt lat="43.15575" lon="5.97084">
        <ele>245.37451171875</ele>
        <time>2009-06-25T04:28:55Z</time>
      </trkpt>
      <trkpt lat="43.15582" lon="5.9712">
        <ele>245.60729980469</ele>
        <time>2009-06-25T04:29:00Z</time>
      </trkpt>
      <trkpt lat="43.15585" lon="5.97149">
        <ele>245.05804443359</ele>
        <time>2009-06-25T04:29:04Z</time>
      </trkpt>
      <trkpt lat="43.15583" lon="5.97222">
        <ele>243.97875976562</ele>
        <time>2009-06-25T04:29:14Z</time>
      </trkpt>
      <trkpt lat="43.15586" lon="5.97286">
        <ele>242.09924316406</ele>
        <time>2009-06-25T04:29:23Z</time>
      </trkpt>
      <trkpt lat="43.15594" lon="5.97319">
        <ele>241.90596008301</ele>
        <time>2009-06-25T04:29:28Z</time>
      </trkpt>
      <trkpt lat="43.156" lon="5.97331">
        <ele>241.69482421875</ele>
        <time>2009-06-25T04:29:30Z</time>
      </trkpt>
      <trkpt lat="43.15631" lon="5.97368">
        <ele>242.67146301269</ele>
        <time>2009-06-25T04:29:38Z</time>
      </trkpt>
      <trkpt lat="43.15642" lon="5.97381">
        <ele>243.52124023438</ele>
        <time>2009-06-25T04:29:41Z</time>
      </trkpt>
      <trkpt lat="43.15657" lon="5.97413">
        <ele>245.32202148438</ele>
        <time>2009-06-25T04:29:46Z</time>
      </trkpt>
      <trkpt lat="43.15667" lon="5.97463">
        <ele>247.04870605469</ele>
        <time>2009-06-25T04:29:54Z</time>
      </trkpt>
      <trkpt lat="43.1567" lon="5.97495">
        <ele>246.61639404297</ele>
        <time>2009-06-25T04:30:02Z</time>
      </trkpt>
      <trkpt lat="43.15673" lon="5.97526">
        <ele>246.02737426758</ele>
        <time>2009-06-25T04:30:10Z</time>
      </trkpt>
      <trkpt lat="43.15677" lon="5.97556">
        <ele>247.52514648438</ele>
        <time>2009-06-25T04:30:17Z</time>
      </trkpt>
      <trkpt lat="43.15682" lon="5.97591">
        <ele>252.91987609863</ele>
        <time>2009-06-25T04:30:25Z</time>
      </trkpt>
      <trkpt lat="43.15685" lon="5.97611">
        <ele>255.27865600586</ele>
        <time>2009-06-25T04:30:30Z</time>
      </trkpt>
      <trkpt lat="43.15691" lon="5.97634">
        <ele>258.96734619141</ele>
        <time>2009-06-25T04:30:36Z</time>
      </trkpt>
      <trkpt lat="43.15697" lon="5.97667">
        <ele>265.43341064453</ele>
        <time>2009-06-25T04:30:43Z</time>
      </trkpt>
      <trkpt lat="43.157" lon="5.97692">
        <ele>269.17733764648</ele>
        <time>2009-06-25T04:30:49Z</time>
      </trkpt>
      <trkpt lat="43.15702" lon="5.97711">
        <ele>273.33868408203</ele>
        <time>2009-06-25T04:30:55Z</time>
      </trkpt>
      <trkpt lat="43.15706" lon="5.97731">
        <ele>277.62451171875</ele>
        <time>2009-06-25T04:31:00Z</time>
      </trkpt>
      <trkpt lat="43.1571" lon="5.97749">
        <ele>281.39178466797</ele>
        <time>2009-06-25T04:31:05Z</time>
      </trkpt>
      <trkpt lat="43.15713" lon="5.97768">
        <ele>284.47760009766</ele>
        <time>2009-06-25T04:31:10Z</time>
      </trkpt>
      <trkpt lat="43.1571" lon="5.97788">
        <ele>285.49310302734</ele>
        <time>2009-06-25T04:31:15Z</time>
      </trkpt>
      <trkpt lat="43.15705" lon="5.97815">
        <ele>285.26318359375</ele>
        <time>2009-06-25T04:31:21Z</time>
      </trkpt>
      <trkpt lat="43.15702" lon="5.9783">
        <ele>284.60473632812</ele>
        <time>2009-06-25T04:31:26Z</time>
      </trkpt>
      <trkpt lat="43.15697" lon="5.97843">
        <ele>282.77542114258</ele>
        <time>2009-06-25T04:31:29Z</time>
      </trkpt>
      <trkpt lat="43.15686" lon="5.97846">
        <ele>279.89791870117</ele>
        <time>2009-06-25T04:31:34Z</time>
      </trkpt>
      <trkpt lat="43.15674" lon="5.97842">
        <ele>276.64395141602</ele>
        <time>2009-06-25T04:31:39Z</time>
      </trkpt>
      <trkpt lat="43.15657" lon="5.97838">
        <ele>271.08639526367</ele>
        <time>2009-06-25T04:31:44Z</time>
      </trkpt>
      <trkpt lat="43.1565" lon="5.97851">
        <ele>269.59332275391</ele>
        <time>2009-06-25T04:31:48Z</time>
      </trkpt>
      <trkpt lat="43.15652" lon="5.97863">
        <ele>271.56057739258</ele>
        <time>2009-06-25T04:31:51Z</time>
      </trkpt>
      <trkpt lat="43.15655" lon="5.97888">
        <ele>275.35772705078</ele>
        <time>2009-06-25T04:31:58Z</time>
      </trkpt>
      <trkpt lat="43.15659" lon="5.97917">
        <ele>277.08880615234</ele>
        <time>2009-06-25T04:32:04Z</time>
      </trkpt>
      <trkpt lat="43.15663" lon="5.97938">
        <ele>278.70495605469</ele>
        <time>2009-06-25T04:32:09Z</time>
      </trkpt>
      <trkpt lat="43.15668" lon="5.97959">
        <ele>281.63067626953</ele>
        <time>2009-06-25T04:32:14Z</time>
      </trkpt>
      <trkpt lat="43.15675" lon="5.97965">
        <ele>284.01675415039</ele>
        <time>2009-06-25T04:32:16Z</time>
      </trkpt>
      <trkpt lat="43.15678" lon="5.97952">
        <ele>284.37380981445</ele>
        <time>2009-06-25T04:32:20Z</time>
      </trkpt>
      <trkpt lat="43.1568" lon="5.9793">
        <ele>283.7848815918</ele>
        <time>2009-06-25T04:32:26Z</time>
      </trkpt>
      <trkpt lat="43.15691" lon="5.97922">
        <ele>286.55853271484</ele>
        <time>2009-06-25T04:32:31Z</time>
      </trkpt>
      <trkpt lat="43.15708" lon="5.97921">
        <ele>293.75094604492</ele>
        <time>2009-06-25T04:32:37Z</time>
      </trkpt>
      <trkpt lat="43.15719" lon="5.97914">
        <ele>298.39306640625</ele>
        <time>2009-06-25T04:32:42Z</time>
      </trkpt>
      <trkpt lat="43.15733" lon="5.97903">
        <ele>305.99923706055</ele>
        <time>2009-06-25T04:32:48Z</time>
      </trkpt>
      <trkpt lat="43.15743" lon="5.97891">
        <ele>310.78491210938</ele>
        <time>2009-06-25T04:32:54Z</time>
      </trkpt>
      <trkpt lat="43.15759" lon="5.97877">
        <ele>315.31704711914</ele>
        <time>2009-06-25T04:33:01Z</time>
      </trkpt>
      <trkpt lat="43.15773" lon="5.97861">
        <ele>318.30410766602</ele>
        <time>2009-06-25T04:33:08Z</time>
      </trkpt>
      <trkpt lat="43.15784" lon="5.97848">
        <ele>320.88363647461</ele>
        <time>2009-06-25T04:33:14Z</time>
      </trkpt>
      <trkpt lat="43.15793" lon="5.97828">
        <ele>321.32763671875</ele>
        <time>2009-06-25T04:33:20Z</time>
      </trkpt>
      <trkpt lat="43.15796" lon="5.97809">
        <ele>320.23590087891</ele>
        <time>2009-06-25T04:33:26Z</time>
      </trkpt>
      <trkpt lat="43.15799" lon="5.97794">
        <ele>318.96194458008</ele>
        <time>2009-06-25T04:33:31Z</time>
      </trkpt>
      <trkpt lat="43.15805" lon="5.97774">
        <ele>317.39239501953</ele>
        <time>2009-06-25T04:33:37Z</time>
      </trkpt>
      <trkpt lat="43.15817" lon="5.97759">
        <ele>318.91616821289</ele>
        <time>2009-06-25T04:33:43Z</time>
      </trkpt>
      <trkpt lat="43.15829" lon="5.97755">
        <ele>322.28060913086</ele>
        <time>2009-06-25T04:33:49Z</time>
      </trkpt>
      <trkpt lat="43.15839" lon="5.97753">
        <ele>324.39117431641</ele>
        <time>2009-06-25T04:33:54Z</time>
      </trkpt>
      <trkpt lat="43.15852" lon="5.97752">
        <ele>326.49230957031</ele>
        <time>2009-06-25T04:33:59Z</time>
      </trkpt>
      <trkpt lat="43.15871" lon="5.97754">
        <ele>329.81753540039</ele>
        <time>2009-06-25T04:34:06Z</time>
      </trkpt>
      <trkpt lat="43.15884" lon="5.97757">
        <ele>332.38088989258</ele>
        <time>2009-06-25T04:34:13Z</time>
      </trkpt>
      <trkpt lat="43.15899" lon="5.97763">
        <ele>335.97369384766</ele>
        <time>2009-06-25T04:34:20Z</time>
      </trkpt>
      <trkpt lat="43.15912" lon="5.97768">
        <ele>339.02124023438</ele>
        <time>2009-06-25T04:34:26Z</time>
      </trkpt>
      <trkpt lat="43.15924" lon="5.97774">
        <ele>342.0439453125</ele>
        <time>2009-06-25T04:34:32Z</time>
      </trkpt>
      <trkpt lat="43.15941" lon="5.97775">
        <ele>345.1692199707</ele>
        <time>2009-06-25T04:34:38Z</time>
      </trkpt>
      <trkpt lat="43.15952" lon="5.97766">
        <ele>346.70953369141</ele>
        <time>2009-06-25T04:34:43Z</time>
      </trkpt>
      <trkpt lat="43.15964" lon="5.97753">
        <ele>348.50170898438</ele>
        <time>2009-06-25T04:34:49Z</time>
      </trkpt>
      <trkpt lat="43.15977" lon="5.9774">
        <ele>349.0615234375</ele>
        <time>2009-06-25T04:34:56Z</time>
      </trkpt>
      <trkpt lat="43.1599" lon="5.97722">
        <ele>348.55902099609</ele>
        <time>2009-06-25T04:35:03Z</time>
      </trkpt>
      <trkpt lat="43.16006" lon="5.97702">
        <ele>348.44119262695</ele>
        <time>2009-06-25T04:35:11Z</time>
      </trkpt>
      <trkpt lat="43.16018" lon="5.9769">
        <ele>349.45227050781</ele>
        <time>2009-06-25T04:35:17Z</time>
      </trkpt>
      <trkpt lat="43.16032" lon="5.97677">
        <ele>350.69119262695</ele>
        <time>2009-06-25T04:35:24Z</time>
      </trkpt>
      <trkpt lat="43.1605" lon="5.97657">
        <ele>350.87924194336</ele>
        <time>2009-06-25T04:35:32Z</time>
      </trkpt>
      <trkpt lat="43.16061" lon="5.97644">
        <ele>350.55075073242</ele>
        <time>2009-06-25T04:35:38Z</time>
      </trkpt>
      <trkpt lat="43.1607" lon="5.9762">
        <ele>347.66931152344</ele>
        <time>2009-06-25T04:35:45Z</time>
      </trkpt>
      <trkpt lat="43.16083" lon="5.97579">
        <ele>344.26962280273</ele>
        <time>2009-06-25T04:35:55Z</time>
      </trkpt>
      <trkpt lat="43.16089" lon="5.9757">
        <ele>343.04531860352</ele>
        <time>2009-06-25T04:35:58Z</time>
      </trkpt>
      <trkpt lat="43.16098" lon="5.97573">
        <ele>344.6139831543</ele>
        <time>2009-06-25T04:36:02Z</time>
      </trkpt>
      <trkpt lat="43.16096" lon="5.97585">
        <ele>346.67907714844</ele>
        <time>2009-06-25T04:36:05Z</time>
      </trkpt>
      <trkpt lat="43.16082" lon="5.97617">
        <ele>348.9499206543</ele>
        <time>2009-06-25T04:36:13Z</time>
      </trkpt>
      <trkpt lat="43.16079" lon="5.97638">
        <ele>352.16857910156</ele>
        <time>2009-06-25T04:36:18Z</time>
      </trkpt>
      <trkpt lat="43.16074" lon="5.97656">
        <ele>354.4892578125</ele>
        <time>2009-06-25T04:36:23Z</time>
      </trkpt>
      <trkpt lat="43.16068" lon="5.97673">
        <ele>355.85577392578</ele>
        <time>2009-06-25T04:36:28Z</time>
      </trkpt>
      <trkpt lat="43.1606" lon="5.97694">
        <ele>356.75872802734</ele>
        <time>2009-06-25T04:36:34Z</time>
      </trkpt>
      <trkpt lat="43.16053" lon="5.97716">
        <ele>359.40805053711</ele>
        <time>2009-06-25T04:36:41Z</time>
      </trkpt>
      <trkpt lat="43.16048" lon="5.97736">
        <ele>361.51983642578</ele>
        <time>2009-06-25T04:36:47Z</time>
      </trkpt>
      <trkpt lat="43.16041" lon="5.97759">
        <ele>363.12808227539</ele>
        <time>2009-06-25T04:36:54Z</time>
      </trkpt>
      <trkpt lat="43.16036" lon="5.9778">
        <ele>364.06481933594</ele>
        <time>2009-06-25T04:37:00Z</time>
      </trkpt>
      <trkpt lat="43.16034" lon="5.97799">
        <ele>365.74340820312</ele>
        <time>2009-06-25T04:37:06Z</time>
      </trkpt>
      <trkpt lat="43.16036" lon="5.97822">
        <ele>368.27810668945</ele>
        <time>2009-06-25T04:37:13Z</time>
      </trkpt>
      <trkpt lat="43.1604" lon="5.97844">
        <ele>371.76727294922</ele>
        <time>2009-06-25T04:37:20Z</time>
      </trkpt>
      <trkpt lat="43.16044" lon="5.97868">
        <ele>375.90301513672</ele>
        <time>2009-06-25T04:37:27Z</time>
      </trkpt>
      <trkpt lat="43.16045" lon="5.97893">
        <ele>378.76290893555</ele>
        <time>2009-06-25T04:37:34Z</time>
      </trkpt>
      <trkpt lat="43.16042" lon="5.97917">
        <ele>380.5725402832</ele>
        <time>2009-06-25T04:37:42Z</time>
      </trkpt>
      <trkpt lat="43.16035" lon="5.9794">
        <ele>381.85046386719</ele>
        <time>2009-06-25T04:37:49Z</time>
      </trkpt>
      <trkpt lat="43.16028" lon="5.9796">
        <ele>382.21185302734</ele>
        <time>2009-06-25T04:37:56Z</time>
      </trkpt>
      <trkpt lat="43.16021" lon="5.97975">
        <ele>382.42114257812</ele>
        <time>2009-06-25T04:38:02Z</time>
      </trkpt>
      <trkpt lat="43.16014" lon="5.97991">
        <ele>382.11837768555</ele>
        <time>2009-06-25T04:38:08Z</time>
      </trkpt>
      <trkpt lat="43.16005" lon="5.98007">
        <ele>380.76770019531</ele>
        <time>2009-06-25T04:38:14Z</time>
      </trkpt>
      <trkpt lat="43.15999" lon="5.98026">
        <ele>380.67419433594</ele>
        <time>2009-06-25T04:38:21Z</time>
      </trkpt>
      <trkpt lat="43.15993" lon="5.98045">
        <ele>381.37686157227</ele>
        <time>2009-06-25T04:38:28Z</time>
      </trkpt>
      <trkpt lat="43.15988" lon="5.98064">
        <ele>382.34930419922</ele>
        <time>2009-06-25T04:38:35Z</time>
      </trkpt>
      <trkpt lat="43.15984" lon="5.98081">
        <ele>383.08746337891</ele>
        <time>2009-06-25T04:38:41Z</time>
      </trkpt>
      <trkpt lat="43.15982" lon="5.98098">
        <ele>384.08996582031</ele>
        <time>2009-06-25T04:38:47Z</time>
      </trkpt>
      <trkpt lat="43.15982" lon="5.98119">
        <ele>385.75653076172</ele>
        <time>2009-06-25T04:38:54Z</time>
      </trkpt>
      <trkpt lat="43.15983" lon="5.98141">
        <ele>387.64627075195</ele>
        <time>2009-06-25T04:39:01Z</time>
      </trkpt>
      <trkpt lat="43.15986" lon="5.98161">
        <ele>389.19116210938</ele>
        <time>2009-06-25T04:39:08Z</time>
      </trkpt>
      <trkpt lat="43.15989" lon="5.98184">
        <ele>391.43692016602</ele>
        <time>2009-06-25T04:39:15Z</time>
      </trkpt>
      <trkpt lat="43.15995" lon="5.98207">
        <ele>393.75274658203</ele>
        <time>2009-06-25T04:39:22Z</time>
      </trkpt>
      <trkpt lat="43.16001" lon="5.98234">
        <ele>396.61688232422</ele>
        <time>2009-06-25T04:39:30Z</time>
      </trkpt>
      <trkpt lat="43.16005" lon="5.98264">
        <ele>400.87823486328</ele>
        <time>2009-06-25T04:39:39Z</time>
      </trkpt>
      <trkpt lat="43.16003" lon="5.98296">
        <ele>399.65420532227</ele>
        <time>2009-06-25T04:39:48Z</time>
      </trkpt>
      <trkpt lat="43.15999" lon="5.98326">
        <ele>397.86309814453</ele>
        <time>2009-06-25T04:39:57Z</time>
      </trkpt>
      <trkpt lat="43.15992" lon="5.98365">
        <ele>397.89916992188</ele>
        <time>2009-06-25T04:40:09Z</time>
      </trkpt>
      <trkpt lat="43.15993" lon="5.98387">
        <ele>398.00903320312</ele>
        <time>2009-06-25T04:40:16Z</time>
      </trkpt>
      <trkpt lat="43.15997" lon="5.98405">
        <ele>398.6706237793</ele>
        <time>2009-06-25T04:40:22Z</time>
      </trkpt>
      <trkpt lat="43.16004" lon="5.98438">
        <ele>401.408203125</ele>
        <time>2009-06-25T04:40:32Z</time>
      </trkpt>
      <trkpt lat="43.16013" lon="5.98467">
        <ele>407.50451660156</ele>
        <time>2009-06-25T04:40:41Z</time>
      </trkpt>
      <trkpt lat="43.16014" lon="5.98499">
        <ele>410.36618041992</ele>
        <time>2009-06-25T04:40:50Z</time>
      </trkpt>
      <trkpt lat="43.16005" lon="5.9853">
        <ele>405.76824951172</ele>
        <time>2009-06-25T04:40:58Z</time>
      </trkpt>
      <trkpt lat="43.15998" lon="5.9856">
        <ele>404.05895996094</ele>
        <time>2009-06-25T04:41:06Z</time>
      </trkpt>
      <trkpt lat="43.16" lon="5.98563">
        <ele>404.69165039062</ele>
        <time>2009-06-25T04:41:07Z</time>
      </trkpt>
      <trkpt lat="43.16011" lon="5.98565">
        <ele>414.45846557617</ele>
        <time>2009-06-25T04:41:11Z</time>
      </trkpt>
      <trkpt lat="43.16014" lon="5.98559">
        <ele>416.99142456055</ele>
        <time>2009-06-25T04:41:13Z</time>
      </trkpt>
      <trkpt lat="43.1602" lon="5.98533">
        <ele>418.40280151367</ele>
        <time>2009-06-25T04:41:21Z</time>
      </trkpt>
      <trkpt lat="43.16024" lon="5.98507">
        <ele>418.49758911133</ele>
        <time>2009-06-25T04:41:28Z</time>
      </trkpt>
      <trkpt lat="43.16033" lon="5.98494">
        <ele>422.83352661133</ele>
        <time>2009-06-25T04:41:35Z</time>
      </trkpt>
      <trkpt lat="43.1604" lon="5.98478">
        <ele>426.66598510742</ele>
        <time>2009-06-25T04:41:42Z</time>
      </trkpt>
      <trkpt lat="43.16044" lon="5.98457">
        <ele>428.74584960938</ele>
        <time>2009-06-25T04:41:49Z</time>
      </trkpt>
      <trkpt lat="43.16051" lon="5.98439">
        <ele>433.98461914062</ele>
        <time>2009-06-25T04:41:55Z</time>
      </trkpt>
      <trkpt lat="43.16059" lon="5.98419">
        <ele>437.51715087891</ele>
        <time>2009-06-25T04:42:02Z</time>
      </trkpt>
      <trkpt lat="43.16069" lon="5.98396">
        <ele>438.67208862305</ele>
        <time>2009-06-25T04:42:11Z</time>
      </trkpt>
      <trkpt lat="43.16076" lon="5.9838">
        <ele>438.99871826172</ele>
        <time>2009-06-25T04:42:17Z</time>
      </trkpt>
      <trkpt lat="43.16084" lon="5.98366">
        <ele>440.29766845703</ele>
        <time>2009-06-25T04:42:23Z</time>
      </trkpt>
      <trkpt lat="43.16092" lon="5.98351">
        <ele>445.68389892578</ele>
        <time>2009-06-25T04:42:29Z</time>
      </trkpt>
      <trkpt lat="43.16097" lon="5.98336">
        <ele>449.11288452148</ele>
        <time>2009-06-25T04:42:35Z</time>
      </trkpt>
      <trkpt lat="43.16106" lon="5.98319">
        <ele>453.48297119141</ele>
        <time>2009-06-25T04:42:41Z</time>
      </trkpt>
      <trkpt lat="43.16114" lon="5.98298">
        <ele>455.44692993164</ele>
        <time>2009-06-25T04:42:50Z</time>
      </trkpt>
      <trkpt lat="43.16123" lon="5.98276">
        <ele>457.06317138672</ele>
        <time>2009-06-25T04:42:58Z</time>
      </trkpt>
      <trkpt lat="43.1613" lon="5.98256">
        <ele>457.56958007812</ele>
        <time>2009-06-25T04:43:06Z</time>
      </trkpt>
      <trkpt lat="43.16139" lon="5.98232">
        <ele>457.61651611328</ele>
        <time>2009-06-25T04:43:14Z</time>
      </trkpt>
      <trkpt lat="43.16149" lon="5.98212">
        <ele>458.88421630859</ele>
        <time>2009-06-25T04:43:21Z</time>
      </trkpt>
      <trkpt lat="43.16158" lon="5.98189">
        <ele>459.0348815918</ele>
        <time>2009-06-25T04:43:29Z</time>
      </trkpt>
      <trkpt lat="43.16168" lon="5.98167">
        <ele>460.40277099609</ele>
        <time>2009-06-25T04:43:36Z</time>
      </trkpt>
      <trkpt lat="43.16175" lon="5.98144">
        <ele>460.62762451172</ele>
        <time>2009-06-25T04:43:43Z</time>
      </trkpt>
      <trkpt lat="43.16185" lon="5.98127">
        <ele>461.36322021484</ele>
        <time>2009-06-25T04:43:49Z</time>
      </trkpt>
      <trkpt lat="43.16208" lon="5.98104">
        <ele>461.92227172852</ele>
        <time>2009-06-25T04:43:59Z</time>
      </trkpt>
      <trkpt lat="43.16219" lon="5.98085">
        <ele>459.85083007812</ele>
        <time>2009-06-25T04:44:05Z</time>
      </trkpt>
      <trkpt lat="43.16232" lon="5.9806">
        <ele>458.3698425293</ele>
        <time>2009-06-25T04:44:12Z</time>
      </trkpt>
      <trkpt lat="43.16246" lon="5.9804">
        <ele>457.41876220703</ele>
        <time>2009-06-25T04:44:18Z</time>
      </trkpt>
      <trkpt lat="43.16249" lon="5.98038">
        <ele>457.6848449707</ele>
        <time>2009-06-25T04:44:19Z</time>
      </trkpt>
      <trkpt lat="43.16258" lon="5.98045">
        <ele>459.9619140625</ele>
        <time>2009-06-25T04:44:23Z</time>
      </trkpt>
      <trkpt lat="43.16256" lon="5.98058">
        <ele>461.92391967773</ele>
        <time>2009-06-25T04:44:27Z</time>
      </trkpt>
      <trkpt lat="43.16236" lon="5.98087">
        <ele>463.17483520508</ele>
        <time>2009-06-25T04:44:36Z</time>
      </trkpt>
      <trkpt lat="43.16227" lon="5.98108">
        <ele>466.18667602539</ele>
        <time>2009-06-25T04:44:42Z</time>
      </trkpt>
      <trkpt lat="43.16217" lon="5.98142">
        <ele>471.53433227539</ele>
        <time>2009-06-25T04:44:51Z</time>
      </trkpt>
      <trkpt lat="43.1621" lon="5.98183">
        <ele>477.14852905273</ele>
        <time>2009-06-25T04:45:01Z</time>
      </trkpt>
      <trkpt lat="43.16211" lon="5.98219">
        <ele>485.18630981445</ele>
        <time>2009-06-25T04:45:10Z</time>
      </trkpt>
      <trkpt lat="43.16211" lon="5.98249">
        <ele>494.14227294922</ele>
        <time>2009-06-25T04:45:18Z</time>
      </trkpt>
      <trkpt lat="43.16209" lon="5.98284">
        <ele>496.98416137695</ele>
        <time>2009-06-25T04:45:27Z</time>
      </trkpt>
      <trkpt lat="43.16203" lon="5.98313">
        <ele>498.53262329102</ele>
        <time>2009-06-25T04:45:34Z</time>
      </trkpt>
      <trkpt lat="43.16198" lon="5.98333">
        <ele>499.93597412109</ele>
        <time>2009-06-25T04:45:40Z</time>
      </trkpt>
      <trkpt lat="43.16192" lon="5.98356">
        <ele>498.72155761719</ele>
        <time>2009-06-25T04:45:46Z</time>
      </trkpt>
      <trkpt lat="43.16184" lon="5.98383">
        <ele>496.10195922852</ele>
        <time>2009-06-25T04:45:54Z</time>
      </trkpt>
      <trkpt lat="43.16181" lon="5.98407">
        <ele>495.41430664062</ele>
        <time>2009-06-25T04:46:00Z</time>
      </trkpt>
      <trkpt lat="43.16182" lon="5.9845">
        <ele>496.51025390625</ele>
        <time>2009-06-25T04:46:11Z</time>
      </trkpt>
      <trkpt lat="43.16185" lon="5.98485">
        <ele>497.33514404297</ele>
        <time>2009-06-25T04:46:20Z</time>
      </trkpt>
      <trkpt lat="43.16187" lon="5.9853">
        <ele>498.52545166016</ele>
        <time>2009-06-25T04:46:31Z</time>
      </trkpt>
      <trkpt lat="43.16188" lon="5.98569">
        <ele>497.84963989258</ele>
        <time>2009-06-25T04:46:41Z</time>
      </trkpt>
      <trkpt lat="43.16191" lon="5.98611">
        <ele>498.78521728516</ele>
        <time>2009-06-25T04:46:51Z</time>
      </trkpt>
      <trkpt lat="43.16191" lon="5.98649">
        <ele>498.93228149414</ele>
        <time>2009-06-25T04:47:00Z</time>
      </trkpt>
      <trkpt lat="43.16191" lon="5.98682">
        <ele>499.54763793945</ele>
        <time>2009-06-25T04:47:07Z</time>
      </trkpt>
      <trkpt lat="43.16201" lon="5.9871">
        <ele>500</ele>
        <time>2009-06-25T04:47:13Z</time>
      </trkpt>
      <trkpt lat="43.16212" lon="5.98733">
        <ele>500.40158081055</ele>
        <time>2009-06-25T04:47:20Z</time>
      </trkpt>
      <trkpt lat="43.1622" lon="5.98758">
        <ele>501</ele>
        <time>2009-06-25T04:47:27Z</time>
      </trkpt>
      <trkpt lat="43.16228" lon="5.98781">
        <ele>501.10446166992</ele>
        <time>2009-06-25T04:47:34Z</time>
      </trkpt>
      <trkpt lat="43.16236" lon="5.98798">
        <ele>501.71215820312</ele>
        <time>2009-06-25T04:47:40Z</time>
      </trkpt>
      <trkpt lat="43.16242" lon="5.98819">
        <ele>502</ele>
        <time>2009-06-25T04:47:46Z</time>
      </trkpt>
      <trkpt lat="43.16249" lon="5.98841">
        <ele>502.25552368164</ele>
        <time>2009-06-25T04:47:53Z</time>
      </trkpt>
      <trkpt lat="43.16258" lon="5.98863">
        <ele>503.87213134766</ele>
        <time>2009-06-25T04:48:00Z</time>
      </trkpt>
      <trkpt lat="43.16267" lon="5.9889">
        <ele>505.53869628906</ele>
        <time>2009-06-25T04:48:07Z</time>
      </trkpt>
      <trkpt lat="43.16281" lon="5.98924">
        <ele>508.59552001953</ele>
        <time>2009-06-25T04:48:15Z</time>
      </trkpt>
      <trkpt lat="43.16298" lon="5.98947">
        <ele>511.34512329102</ele>
        <time>2009-06-25T04:48:21Z</time>
      </trkpt>
      <trkpt lat="43.16312" lon="5.98973">
        <ele>514.45208740234</ele>
        <time>2009-06-25T04:48:27Z</time>
      </trkpt>
      <trkpt lat="43.16325" lon="5.99019">
        <ele>513.71051025391</ele>
        <time>2009-06-25T04:48:36Z</time>
      </trkpt>
      <trkpt lat="43.16339" lon="5.99049">
        <ele>515.15930175781</ele>
        <time>2009-06-25T04:48:43Z</time>
      </trkpt>
      <trkpt lat="43.16359" lon="5.99083">
        <ele>517.86639404297</ele>
        <time>2009-06-25T04:48:52Z</time>
      </trkpt>
      <trkpt lat="43.16365" lon="5.99109">
        <ele>518.94012451172</ele>
        <time>2009-06-25T04:48:57Z</time>
      </trkpt>
      <trkpt lat="43.16357" lon="5.99126">
        <ele>519.28601074219</ele>
        <time>2009-06-25T04:49:01Z</time>
      </trkpt>
      <trkpt lat="43.16334" lon="5.99148">
        <ele>518.07763671875</ele>
        <time>2009-06-25T04:49:09Z</time>
      </trkpt>
      <trkpt lat="43.16324" lon="5.99166">
        <ele>517.3173828125</ele>
        <time>2009-06-25T04:49:14Z</time>
      </trkpt>
      <trkpt lat="43.16326" lon="5.99185">
        <ele>518.57635498047</ele>
        <time>2009-06-25T04:49:18Z</time>
      </trkpt>
      <trkpt lat="43.16331" lon="5.99227">
        <ele>522.93811035156</ele>
        <time>2009-06-25T04:49:27Z</time>
      </trkpt>
      <trkpt lat="43.16329" lon="5.99261">
        <ele>525.13201904297</ele>
        <time>2009-06-25T04:49:34Z</time>
      </trkpt>
      <trkpt lat="43.16319" lon="5.99291">
        <ele>526.22265625</ele>
        <time>2009-06-25T04:49:41Z</time>
      </trkpt>
      <trkpt lat="43.16315" lon="5.99318">
        <ele>528.61114501953</ele>
        <time>2009-06-25T04:49:47Z</time>
      </trkpt>
      <trkpt lat="43.16312" lon="5.99351">
        <ele>531.72332763672</ele>
        <time>2009-06-25T04:49:55Z</time>
      </trkpt>
      <trkpt lat="43.16303" lon="5.99372">
        <ele>533.52081298828</ele>
        <time>2009-06-25T04:50:02Z</time>
      </trkpt>
      <trkpt lat="43.16295" lon="5.99394">
        <ele>535.60504150391</ele>
        <time>2009-06-25T04:50:09Z</time>
      </trkpt>
      <trkpt lat="43.16287" lon="5.99426">
        <ele>538.06854248047</ele>
        <time>2009-06-25T04:50:18Z</time>
      </trkpt>
      <trkpt lat="43.16284" lon="5.99449">
        <ele>540.85247802734</ele>
        <time>2009-06-25T04:50:24Z</time>
      </trkpt>
      <trkpt lat="43.16285" lon="5.99476">
        <ele>542.43499755859</ele>
        <time>2009-06-25T04:50:31Z</time>
      </trkpt>
      <trkpt lat="43.16288" lon="5.99511">
        <ele>546.68530273438</ele>
        <time>2009-06-25T04:50:40Z</time>
      </trkpt>
      <trkpt lat="43.16287" lon="5.99542">
        <ele>549.29931640625</ele>
        <time>2009-06-25T04:50:48Z</time>
      </trkpt>
      <trkpt lat="43.16283" lon="5.99574">
        <ele>551.71923828125</ele>
        <time>2009-06-25T04:50:58Z</time>
      </trkpt>
      <trkpt lat="43.16278" lon="5.99595">
        <ele>553.21569824219</ele>
        <time>2009-06-25T04:51:04Z</time>
      </trkpt>
      <trkpt lat="43.16272" lon="5.99629">
        <ele>554.92718505859</ele>
        <time>2009-06-25T04:51:13Z</time>
      </trkpt>
      <trkpt lat="43.1627" lon="5.99667">
        <ele>558.42614746094</ele>
        <time>2009-06-25T04:51:22Z</time>
      </trkpt>
      <trkpt lat="43.16263" lon="5.99691">
        <ele>559.95007324219</ele>
        <time>2009-06-25T04:51:28Z</time>
      </trkpt>
      <trkpt lat="43.16253" lon="5.99695">
        <ele>557.87469482422</ele>
        <time>2009-06-25T04:51:32Z</time>
      </trkpt>
      <trkpt lat="43.16227" lon="5.99697">
        <ele>553.91027832031</ele>
        <time>2009-06-25T04:51:41Z</time>
      </trkpt>
      <trkpt lat="43.16209" lon="5.99704">
        <ele>552.59991455078</ele>
        <time>2009-06-25T04:51:47Z</time>
      </trkpt>
      <trkpt lat="43.16185" lon="5.99712">
        <ele>550.90557861328</ele>
        <time>2009-06-25T04:51:56Z</time>
      </trkpt>
      <trkpt lat="43.16166" lon="5.99726">
        <ele>550.79547119141</ele>
        <time>2009-06-25T04:52:03Z</time>
      </trkpt>
      <trkpt lat="43.1615" lon="5.99757">
        <ele>556.22021484375</ele>
        <time>2009-06-25T04:52:12Z</time>
      </trkpt>
      <trkpt lat="43.16135" lon="5.99797">
        <ele>561.13391113281</ele>
        <time>2009-06-25T04:52:24Z</time>
      </trkpt>
      <trkpt lat="43.16122" lon="5.99829">
        <ele>563.94036865234</ele>
        <time>2009-06-25T04:52:33Z</time>
      </trkpt>
      <trkpt lat="43.1611" lon="5.9985">
        <ele>566.40759277344</ele>
        <time>2009-06-25T04:52:40Z</time>
      </trkpt>
      <trkpt lat="43.16093" lon="5.99861">
        <ele>567.35272216797</ele>
        <time>2009-06-25T04:52:47Z</time>
      </trkpt>
      <trkpt lat="43.16075" lon="5.99875">
        <ele>567.69262695312</ele>
        <time>2009-06-25T04:52:55Z</time>
      </trkpt>
      <trkpt lat="43.16053" lon="5.99889">
        <ele>568.08197021484</ele>
        <time>2009-06-25T04:53:04Z</time>
      </trkpt>
      <trkpt lat="43.16035" lon="5.99901">
        <ele>570.49609375</ele>
        <time>2009-06-25T04:53:11Z</time>
      </trkpt>
      <trkpt lat="43.16018" lon="5.99917">
        <ele>570.81555175781</ele>
        <time>2009-06-25T04:53:19Z</time>
      </trkpt>
      <trkpt lat="43.16" lon="5.99933">
        <ele>567.49237060547</ele>
        <time>2009-06-25T04:53:27Z</time>
      </trkpt>
      <trkpt lat="43.15982" lon="5.99945">
        <ele>563.47802734375</ele>
        <time>2009-06-25T04:53:35Z</time>
      </trkpt>
      <trkpt lat="43.15979" lon="5.99953">
        <ele>562.708984375</ele>
        <time>2009-06-25T04:53:37Z</time>
      </trkpt>
      <trkpt lat="43.15985" lon="5.9997">
        <ele>564.15093994141</ele>
        <time>2009-06-25T04:53:42Z</time>
      </trkpt>
      <trkpt lat="43.15993" lon="5.99968">
        <ele>566.16967773438</ele>
        <time>2009-06-25T04:53:45Z</time>
      </trkpt>
      <trkpt lat="43.16023" lon="5.99952">
        <ele>573.36199951172</ele>
        <time>2009-06-25T04:53:56Z</time>
      </trkpt>
      <trkpt lat="43.16045" lon="5.9995">
        <ele>574.52484130859</ele>
        <time>2009-06-25T04:54:04Z</time>
      </trkpt>
      <trkpt lat="43.16061" lon="5.9995">
        <ele>574.83575439453</ele>
        <time>2009-06-25T04:54:10Z</time>
      </trkpt>
      <trkpt lat="43.16079" lon="5.99952">
        <ele>575.71636962891</ele>
        <time>2009-06-25T04:54:17Z</time>
      </trkpt>
      <trkpt lat="43.161" lon="5.99953">
        <ele>576.74084472656</ele>
        <time>2009-06-25T04:54:25Z</time>
      </trkpt>
      <trkpt lat="43.16121" lon="5.99955">
        <ele>578.00067138672</ele>
        <time>2009-06-25T04:54:33Z</time>
      </trkpt>
      <trkpt lat="43.16146" lon="5.99957">
        <ele>579.74401855469</ele>
        <time>2009-06-25T04:54:42Z</time>
      </trkpt>
      <trkpt lat="43.16163" lon="5.99957">
        <ele>580.904296875</ele>
        <time>2009-06-25T04:54:47Z</time>
      </trkpt>
      <trkpt lat="43.16179" lon="5.99956">
        <ele>581.96704101562</ele>
        <time>2009-06-25T04:54:52Z</time>
      </trkpt>
      <trkpt lat="43.16201" lon="5.99955">
        <ele>583.2158203125</ele>
        <time>2009-06-25T04:54:59Z</time>
      </trkpt>
      <trkpt lat="43.16227" lon="5.99951">
        <ele>582.86877441406</ele>
        <time>2009-06-25T04:55:07Z</time>
      </trkpt>
      <trkpt lat="43.16243" lon="5.99951">
        <ele>584.29638671875</ele>
        <time>2009-06-25T04:55:12Z</time>
      </trkpt>
      <trkpt lat="43.16248" lon="5.99964">
        <ele>590.95617675781</ele>
        <time>2009-06-25T04:55:16Z</time>
      </trkpt>
      <trkpt lat="43.16249" lon="5.99995">
        <ele>599.00701904297</ele>
        <time>2009-06-25T04:55:23Z</time>
      </trkpt>
      <trkpt lat="43.16257" lon="6.00021">
        <ele>599.09552001953</ele>
        <time>2009-06-25T04:55:29Z</time>
      </trkpt>
      <trkpt lat="43.16257" lon="6.00026">
        <ele>599.31286621094</ele>
        <time>2009-06-25T04:55:30Z</time>
      </trkpt>
      <trkpt lat="43.16253" lon="6.00037">
        <ele>599.78509521484</ele>
        <time>2009-06-25T04:55:34Z</time>
      </trkpt>
      <trkpt lat="43.16249" lon="6.00038">
        <ele>599.78015136719</ele>
        <time>2009-06-25T04:55:35Z</time>
      </trkpt>
      <trkpt lat="43.16209" lon="6.00042">
        <ele>598.58947753906</ele>
        <time>2009-06-25T04:55:46Z</time>
      </trkpt>
      <trkpt lat="43.16193" lon="6.00052">
        <ele>598.93792724609</ele>
        <time>2009-06-25T04:55:50Z</time>
      </trkpt>
      <trkpt lat="43.16167" lon="6.00089">
        <ele>602.28625488281</ele>
        <time>2009-06-25T04:55:58Z</time>
      </trkpt>
      <trkpt lat="43.16148" lon="6.00119">
        <ele>602.64343261719</ele>
        <time>2009-06-25T04:56:04Z</time>
      </trkpt>
      <trkpt lat="43.16121" lon="6.00155">
        <ele>603.20245361328</ele>
        <time>2009-06-25T04:56:12Z</time>
      </trkpt>
      <trkpt lat="43.16093" lon="6.00189">
        <ele>602.84649658203</ele>
        <time>2009-06-25T04:56:20Z</time>
      </trkpt>
      <trkpt lat="43.16082" lon="6.00207">
        <ele>602.09936523438</ele>
        <time>2009-06-25T04:56:24Z</time>
      </trkpt>
      <trkpt lat="43.16076" lon="6.00234">
        <ele>599.89794921875</ele>
        <time>2009-06-25T04:56:29Z</time>
      </trkpt>
      <trkpt lat="43.1608" lon="6.00251">
        <ele>601.81494140625</ele>
        <time>2009-06-25T04:56:32Z</time>
      </trkpt>
      <trkpt lat="43.16094" lon="6.00279">
        <ele>604.36083984375</ele>
        <time>2009-06-25T04:56:39Z</time>
      </trkpt>
      <trkpt lat="43.16104" lon="6.00298">
        <ele>605.75823974609</ele>
        <time>2009-06-25T04:56:46Z</time>
      </trkpt>
      <trkpt lat="43.16119" lon="6.0032">
        <ele>607.86242675781</ele>
        <time>2009-06-25T04:56:55Z</time>
      </trkpt>
      <trkpt lat="43.16134" lon="6.00339">
        <ele>610.16741943359</ele>
        <time>2009-06-25T04:57:03Z</time>
      </trkpt>
      <trkpt lat="43.16145" lon="6.00358">
        <ele>612.1796875</ele>
        <time>2009-06-25T04:57:09Z</time>
      </trkpt>
      <trkpt lat="43.1616" lon="6.00388">
        <ele>615.55718994141</ele>
        <time>2009-06-25T04:57:18Z</time>
      </trkpt>
      <trkpt lat="43.16173" lon="6.00418">
        <ele>617.66052246094</ele>
        <time>2009-06-25T04:57:27Z</time>
      </trkpt>
      <trkpt lat="43.16185" lon="6.00449">
        <ele>621.49285888672</ele>
        <time>2009-06-25T04:57:36Z</time>
      </trkpt>
      <trkpt lat="43.16197" lon="6.00475">
        <ele>624.81103515625</ele>
        <time>2009-06-25T04:57:44Z</time>
      </trkpt>
      <trkpt lat="43.16212" lon="6.00492">
        <ele>627.01934814453</ele>
        <time>2009-06-25T04:57:51Z</time>
      </trkpt>
      <trkpt lat="43.16225" lon="6.00496">
        <ele>627.23101806641</ele>
        <time>2009-06-25T04:57:56Z</time>
      </trkpt>
      <trkpt lat="43.16248" lon="6.00511">
        <ele>628.78588867188</ele>
        <time>2009-06-25T04:58:04Z</time>
      </trkpt>
      <trkpt lat="43.16261" lon="6.00535">
        <ele>630.95581054688</ele>
        <time>2009-06-25T04:58:11Z</time>
      </trkpt>
      <trkpt lat="43.16264" lon="6.00566">
        <ele>635.48223876953</ele>
        <time>2009-06-25T04:58:18Z</time>
      </trkpt>
      <trkpt lat="43.16264" lon="6.0059">
        <ele>639.13653564453</ele>
        <time>2009-06-25T04:58:24Z</time>
      </trkpt>
      <trkpt lat="43.16263" lon="6.00614">
        <ele>642.35284423828</ele>
        <time>2009-06-25T04:58:31Z</time>
      </trkpt>
      <trkpt lat="43.16258" lon="6.00632">
        <ele>645.29229736328</ele>
        <time>2009-06-25T04:58:37Z</time>
      </trkpt>
      <trkpt lat="43.16253" lon="6.00649">
        <ele>648.28204345703</ele>
        <time>2009-06-25T04:58:43Z</time>
      </trkpt>
      <trkpt lat="43.16245" lon="6.0068">
        <ele>652.60162353516</ele>
        <time>2009-06-25T04:58:51Z</time>
      </trkpt>
      <trkpt lat="43.1624" lon="6.00701">
        <ele>655.15155029297</ele>
        <time>2009-06-25T04:58:58Z</time>
      </trkpt>
      <trkpt lat="43.16228" lon="6.00734">
        <ele>660.22100830078</ele>
        <time>2009-06-25T04:59:08Z</time>
      </trkpt>
      <trkpt lat="43.16219" lon="6.00749">
        <ele>663.63189697266</ele>
        <time>2009-06-25T04:59:14Z</time>
      </trkpt>
      <trkpt lat="43.16214" lon="6.00756">
        <ele>664.96453857422</ele>
        <time>2009-06-25T04:59:17Z</time>
      </trkpt>
      <trkpt lat="43.16208" lon="6.00767">
        <ele>666.89172363281</ele>
        <time>2009-06-25T04:59:21Z</time>
      </trkpt>
      <trkpt lat="43.16203" lon="6.00792">
        <ele>669.19427490234</ele>
        <time>2009-06-25T04:59:28Z</time>
      </trkpt>
      <trkpt lat="43.16206" lon="6.00806">
        <ele>669.18737792969</ele>
        <time>2009-06-25T04:59:32Z</time>
      </trkpt>
      <trkpt lat="43.16207" lon="6.00812">
        <ele>669.34301757812</ele>
        <time>2009-06-25T04:59:34Z</time>
      </trkpt>
      <trkpt lat="43.16199" lon="6.00814">
        <ele>671.06878662109</ele>
        <time>2009-06-25T04:59:38Z</time>
      </trkpt>
      <trkpt lat="43.16192" lon="6.00804">
        <ele>672.15142822266</ele>
        <time>2009-06-25T04:59:42Z</time>
      </trkpt>
      <trkpt lat="43.16185" lon="6.00781">
        <ele>672.54736328125</ele>
        <time>2009-06-25T04:59:50Z</time>
      </trkpt>
      <trkpt lat="43.16184" lon="6.00763">
        <ele>671.93170166016</ele>
        <time>2009-06-25T04:59:56Z</time>
      </trkpt>
      <trkpt lat="43.16182" lon="6.00739">
        <ele>670.09588623047</ele>
        <time>2009-06-25T05:00:03Z</time>
      </trkpt>
      <trkpt lat="43.16181" lon="6.00707">
        <ele>665.31726074219</ele>
        <time>2009-06-25T05:00:12Z</time>
      </trkpt>
      <trkpt lat="43.16175" lon="6.00678">
        <ele>661.7587890625</ele>
        <time>2009-06-25T05:00:20Z</time>
      </trkpt>
      <trkpt lat="43.16167" lon="6.00651">
        <ele>657.88928222656</ele>
        <time>2009-06-25T05:00:28Z</time>
      </trkpt>
      <trkpt lat="43.16154" lon="6.00628">
        <ele>653.10968017578</ele>
        <time>2009-06-25T05:00:36Z</time>
      </trkpt>
      <trkpt lat="43.16152" lon="6.00626">
        <ele>652.54937744141</ele>
        <time>2009-06-25T05:00:37Z</time>
      </trkpt>
      <trkpt lat="43.1615" lon="6.00622">
        <ele>651.44134521484</ele>
        <time>2009-06-25T05:00:42Z</time>
      </trkpt>
      <trkpt lat="43.16149" lon="6.00623">
        <ele>651.73193359375</ele>
        <time>2009-06-25T05:01:03Z</time>
      </trkpt>
      <trkpt lat="43.1615" lon="6.00624">
        <ele>651.88562011719</ele>
        <time>2009-06-25T05:01:04Z</time>
      </trkpt>
      <trkpt lat="43.16152" lon="6.00626">
        <ele>652.42730712891</ele>
        <time>2009-06-25T05:01:06Z</time>
      </trkpt>
      <trkpt lat="43.16161" lon="6.00641">
        <ele>655.88439941406</ele>
        <time>2009-06-25T05:01:11Z</time>
      </trkpt>
      <trkpt lat="43.16167" lon="6.0066">
        <ele>659.68835449219</ele>
        <time>2009-06-25T05:01:14Z</time>
      </trkpt>
      <trkpt lat="43.16171" lon="6.00676">
        <ele>661.94860839844</ele>
        <time>2009-06-25T05:01:16Z</time>
      </trkpt>
      <trkpt lat="43.16175" lon="6.00724">
        <ele>669.08197021484</ele>
        <time>2009-06-25T05:01:21Z</time>
      </trkpt>
      <trkpt lat="43.16174" lon="6.00777">
        <ele>674.63934326172</ele>
        <time>2009-06-25T05:01:26Z</time>
      </trkpt>
      <trkpt lat="43.16185" lon="6.00818">
        <ele>674.20446777344</ele>
        <time>2009-06-25T05:01:31Z</time>
      </trkpt>
      <trkpt lat="43.16195" lon="6.00822">
        <ele>672.24981689453</ele>
        <time>2009-06-25T05:01:34Z</time>
      </trkpt>
      <trkpt lat="43.16195" lon="6.00806">
        <ele>671.68908691406</ele>
        <time>2009-06-25T05:01:37Z</time>
      </trkpt>
      <trkpt lat="43.16193" lon="6.00786">
        <ele>670.94519042969</ele>
        <time>2009-06-25T05:01:40Z</time>
      </trkpt>
      <trkpt lat="43.16208" lon="6.00763">
        <ele>666.69946289062</ele>
        <time>2009-06-25T05:01:43Z</time>
      </trkpt>
      <trkpt lat="43.16224" lon="6.00739">
        <ele>661.60089111328</ele>
        <time>2009-06-25T05:01:46Z</time>
      </trkpt>
      <trkpt lat="43.16249" lon="6.00676">
        <ele>651.82147216797</ele>
        <time>2009-06-25T05:01:52Z</time>
      </trkpt>
      <trkpt lat="43.16259" lon="6.00653">
        <ele>648.09320068359</ele>
        <time>2009-06-25T05:01:54Z</time>
      </trkpt>
      <trkpt lat="43.16271" lon="6.00606">
        <ele>640.20654296875</ele>
        <time>2009-06-25T05:01:58Z</time>
      </trkpt>
      <trkpt lat="43.16272" lon="6.00568">
        <ele>634.62744140625</ele>
        <time>2009-06-25T05:02:01Z</time>
      </trkpt>
      <trkpt lat="43.16261" lon="6.00527">
        <ele>629.70458984375</ele>
        <time>2009-06-25T05:02:05Z</time>
      </trkpt>
      <trkpt lat="43.16238" lon="6.00512">
        <ele>629.3642578125</ele>
        <time>2009-06-25T05:02:08Z</time>
      </trkpt>
      <trkpt lat="43.16205" lon="6.00491">
        <ele>627.06872558594</ele>
        <time>2009-06-25T05:02:12Z</time>
      </trkpt>
      <trkpt lat="43.16191" lon="6.00458">
        <ele>622.45184326172</ele>
        <time>2009-06-25T05:02:15Z</time>
      </trkpt>
      <trkpt lat="43.16167" lon="6.00394">
        <ele>616.8623046875</ele>
        <time>2009-06-25T05:02:20Z</time>
      </trkpt>
      <trkpt lat="43.16133" lon="6.00336">
        <ele>610.01629638672</ele>
        <time>2009-06-25T05:02:25Z</time>
      </trkpt>
      <trkpt lat="43.16081" lon="6.00257">
        <ele>602.19439697266</ele>
        <time>2009-06-25T05:02:32Z</time>
      </trkpt>
      <trkpt lat="43.16077" lon="6.00215">
        <ele>599.88214111328</ele>
        <time>2009-06-25T05:02:36Z</time>
      </trkpt>
      <trkpt lat="43.16087" lon="6.002">
        <ele>602.64727783203</ele>
        <time>2009-06-25T05:02:38Z</time>
      </trkpt>
      <trkpt lat="43.16128" lon="6.00146">
        <ele>603.06842041016</ele>
        <time>2009-06-25T05:02:45Z</time>
      </trkpt>
      <trkpt lat="43.16167" lon="6.00089">
        <ele>602.25006103516</ele>
        <time>2009-06-25T05:02:52Z</time>
      </trkpt>
      <trkpt lat="43.16172" lon="6.0008">
        <ele>601.59497070312</ele>
        <time>2009-06-25T05:02:53Z</time>
      </trkpt>
      <trkpt lat="43.16199" lon="6.00057">
        <ele>599.56341552734</ele>
        <time>2009-06-25T05:02:57Z</time>
      </trkpt>
      <trkpt lat="43.16208" lon="6.00055">
        <ele>599.59796142578</ele>
        <time>2009-06-25T05:02:58Z</time>
      </trkpt>
      <trkpt lat="43.16246" lon="6.0005">
        <ele>600.28430175781</ele>
        <time>2009-06-25T05:03:03Z</time>
      </trkpt>
      <trkpt lat="43.1626" lon="6.00033">
        <ele>599.61846923828</ele>
        <time>2009-06-25T05:03:06Z</time>
      </trkpt>
      <trkpt lat="43.16256" lon="6.00015">
        <ele>598.81604003906</ele>
        <time>2009-06-25T05:03:08Z</time>
      </trkpt>
      <trkpt lat="43.16249" lon="5.99978">
        <ele>595.90338134766</ele>
        <time>2009-06-25T05:03:12Z</time>
      </trkpt>
      <trkpt lat="43.16237" lon="5.99946">
        <ele>581.89196777344</ele>
        <time>2009-06-25T05:03:16Z</time>
      </trkpt>
      <trkpt lat="43.16224" lon="5.99943">
        <ele>579.91687011719</ele>
        <time>2009-06-25T05:03:18Z</time>
      </trkpt>
      <trkpt lat="43.16203" lon="5.99946">
        <ele>580.54638671875</ele>
        <time>2009-06-25T05:03:21Z</time>
      </trkpt>
      <trkpt lat="43.16173" lon="5.9995">
        <ele>579.81781005859</ele>
        <time>2009-06-25T05:03:25Z</time>
      </trkpt>
      <trkpt lat="43.16129" lon="5.99945">
        <ele>576.69958496094</ele>
        <time>2009-06-25T05:03:30Z</time>
      </trkpt>
      <trkpt lat="43.16051" lon="5.99943">
        <ele>573.88427734375</ele>
        <time>2009-06-25T05:03:38Z</time>
      </trkpt>
      <trkpt lat="43.16042" lon="5.99944">
        <ele>574.00463867188</ele>
        <time>2009-06-25T05:03:39Z</time>
      </trkpt>
      <trkpt lat="43.16008" lon="5.99959">
        <ele>569.93365478516</ele>
        <time>2009-06-25T05:03:43Z</time>
      </trkpt>
      <trkpt lat="43.15982" lon="5.99965">
        <ele>563.47802734375</ele>
        <time>2009-06-25T05:03:48Z</time>
      </trkpt>
      <trkpt lat="43.15981" lon="5.99953">
        <ele>563.09350585938</ele>
        <time>2009-06-25T05:03:51Z</time>
      </trkpt>
      <trkpt lat="43.1599" lon="5.99948">
        <ele>565.59289550781</ele>
        <time>2009-06-25T05:03:54Z</time>
      </trkpt>
      <trkpt lat="43.16012" lon="5.9994">
        <ele>570.37438964844</ele>
        <time>2009-06-25T05:03:58Z</time>
      </trkpt>
      <trkpt lat="43.16018" lon="5.99935">
        <ele>571.43176269531</ele>
        <time>2009-06-25T05:03:59Z</time>
      </trkpt>
      <trkpt lat="43.16037" lon="5.99917">
        <ele>572.65905761719</ele>
        <time>2009-06-25T05:04:02Z</time>
      </trkpt>
      <trkpt lat="43.16089" lon="5.99886">
        <ele>568.99035644531</ele>
        <time>2009-06-25T05:04:08Z</time>
      </trkpt>
      <trkpt lat="43.16106" lon="5.99875">
        <ele>568.83245849609</ele>
        <time>2009-06-25T05:04:10Z</time>
      </trkpt>
      <trkpt lat="43.1613" lon="5.99841">
        <ele>565.79650878906</ele>
        <time>2009-06-25T05:04:14Z</time>
      </trkpt>
      <trkpt lat="43.16138" lon="5.99816">
        <ele>563.10955810547</ele>
        <time>2009-06-25T05:04:16Z</time>
      </trkpt>
      <trkpt lat="43.16157" lon="5.99753">
        <ele>555.92816162109</ele>
        <time>2009-06-25T05:04:21Z</time>
      </trkpt>
      <trkpt lat="43.16187" lon="5.99722">
        <ele>552.11578369141</ele>
        <time>2009-06-25T05:04:25Z</time>
      </trkpt>
      <trkpt lat="43.16196" lon="5.99718">
        <ele>552.71832275391</ele>
        <time>2009-06-25T05:04:26Z</time>
      </trkpt>
      <trkpt lat="43.16248" lon="5.99711">
        <ele>558.53137207031</ele>
        <time>2009-06-25T05:04:31Z</time>
      </trkpt>
      <trkpt lat="43.16263" lon="5.99713">
        <ele>562.67633056641</ele>
        <time>2009-06-25T05:04:33Z</time>
      </trkpt>
      <trkpt lat="43.16275" lon="5.99698">
        <ele>563.86572265625</ele>
        <time>2009-06-25T05:04:37Z</time>
      </trkpt>
      <trkpt lat="43.16276" lon="5.99681">
        <ele>561.65216064453</ele>
        <time>2009-06-25T05:04:39Z</time>
      </trkpt>
      <trkpt lat="43.16275" lon="5.99652">
        <ele>557.91955566406</ele>
        <time>2009-06-25T05:04:42Z</time>
      </trkpt>
      <trkpt lat="43.16282" lon="5.99606">
        <ele>555.09405517578</ele>
        <time>2009-06-25T05:04:46Z</time>
      </trkpt>
      <trkpt lat="43.16291" lon="5.99567">
        <ele>552.18615722656</ele>
        <time>2009-06-25T05:04:49Z</time>
      </trkpt>
      <trkpt lat="43.16291" lon="5.99509">
        <ele>546.953125</ele>
        <time>2009-06-25T05:04:53Z</time>
      </trkpt>
      <trkpt lat="43.16289" lon="5.9945">
        <ele>541.47521972656</ele>
        <time>2009-06-25T05:04:57Z</time>
      </trkpt>
      <trkpt lat="43.16302" lon="5.99397">
        <ele>537.20831298828</ele>
        <time>2009-06-25T05:05:01Z</time>
      </trkpt>
      <trkpt lat="43.16318" lon="5.99332">
        <ele>530.466796875</ele>
        <time>2009-06-25T05:05:06Z</time>
      </trkpt>
      <trkpt lat="43.16332" lon="5.99278">
        <ele>527.73327636719</ele>
        <time>2009-06-25T05:05:10Z</time>
      </trkpt>
      <trkpt lat="43.16334" lon="5.99241">
        <ele>524.43548583984</ele>
        <time>2009-06-25T05:05:13Z</time>
      </trkpt>
      <trkpt lat="43.16331" lon="5.99229">
        <ele>523.12866210938</ele>
        <time>2009-06-25T05:05:14Z</time>
      </trkpt>
      <trkpt lat="43.16327" lon="5.99204">
        <ele>520.23052978516</ele>
        <time>2009-06-25T05:05:16Z</time>
      </trkpt>
      <trkpt lat="43.16335" lon="5.99163">
        <ele>518.21374511719</ele>
        <time>2009-06-25T05:05:20Z</time>
      </trkpt>
      <trkpt lat="43.16342" lon="5.99157">
        <ele>519.05133056641</ele>
        <time>2009-06-25T05:05:21Z</time>
      </trkpt>
      <trkpt lat="43.16357" lon="5.99144">
        <ele>519.98162841797</ele>
        <time>2009-06-25T05:05:23Z</time>
      </trkpt>
      <trkpt lat="43.16369" lon="5.99118">
        <ele>519.30816650391</ele>
        <time>2009-06-25T05:05:26Z</time>
      </trkpt>
      <trkpt lat="43.16369" lon="5.99107">
        <ele>518.89031982422</ele>
        <time>2009-06-25T05:05:27Z</time>
      </trkpt>
      <trkpt lat="43.16347" lon="5.99054">
        <ele>515.94720458984</ele>
        <time>2009-06-25T05:05:32Z</time>
      </trkpt>
      <trkpt lat="43.1633" lon="5.99011">
        <ele>514.34222412109</ele>
        <time>2009-06-25T05:05:36Z</time>
      </trkpt>
      <trkpt lat="43.16324" lon="5.98988">
        <ele>514.77136230469</ele>
        <time>2009-06-25T05:05:38Z</time>
      </trkpt>
      <trkpt lat="43.16304" lon="5.98952">
        <ele>512.38989257812</ele>
        <time>2009-06-25T05:05:42Z</time>
      </trkpt>
      <trkpt lat="43.16298" lon="5.98945">
        <ele>511.18524169922</ele>
        <time>2009-06-25T05:05:43Z</time>
      </trkpt>
      <trkpt lat="43.16277" lon="5.98901">
        <ele>507.30850219727</ele>
        <time>2009-06-25T05:05:48Z</time>
      </trkpt>
      <trkpt lat="43.16253" lon="5.98837">
        <ele>502.4895324707</ele>
        <time>2009-06-25T05:05:54Z</time>
      </trkpt>
      <trkpt lat="43.16231" lon="5.98776">
        <ele>501</ele>
        <time>2009-06-25T05:05:59Z</time>
      </trkpt>
      <trkpt lat="43.16204" lon="5.98713">
        <ele>500</ele>
        <time>2009-06-25T05:06:04Z</time>
      </trkpt>
      <trkpt lat="43.16196" lon="5.98664">
        <ele>499</ele>
        <time>2009-06-25T05:06:08Z</time>
      </trkpt>
      <trkpt lat="43.16195" lon="5.98596">
        <ele>498.47146606445</ele>
        <time>2009-06-25T05:06:13Z</time>
      </trkpt>
      <trkpt lat="43.16189" lon="5.98491">
        <ele>498.51779174805</ele>
        <time>2009-06-25T05:06:20Z</time>
      </trkpt>
      <trkpt lat="43.16186" lon="5.98417">
        <ele>497.19387817383</ele>
        <time>2009-06-25T05:06:25Z</time>
      </trkpt>
      <trkpt lat="43.16196" lon="5.98363">
        <ele>500</ele>
        <time>2009-06-25T05:06:29Z</time>
      </trkpt>
      <trkpt lat="43.16211" lon="5.98295">
        <ele>498.14544677734</ele>
        <time>2009-06-25T05:06:34Z</time>
      </trkpt>
      <trkpt lat="43.16213" lon="5.98238">
        <ele>491.38598632812</ele>
        <time>2009-06-25T05:06:38Z</time>
      </trkpt>
      <trkpt lat="43.16209" lon="5.98201">
        <ele>481.04672241211</ele>
        <time>2009-06-25T05:06:41Z</time>
      </trkpt>
      <trkpt lat="43.16214" lon="5.9815">
        <ele>471.94631958008</ele>
        <time>2009-06-25T05:06:45Z</time>
      </trkpt>
      <trkpt lat="43.16224" lon="5.98112">
        <ele>466.54345703125</ele>
        <time>2009-06-25T05:06:48Z</time>
      </trkpt>
      <trkpt lat="43.16248" lon="5.98071">
        <ele>462.81930541992</ele>
        <time>2009-06-25T05:06:52Z</time>
      </trkpt>
      <trkpt lat="43.16253" lon="5.98064">
        <ele>462.48010253906</ele>
        <time>2009-06-25T05:06:53Z</time>
      </trkpt>
      <trkpt lat="43.16259" lon="5.98037">
        <ele>458.48532104492</ele>
        <time>2009-06-25T05:06:57Z</time>
      </trkpt>
      <trkpt lat="43.16251" lon="5.98034">
        <ele>457.18218994141</ele>
        <time>2009-06-25T05:06:59Z</time>
      </trkpt>
      <trkpt lat="43.16241" lon="5.98041">
        <ele>456.87802124023</ele>
        <time>2009-06-25T05:07:01Z</time>
      </trkpt>
      <trkpt lat="43.16234" lon="5.98054">
        <ele>457.78784179688</ele>
        <time>2009-06-25T05:07:03Z</time>
      </trkpt>
      <trkpt lat="43.16214" lon="5.98092">
        <ele>460.50213623047</ele>
        <time>2009-06-25T05:07:09Z</time>
      </trkpt>
      <trkpt lat="43.16209" lon="5.98098">
        <ele>460.98751831055</ele>
        <time>2009-06-25T05:07:10Z</time>
      </trkpt>
      <trkpt lat="43.16193" lon="5.98113">
        <ele>460.9826965332</ele>
        <time>2009-06-25T05:07:13Z</time>
      </trkpt>
      <trkpt lat="43.16175" lon="5.98151">
        <ele>461.47564697266</ele>
        <time>2009-06-25T05:07:17Z</time>
      </trkpt>
      <trkpt lat="43.16156" lon="5.98203">
        <ele>460.1696472168</ele>
        <time>2009-06-25T05:07:21Z</time>
      </trkpt>
      <trkpt lat="43.16118" lon="5.98289">
        <ele>456.46377563477</ele>
        <time>2009-06-25T05:07:27Z</time>
      </trkpt>
      <trkpt lat="43.16062" lon="5.98411">
        <ele>437.79089355469</ele>
        <time>2009-06-25T05:07:35Z</time>
      </trkpt>
      <trkpt lat="43.16041" lon="5.98469">
        <ele>426.98974609375</ele>
        <time>2009-06-25T05:07:39Z</time>
      </trkpt>
      <trkpt lat="43.16022" lon="5.98536">
        <ele>420.89889526367</ele>
        <time>2009-06-25T05:07:44Z</time>
      </trkpt>
      <trkpt lat="43.16018" lon="5.98559">
        <ele>420.06072998047</ele>
        <time>2009-06-25T05:07:46Z</time>
      </trkpt>
      <trkpt lat="43.1601" lon="5.98573">
        <ele>414.87109375</ele>
        <time>2009-06-25T05:07:49Z</time>
      </trkpt>
      <trkpt lat="43.16003" lon="5.98562">
        <ele>407.06741333008</ele>
        <time>2009-06-25T05:07:52Z</time>
      </trkpt>
      <trkpt lat="43.16006" lon="5.98547">
        <ele>408.19479370117</ele>
        <time>2009-06-25T05:07:54Z</time>
      </trkpt>
      <trkpt lat="43.16018" lon="5.98502">
        <ele>412.85446166992</ele>
        <time>2009-06-25T05:07:59Z</time>
      </trkpt>
      <trkpt lat="43.16013" lon="5.9847">
        <ele>407.16806030273</ele>
        <time>2009-06-25T05:08:02Z</time>
      </trkpt>
      <trkpt lat="43.15997" lon="5.98409">
        <ele>398.63803100586</ele>
        <time>2009-06-25T05:08:07Z</time>
      </trkpt>
      <trkpt lat="43.15995" lon="5.98354">
        <ele>398.08639526367</ele>
        <time>2009-06-25T05:08:11Z</time>
      </trkpt>
      <trkpt lat="43.16001" lon="5.98287">
        <ele>398.67810058594</ele>
        <time>2009-06-25T05:08:16Z</time>
      </trkpt>
      <trkpt lat="43.15992" lon="5.9823">
        <ele>394.72674560547</ele>
        <time>2009-06-25T05:08:20Z</time>
      </trkpt>
      <trkpt lat="43.15988" lon="5.98215">
        <ele>393.03176879883</ele>
        <time>2009-06-25T05:08:21Z</time>
      </trkpt>
      <trkpt lat="43.15979" lon="5.98137">
        <ele>386.85070800781</ele>
        <time>2009-06-25T05:08:26Z</time>
      </trkpt>
      <trkpt lat="43.15978" lon="5.98124">
        <ele>385.60290527344</ele>
        <time>2009-06-25T05:08:27Z</time>
      </trkpt>
      <trkpt lat="43.15985" lon="5.98071">
        <ele>382.57934570312</ele>
        <time>2009-06-25T05:08:31Z</time>
      </trkpt>
      <trkpt lat="43.1599" lon="5.98058">
        <ele>382.07122802734</ele>
        <time>2009-06-25T05:08:32Z</time>
      </trkpt>
      <trkpt lat="43.16023" lon="5.97978">
        <ele>383.43258666992</ele>
        <time>2009-06-25T05:08:38Z</time>
      </trkpt>
      <trkpt lat="43.16033" lon="5.9795">
        <ele>382.82861328125</ele>
        <time>2009-06-25T05:08:40Z</time>
      </trkpt>
      <trkpt lat="43.16041" lon="5.97892">
        <ele>377.74578857422</ele>
        <time>2009-06-25T05:08:44Z</time>
      </trkpt>
      <trkpt lat="43.16035" lon="5.97835">
        <ele>368.9176940918</ele>
        <time>2009-06-25T05:08:48Z</time>
      </trkpt>
      <trkpt lat="43.16034" lon="5.97778">
        <ele>363.45901489258</ele>
        <time>2009-06-25T05:08:52Z</time>
      </trkpt>
      <trkpt lat="43.16038" lon="5.97765">
        <ele>363.10974121094</ele>
        <time>2009-06-25T05:08:53Z</time>
      </trkpt>
      <trkpt lat="43.16067" lon="5.97674">
        <ele>355.80429077148</ele>
        <time>2009-06-25T05:08:59Z</time>
      </trkpt>
      <trkpt lat="43.1609" lon="5.97601">
        <ele>347.83599853516</ele>
        <time>2009-06-25T05:09:04Z</time>
      </trkpt>
      <trkpt lat="43.16094" lon="5.97592">
        <ele>347.23593139648</ele>
        <time>2009-06-25T05:09:05Z</time>
      </trkpt>
      <trkpt lat="43.16091" lon="5.97573">
        <ele>343.75247192383</ele>
        <time>2009-06-25T05:09:08Z</time>
      </trkpt>
      <trkpt lat="43.16081" lon="5.97576">
        <ele>343.24703979492</ele>
        <time>2009-06-25T05:09:10Z</time>
      </trkpt>
      <trkpt lat="43.16075" lon="5.97592">
        <ele>344.68713378906</ele>
        <time>2009-06-25T05:09:12Z</time>
      </trkpt>
      <trkpt lat="43.16065" lon="5.97631">
        <ele>348.88983154297</ele>
        <time>2009-06-25T05:09:16Z</time>
      </trkpt>
      <trkpt lat="43.16042" lon="5.97661">
        <ele>350.3024597168</ele>
        <time>2009-06-25T05:09:20Z</time>
      </trkpt>
      <trkpt lat="43.16001" lon="5.97705">
        <ele>347.78201293945</ele>
        <time>2009-06-25T05:09:25Z</time>
      </trkpt>
      <trkpt lat="43.15962" lon="5.97754">
        <ele>348.12747192383</ele>
        <time>2009-06-25T05:09:30Z</time>
      </trkpt>
      <trkpt lat="43.15932" lon="5.97771">
        <ele>343.12121582031</ele>
        <time>2009-06-25T05:09:34Z</time>
      </trkpt>
      <trkpt lat="43.15905" lon="5.97758">
        <ele>336.41275024414</ele>
        <time>2009-06-25T05:09:37Z</time>
      </trkpt>
      <trkpt lat="43.15888" lon="5.97746">
        <ele>331.09191894531</ele>
        <time>2009-06-25T05:09:39Z</time>
      </trkpt>
      <trkpt lat="43.15855" lon="5.97741">
        <ele>325.16455078125</ele>
        <time>2009-06-25T05:09:43Z</time>
      </trkpt>
      <trkpt lat="43.15825" lon="5.97741">
        <ele>318.45471191406</ele>
        <time>2009-06-25T05:09:46Z</time>
      </trkpt>
      <trkpt lat="43.15801" lon="5.9776">
        <ele>314.34637451172</ele>
        <time>2009-06-25T05:09:49Z</time>
      </trkpt>
      <trkpt lat="43.15796" lon="5.97784">
        <ele>316.29992675781</ele>
        <time>2009-06-25T05:09:51Z</time>
      </trkpt>
      <trkpt lat="43.15779" lon="5.97834">
        <ele>317.64208984375</ele>
        <time>2009-06-25T05:09:55Z</time>
      </trkpt>
      <trkpt lat="43.15729" lon="5.97895">
        <ele>303.64010620117</ele>
        <time>2009-06-25T05:10:01Z</time>
      </trkpt>
      <trkpt lat="43.15722" lon="5.97902">
        <ele>299.64028930664</ele>
        <time>2009-06-25T05:10:02Z</time>
      </trkpt>
      <trkpt lat="43.15693" lon="5.97914">
        <ele>286.53518676758</ele>
        <time>2009-06-25T05:10:06Z</time>
      </trkpt>
      <trkpt lat="43.15675" lon="5.97931">
        <ele>282.39248657227</ele>
        <time>2009-06-25T05:10:09Z</time>
      </trkpt>
      <trkpt lat="43.15678" lon="5.9796">
        <ele>284.83044433594</ele>
        <time>2009-06-25T05:10:12Z</time>
      </trkpt>
      <trkpt lat="43.15675" lon="5.97962">
        <ele>284.10601806641</ele>
        <time>2009-06-25T05:10:14Z</time>
      </trkpt>
      <trkpt lat="43.15669" lon="5.97946">
        <ele>280.96459960938</ele>
        <time>2009-06-25T05:10:17Z</time>
      </trkpt>
      <trkpt lat="43.1566" lon="5.97899">
        <ele>277.62841796875</ele>
        <time>2009-06-25T05:10:22Z</time>
      </trkpt>
      <trkpt lat="43.15649" lon="5.97869">
        <ele>271.06790161133</ele>
        <time>2009-06-25T05:10:25Z</time>
      </trkpt>
      <trkpt lat="43.15653" lon="5.97838">
        <ele>269.61715698242</ele>
        <time>2009-06-25T05:10:29Z</time>
      </trkpt>
      <trkpt lat="43.1566" lon="5.97842">
        <ele>272.65972900391</ele>
        <time>2009-06-25T05:10:32Z</time>
      </trkpt>
      <trkpt lat="43.15681" lon="5.97857">
        <ele>279.84219360352</ele>
        <time>2009-06-25T05:10:36Z</time>
      </trkpt>
      <trkpt lat="43.15703" lon="5.97853">
        <ele>286.77258300781</ele>
        <time>2009-06-25T05:10:40Z</time>
      </trkpt>
      <trkpt lat="43.15713" lon="5.97833">
        <ele>289.72354125977</ele>
        <time>2009-06-25T05:10:43Z</time>
      </trkpt>
      <trkpt lat="43.15717" lon="5.97802">
        <ele>289.35330200195</ele>
        <time>2009-06-25T05:10:46Z</time>
      </trkpt>
      <trkpt lat="43.15714" lon="5.97778">
        <ele>285.48095703125</ele>
        <time>2009-06-25T05:10:48Z</time>
      </trkpt>
      <trkpt lat="43.15708" lon="5.97754">
        <ele>281.4130859375</ele>
        <time>2009-06-25T05:10:50Z</time>
      </trkpt>
      <trkpt lat="43.15704" lon="5.97699">
        <ele>272.30352783203</ele>
        <time>2009-06-25T05:10:54Z</time>
      </trkpt>
      <trkpt lat="43.1569" lon="5.97627">
        <ele>258.01846313477</ele>
        <time>2009-06-25T05:10:59Z</time>
      </trkpt>
      <trkpt lat="43.15671" lon="5.97533">
        <ele>245.84973144531</ele>
        <time>2009-06-25T05:11:06Z</time>
      </trkpt>
      <trkpt lat="43.15668" lon="5.97483">
        <ele>246.79797363281</ele>
        <time>2009-06-25T05:11:10Z</time>
      </trkpt>
      <trkpt lat="43.15664" lon="5.97441">
        <ele>246.57244873047</ele>
        <time>2009-06-25T05:11:14Z</time>
      </trkpt>
      <trkpt lat="43.15659" lon="5.97416">
        <ele>245.63101196289</ele>
        <time>2009-06-25T05:11:17Z</time>
      </trkpt>
      <trkpt lat="43.15645" lon="5.97374">
        <ele>244.07055664062</ele>
        <time>2009-06-25T05:11:22Z</time>
      </trkpt>
      <trkpt lat="43.15628" lon="5.97344">
        <ele>243.00093078613</ele>
        <time>2009-06-25T05:11:26Z</time>
      </trkpt>
      <trkpt lat="43.15618" lon="5.97335">
        <ele>242.49127197266</ele>
        <time>2009-06-25T05:11:28Z</time>
      </trkpt>
      <trkpt lat="43.156" lon="5.97304">
        <ele>242.60736083984</ele>
        <time>2009-06-25T05:11:32Z</time>
      </trkpt>
      <trkpt lat="43.15594" lon="5.97264">
        <ele>242.85603332519</ele>
        <time>2009-06-25T05:11:36Z</time>
      </trkpt>
      <trkpt lat="43.15593" lon="5.97159">
        <ele>245.33270263672</ele>
        <time>2009-06-25T05:11:46Z</time>
      </trkpt>
      <trkpt lat="43.15585" lon="5.97106">
        <ele>246.07177734375</ele>
        <time>2009-06-25T05:11:51Z</time>
      </trkpt>
      <trkpt lat="43.15565" lon="5.97024">
        <ele>245.86465454102</ele>
        <time>2009-06-25T05:11:59Z</time>
      </trkpt>
      <trkpt lat="43.15564" lon="5.97013">
        <ele>246.09982299805</ele>
        <time>2009-06-25T05:12:00Z</time>
      </trkpt>
      <trkpt lat="43.15568" lon="5.96975">
        <ele>246.90759277344</ele>
        <time>2009-06-25T05:12:04Z</time>
      </trkpt>
      <trkpt lat="43.15576" lon="5.96959">
        <ele>247.60470581055</ele>
        <time>2009-06-25T05:12:06Z</time>
      </trkpt>
      <trkpt lat="43.15613" lon="5.96898">
        <ele>246</ele>
        <time>2009-06-25T05:12:15Z</time>
      </trkpt>
      <trkpt lat="43.15633" lon="5.96861">
        <ele>245.21333312988</ele>
        <time>2009-06-25T05:12:20Z</time>
      </trkpt>
      <trkpt lat="43.15648" lon="5.96802">
        <ele>243.14978027344</ele>
        <time>2009-06-25T05:12:26Z</time>
      </trkpt>
      <trkpt lat="43.15664" lon="5.96746">
        <ele>239.94491577148</ele>
        <time>2009-06-25T05:12:32Z</time>
      </trkpt>
      <trkpt lat="43.15688" lon="5.96685">
        <ele>237.99926757812</ele>
        <time>2009-06-25T05:12:39Z</time>
      </trkpt>
      <trkpt lat="43.15707" lon="5.96626">
        <ele>236.51867675781</ele>
        <time>2009-06-25T05:12:46Z</time>
      </trkpt>
      <trkpt lat="43.15716" lon="5.96575">
        <ele>234.92793273926</ele>
        <time>2009-06-25T05:12:52Z</time>
      </trkpt>
      <trkpt lat="43.15718" lon="5.96528">
        <ele>233.82984924316</ele>
        <time>2009-06-25T05:12:57Z</time>
      </trkpt>
      <trkpt lat="43.15714" lon="5.96481">
        <ele>232.0085144043</ele>
        <time>2009-06-25T05:13:01Z</time>
      </trkpt>
      <trkpt lat="43.15714" lon="5.96396">
        <ele>229.25317382812</ele>
        <time>2009-06-25T05:13:07Z</time>
      </trkpt>
      <trkpt lat="43.15719" lon="5.96318">
        <ele>226.45510864258</ele>
        <time>2009-06-25T05:13:13Z</time>
      </trkpt>
      <trkpt lat="43.15732" lon="5.96238">
        <ele>224.22598266602</ele>
        <time>2009-06-25T05:13:20Z</time>
      </trkpt>
      <trkpt lat="43.1574" lon="5.96202">
        <ele>222.61236572266</ele>
        <time>2009-06-25T05:13:23Z</time>
      </trkpt>
      <trkpt lat="43.15738" lon="5.96151">
        <ele>220.86656188965</ele>
        <time>2009-06-25T05:13:27Z</time>
      </trkpt>
      <trkpt lat="43.15711" lon="5.96127">
        <ele>220.58349609375</ele>
        <time>2009-06-25T05:13:31Z</time>
      </trkpt>
      <trkpt lat="43.15691" lon="5.96137">
        <ele>221.05960083008</ele>
        <time>2009-06-25T05:13:33Z</time>
      </trkpt>
      <trkpt lat="43.15623" lon="5.9618">
        <ele>221.35333251953</ele>
        <time>2009-06-25T05:13:40Z</time>
      </trkpt>
      <trkpt lat="43.15596" lon="5.96197">
        <ele>218.51913452148</ele>
        <time>2009-06-25T05:13:43Z</time>
      </trkpt>
      <trkpt lat="43.15562" lon="5.96198">
        <ele>210.07792663574</ele>
        <time>2009-06-25T05:13:47Z</time>
      </trkpt>
      <trkpt lat="43.15557" lon="5.96175">
        <ele>207.60890197754</ele>
        <time>2009-06-25T05:13:50Z</time>
      </trkpt>
      <trkpt lat="43.15562" lon="5.96146">
        <ele>207.53671264648</ele>
        <time>2009-06-25T05:13:53Z</time>
      </trkpt>
      <trkpt lat="43.15563" lon="5.96135">
        <ele>207.12223815918</ele>
        <time>2009-06-25T05:13:54Z</time>
      </trkpt>
      <trkpt lat="43.1557" lon="5.96072">
        <ele>203.79553222656</ele>
        <time>2009-06-25T05:13:59Z</time>
      </trkpt>
      <trkpt lat="43.15596" lon="5.96023">
        <ele>200.68942260742</ele>
        <time>2009-06-25T05:14:03Z</time>
      </trkpt>
      <trkpt lat="43.15603" lon="5.96014">
        <ele>200.01651000977</ele>
        <time>2009-06-25T05:14:04Z</time>
      </trkpt>
      <trkpt lat="43.15652" lon="5.95961">
        <ele>196.89691162109</ele>
        <time>2009-06-25T05:14:10Z</time>
      </trkpt>
      <trkpt lat="43.15704" lon="5.95903">
        <ele>186.05851745606</ele>
        <time>2009-06-25T05:14:16Z</time>
      </trkpt>
      <trkpt lat="43.15733" lon="5.95856">
        <ele>179.76150512695</ele>
        <time>2009-06-25T05:14:20Z</time>
      </trkpt>
      <trkpt lat="43.15768" lon="5.95778">
        <ele>174.11250305176</ele>
        <time>2009-06-25T05:14:26Z</time>
      </trkpt>
      <trkpt lat="43.15784" lon="5.95721">
        <ele>169.56590270996</ele>
        <time>2009-06-25T05:14:30Z</time>
      </trkpt>
      <trkpt lat="43.15809" lon="5.95668">
        <ele>167.22668457031</ele>
        <time>2009-06-25T05:14:34Z</time>
      </trkpt>
      <trkpt lat="43.15818" lon="5.95658">
        <ele>166.27624511719</ele>
        <time>2009-06-25T05:14:35Z</time>
      </trkpt>
      <trkpt lat="43.15879" lon="5.95588">
        <ele>164.79312133789</ele>
        <time>2009-06-25T05:14:42Z</time>
      </trkpt>
      <trkpt lat="43.15908" lon="5.95539">
        <ele>161.64880371094</ele>
        <time>2009-06-25T05:14:46Z</time>
      </trkpt>
      <trkpt lat="43.15937" lon="5.95471">
        <ele>157.1623840332</ele>
        <time>2009-06-25T05:14:51Z</time>
      </trkpt>
      <trkpt lat="43.15964" lon="5.95417">
        <ele>155.5652923584</ele>
        <time>2009-06-25T05:14:55Z</time>
      </trkpt>
      <trkpt lat="43.16021" lon="5.95328">
        <ele>152.56369018555</ele>
        <time>2009-06-25T05:15:02Z</time>
      </trkpt>
      <trkpt lat="43.16077" lon="5.95241">
        <ele>145.95120239258</ele>
        <time>2009-06-25T05:15:09Z</time>
      </trkpt>
      <trkpt lat="43.16116" lon="5.95201">
        <ele>141.92488098144</ele>
        <time>2009-06-25T05:15:13Z</time>
      </trkpt>
      <trkpt lat="43.16178" lon="5.95151">
        <ele>136.37249755859</ele>
        <time>2009-06-25T05:15:19Z</time>
      </trkpt>
      <trkpt lat="43.16214" lon="5.95108">
        <ele>134.31011962891</ele>
        <time>2009-06-25T05:15:23Z</time>
      </trkpt>
      <trkpt lat="43.1624" lon="5.95038">
        <ele>129.09289550781</ele>
        <time>2009-06-25T05:15:28Z</time>
      </trkpt>
      <trkpt lat="43.16255" lon="5.94959">
        <ele>124.33282470703</ele>
        <time>2009-06-25T05:15:33Z</time>
      </trkpt>
      <trkpt lat="43.16256" lon="5.94894">
        <ele>122.96046447754</ele>
        <time>2009-06-25T05:15:37Z</time>
      </trkpt>
      <trkpt lat="43.16259" lon="5.94878">
        <ele>122.28583526611</ele>
        <time>2009-06-25T05:15:38Z</time>
      </trkpt>
      <trkpt lat="43.16282" lon="5.94738">
        <ele>117.85192871094</ele>
        <time>2009-06-25T05:15:47Z</time>
      </trkpt>
      <trkpt lat="43.16284" lon="5.94673">
        <ele>116.78326416016</ele>
        <time>2009-06-25T05:15:51Z</time>
      </trkpt>
      <trkpt lat="43.16283" lon="5.94643">
        <ele>116.64765930176</ele>
        <time>2009-06-25T05:15:53Z</time>
      </trkpt>
      <trkpt lat="43.16301" lon="5.94593">
        <ele>115.35803222656</ele>
        <time>2009-06-25T05:15:56Z</time>
      </trkpt>
      <trkpt lat="43.16308" lon="5.94579">
        <ele>114.07991027832</ele>
        <time>2009-06-25T05:15:57Z</time>
      </trkpt>
      <trkpt lat="43.16336" lon="5.94496">
        <ele>104.75999450684</ele>
        <time>2009-06-25T05:16:03Z</time>
      </trkpt>
      <trkpt lat="43.16364" lon="5.94364">
        <ele>99.103118896484</ele>
        <time>2009-06-25T05:16:12Z</time>
      </trkpt>
      <trkpt lat="43.16393" lon="5.94294">
        <ele>97.869384765625</ele>
        <time>2009-06-25T05:16:17Z</time>
      </trkpt>
      <trkpt lat="43.16412" lon="5.94222">
        <ele>95.35816192627</ele>
        <time>2009-06-25T05:16:22Z</time>
      </trkpt>
      <trkpt lat="43.16446" lon="5.94135">
        <ele>91.933387756348</ele>
        <time>2009-06-25T05:16:28Z</time>
      </trkpt>
      <trkpt lat="43.16466" lon="5.9406">
        <ele>89.909873962402</ele>
        <time>2009-06-25T05:16:33Z</time>
      </trkpt>
      <trkpt lat="43.16479" lon="5.94014">
        <ele>88.699066162109</ele>
        <time>2009-06-25T05:16:36Z</time>
      </trkpt>
      <trkpt lat="43.16505" lon="5.93963">
        <ele>88.930625915527</ele>
        <time>2009-06-25T05:16:40Z</time>
      </trkpt>
      <trkpt lat="43.16525" lon="5.93893">
        <ele>85.98348236084</ele>
        <time>2009-06-25T05:16:45Z</time>
      </trkpt>
      <trkpt lat="43.16536" lon="5.93814">
        <ele>80.820838928223</ele>
        <time>2009-06-25T05:16:51Z</time>
      </trkpt>
      <trkpt lat="43.16537" lon="5.93751">
        <ele>80</ele>
        <time>2009-06-25T05:16:56Z</time>
      </trkpt>
      <trkpt lat="43.16534" lon="5.93698">
        <ele>80</ele>
        <time>2009-06-25T05:17:00Z</time>
      </trkpt>
      <trkpt lat="43.16521" lon="5.93604">
        <ele>80</ele>
        <time>2009-06-25T05:17:07Z</time>
      </trkpt>
      <trkpt lat="43.1651" lon="5.93523">
        <ele>80</ele>
        <time>2009-06-25T05:17:13Z</time>
      </trkpt>
      <trkpt lat="43.16488" lon="5.93451">
        <ele>80</ele>
        <time>2009-06-25T05:17:19Z</time>
      </trkpt>
      <trkpt lat="43.16464" lon="5.93402">
        <ele>80</ele>
        <time>2009-06-25T05:17:24Z</time>
      </trkpt>
      <trkpt lat="43.1644" lon="5.93356">
        <ele>80</ele>
        <time>2009-06-25T05:17:29Z</time>
      </trkpt>
      <trkpt lat="43.16417" lon="5.93284">
        <ele>80</ele>
        <time>2009-06-25T05:17:35Z</time>
      </trkpt>
      <trkpt lat="43.16393" lon="5.9319">
        <ele>80</ele>
        <time>2009-06-25T05:17:42Z</time>
      </trkpt>
      <trkpt lat="43.1637" lon="5.93094">
        <ele>80</ele>
        <time>2009-06-25T05:17:49Z</time>
      </trkpt>
      <trkpt lat="43.1635" lon="5.93044">
        <ele>80</ele>
        <time>2009-06-25T05:17:53Z</time>
      </trkpt>
      <trkpt lat="43.16334" lon="5.92978">
        <ele>80</ele>
        <time>2009-06-25T05:17:58Z</time>
      </trkpt>
      <trkpt lat="43.16317" lon="5.92907">
        <ele>80</ele>
        <time>2009-06-25T05:18:03Z</time>
      </trkpt>
      <trkpt lat="43.16301" lon="5.92853">
        <ele>80</ele>
        <time>2009-06-25T05:18:07Z</time>
      </trkpt>
      <trkpt lat="43.16304" lon="5.92792">
        <ele>80</ele>
        <time>2009-06-25T05:18:11Z</time>
      </trkpt>
      <trkpt lat="43.16324" lon="5.92753">
        <ele>80</ele>
        <time>2009-06-25T05:18:14Z</time>
      </trkpt>
      <trkpt lat="43.16331" lon="5.92725">
        <ele>80</ele>
        <time>2009-06-25T05:18:16Z</time>
      </trkpt>
      <trkpt lat="43.16326" lon="5.92681">
        <ele>80</ele>
        <time>2009-06-25T05:18:19Z</time>
      </trkpt>
      <trkpt lat="43.16308" lon="5.92648">
        <ele>80</ele>
        <time>2009-06-25T05:18:22Z</time>
      </trkpt>
      <trkpt lat="43.163" lon="5.9264">
        <ele>80</ele>
        <time>2009-06-25T05:18:23Z</time>
      </trkpt>
      <trkpt lat="43.16246" lon="5.92586">
        <ele>80</ele>
        <time>2009-06-25T05:18:30Z</time>
      </trkpt>
      <trkpt lat="43.16225" lon="5.92561">
        <ele>80</ele>
        <time>2009-06-25T05:18:33Z</time>
      </trkpt>
      <trkpt lat="43.16199" lon="5.92528">
        <ele>80</ele>
        <time>2009-06-25T05:18:37Z</time>
      </trkpt>
      <trkpt lat="43.16164" lon="5.92471">
        <ele>78.918334960938</ele>
        <time>2009-06-25T05:18:43Z</time>
      </trkpt>
      <trkpt lat="43.16127" lon="5.92414">
        <ele>76.30379486084</ele>
        <time>2009-06-25T05:18:49Z</time>
      </trkpt>
      <trkpt lat="43.16083" lon="5.92348">
        <ele>67.028778076172</ele>
        <time>2009-06-25T05:18:56Z</time>
      </trkpt>
      <trkpt lat="43.16034" lon="5.92268">
        <ele>60.794761657715</ele>
        <time>2009-06-25T05:19:04Z</time>
      </trkpt>
      <trkpt lat="43.15998" lon="5.92227">
        <ele>60.009983062744</ele>
        <time>2009-06-25T05:19:09Z</time>
      </trkpt>
      <trkpt lat="43.1595" lon="5.9217">
        <ele>60</ele>
        <time>2009-06-25T05:19:16Z</time>
      </trkpt>
      <trkpt lat="43.15943" lon="5.92161">
        <ele>60</ele>
        <time>2009-06-25T05:19:17Z</time>
      </trkpt>
      <trkpt lat="43.15924" lon="5.92118">
        <ele>60</ele>
        <time>2009-06-25T05:19:21Z</time>
      </trkpt>
      <trkpt lat="43.15932" lon="5.92083">
        <ele>60</ele>
        <time>2009-06-25T05:19:24Z</time>
      </trkpt>
      <trkpt lat="43.15937" lon="5.92073">
        <ele>60</ele>
        <time>2009-06-25T05:19:25Z</time>
      </trkpt>
      <trkpt lat="43.15949" lon="5.92054">
        <ele>60</ele>
        <time>2009-06-25T05:19:27Z</time>
      </trkpt>
      <trkpt lat="43.1596" lon="5.92009">
        <ele>60</ele>
        <time>2009-06-25T05:19:31Z</time>
      </trkpt>
      <trkpt lat="43.15956" lon="5.91971">
        <ele>60</ele>
        <time>2009-06-25T05:19:34Z</time>
      </trkpt>
      <trkpt lat="43.15955" lon="5.91959">
        <ele>60</ele>
        <time>2009-06-25T05:19:35Z</time>
      </trkpt>
      <trkpt lat="43.15943" lon="5.91873">
        <ele>60</ele>
        <time>2009-06-25T05:19:42Z</time>
      </trkpt>
      <trkpt lat="43.15931" lon="5.91814">
        <ele>60</ele>
        <time>2009-06-25T05:19:47Z</time>
      </trkpt>
      <trkpt lat="43.1592" lon="5.91775">
        <ele>60</ele>
        <time>2009-06-25T05:19:51Z</time>
      </trkpt>
      <trkpt lat="43.15903" lon="5.91759">
        <ele>60</ele>
        <time>2009-06-25T05:19:55Z</time>
      </trkpt>
      <trkpt lat="43.15888" lon="5.91761">
        <ele>60</ele>
        <time>2009-06-25T05:19:57Z</time>
      </trkpt>
      <trkpt lat="43.15872" lon="5.91767">
        <ele>60</ele>
        <time>2009-06-25T05:19:59Z</time>
      </trkpt>
      <trkpt lat="43.15824" lon="5.91772">
        <ele>60</ele>
        <time>2009-06-25T05:20:04Z</time>
      </trkpt>
      <trkpt lat="43.15792" lon="5.91754">
        <ele>60</ele>
        <time>2009-06-25T05:20:08Z</time>
      </trkpt>
      <trkpt lat="43.15742" lon="5.91699">
        <ele>60</ele>
        <time>2009-06-25T05:20:15Z</time>
      </trkpt>
      <trkpt lat="43.15712" lon="5.91662">
        <ele>60</ele>
        <time>2009-06-25T05:20:19Z</time>
      </trkpt>
      <trkpt lat="43.15673" lon="5.91641">
        <ele>60</ele>
        <time>2009-06-25T05:20:23Z</time>
      </trkpt>
      <trkpt lat="43.15622" lon="5.91623">
        <ele>60</ele>
        <time>2009-06-25T05:20:28Z</time>
      </trkpt>
      <trkpt lat="43.15602" lon="5.91613">
        <ele>60</ele>
        <time>2009-06-25T05:20:30Z</time>
      </trkpt>
      <trkpt lat="43.15568" lon="5.91582">
        <ele>60</ele>
        <time>2009-06-25T05:20:34Z</time>
      </trkpt>
      <trkpt lat="43.15514" lon="5.91548">
        <ele>58.517456054688</ele>
        <time>2009-06-25T05:20:40Z</time>
      </trkpt>
      <trkpt lat="43.15466" lon="5.91535">
        <ele>53.03857421875</ele>
        <time>2009-06-25T05:20:45Z</time>
      </trkpt>
      <trkpt lat="43.15408" lon="5.9151">
        <ele>47.646072387695</ele>
        <time>2009-06-25T05:20:51Z</time>
      </trkpt>
      <trkpt lat="43.15333" lon="5.91487">
        <ele>40</ele>
        <time>2009-06-25T05:20:59Z</time>
      </trkpt>
      <trkpt lat="43.15297" lon="5.91497">
        <ele>40</ele>
        <time>2009-06-25T05:21:03Z</time>
      </trkpt>
      <trkpt lat="43.15239" lon="5.91504">
        <ele>40</ele>
        <time>2009-06-25T05:21:10Z</time>
      </trkpt>
      <trkpt lat="43.15184" lon="5.91496">
        <ele>40</ele>
        <time>2009-06-25T05:21:16Z</time>
      </trkpt>
      <trkpt lat="43.15138" lon="5.91476">
        <ele>40</ele>
        <time>2009-06-25T05:21:21Z</time>
      </trkpt>
      <trkpt lat="43.15129" lon="5.91471">
        <ele>40</ele>
        <time>2009-06-25T05:21:22Z</time>
      </trkpt>
      <trkpt lat="43.15104" lon="5.91458">
        <ele>40</ele>
        <time>2009-06-25T05:21:25Z</time>
      </trkpt>
      <trkpt lat="43.15093" lon="5.91445">
        <ele>40</ele>
        <time>2009-06-25T05:21:29Z</time>
      </trkpt>
      <trkpt lat="43.15095" lon="5.91435">
        <ele>40</ele>
        <time>2009-06-25T05:21:32Z</time>
      </trkpt>
      <trkpt lat="43.15099" lon="5.91425">
        <ele>40</ele>
        <time>2009-06-25T05:21:34Z</time>
      </trkpt>
      <trkpt lat="43.1512" lon="5.91388">
        <ele>40</ele>
        <time>2009-06-25T05:21:42Z</time>
      </trkpt>
      <trkpt lat="43.15123" lon="5.91383">
        <ele>40</ele>
        <time>2009-06-25T05:21:43Z</time>
      </trkpt>
      <trkpt lat="43.15136" lon="5.91373">
        <ele>40</ele>
        <time>2009-06-25T05:21:47Z</time>
      </trkpt>
      <trkpt lat="43.15164" lon="5.91361">
        <ele>40</ele>
        <time>2009-06-25T05:21:55Z</time>
      </trkpt>
      <trkpt lat="43.15176" lon="5.91344">
        <ele>40</ele>
        <time>2009-06-25T05:22:00Z</time>
      </trkpt>
      <trkpt lat="43.15189" lon="5.91322">
        <ele>40</ele>
        <time>2009-06-25T05:22:06Z</time>
      </trkpt>
      <trkpt lat="43.15202" lon="5.91301">
        <ele>40</ele>
        <time>2009-06-25T05:22:12Z</time>
      </trkpt>
      <trkpt lat="43.15213" lon="5.91274">
        <ele>40.317825317383</ele>
        <time>2009-06-25T05:22:19Z</time>
      </trkpt>
      <trkpt lat="43.15215" lon="5.9125">
        <ele>42.75016784668</ele>
        <time>2009-06-25T05:22:26Z</time>
      </trkpt>
      <trkpt lat="43.1521" lon="5.91219">
        <ele>45.995697021484</ele>
        <time>2009-06-25T05:22:35Z</time>
      </trkpt>
      <trkpt lat="43.15205" lon="5.91198">
        <ele>48.804077148438</ele>
        <time>2009-06-25T05:22:42Z</time>
      </trkpt>
      <trkpt lat="43.152" lon="5.91177">
        <ele>50.998657226562</ele>
        <time>2009-06-25T05:22:49Z</time>
      </trkpt>
      <trkpt lat="43.15194" lon="5.91158">
        <ele>52.957092285156</ele>
        <time>2009-06-25T05:22:55Z</time>
      </trkpt>
      <trkpt lat="43.15191" lon="5.91135">
        <ele>55.517883300781</ele>
        <time>2009-06-25T05:23:01Z</time>
      </trkpt>
      <trkpt lat="43.15182" lon="5.91108">
        <ele>58.852386474609</ele>
        <time>2009-06-25T05:23:08Z</time>
      </trkpt>
      <trkpt lat="43.15173" lon="5.91083">
        <ele>62.79020690918</ele>
        <time>2009-06-25T05:23:14Z</time>
      </trkpt>
      <trkpt lat="43.15151" lon="5.9106">
        <ele>66.668739318848</ele>
        <time>2009-06-25T05:23:22Z</time>
      </trkpt>
      <trkpt lat="43.15131" lon="5.9105">
        <ele>67.218902587891</ele>
        <time>2009-06-25T05:23:29Z</time>
      </trkpt>
      <trkpt lat="43.15117" lon="5.91055">
        <ele>66.267112731934</ele>
        <time>2009-06-25T05:23:34Z</time>
      </trkpt>
      <trkpt lat="43.15099" lon="5.91062">
        <ele>64.260467529297</ele>
        <time>2009-06-25T05:23:41Z</time>
      </trkpt>
      <trkpt lat="43.15095" lon="5.91059">
        <ele>64.012664794922</ele>
        <time>2009-06-25T05:23:43Z</time>
      </trkpt>
      <trkpt lat="43.15087" lon="5.91045">
        <ele>63.851528167725</ele>
        <time>2009-06-25T05:23:49Z</time>
      </trkpt>
      <trkpt lat="43.15081" lon="5.91026">
        <ele>64.039993286133</ele>
        <time>2009-06-25T05:23:55Z</time>
      </trkpt>
      <trkpt lat="43.1509" lon="5.91016">
        <ele>65.896224975586</ele>
        <time>2009-06-25T05:24:00Z</time>
      </trkpt>
      <trkpt lat="43.15111" lon="5.91005">
        <ele>70.408378601074</ele>
        <time>2009-06-25T05:24:08Z</time>
      </trkpt>
      <trkpt lat="43.15131" lon="5.90992">
        <ele>74.240447998047</ele>
        <time>2009-06-25T05:24:16Z</time>
      </trkpt>
      <trkpt lat="43.15152" lon="5.90989">
        <ele>76.073272705078</ele>
        <time>2009-06-25T05:24:24Z</time>
      </trkpt>
      <trkpt lat="43.15168" lon="5.90988">
        <ele>76.76815032959</ele>
        <time>2009-06-25T05:24:31Z</time>
      </trkpt>
      <trkpt lat="43.15186" lon="5.90987">
        <ele>77.171539306641</ele>
        <time>2009-06-25T05:24:39Z</time>
      </trkpt>
      <trkpt lat="43.15204" lon="5.90986">
        <ele>77.170135498047</ele>
        <time>2009-06-25T05:24:47Z</time>
      </trkpt>
      <trkpt lat="43.15219" lon="5.90981">
        <ele>77.48770904541</ele>
        <time>2009-06-25T05:24:54Z</time>
      </trkpt>
      <trkpt lat="43.15234" lon="5.90968">
        <ele>79.342178344727</ele>
        <time>2009-06-25T05:25:02Z</time>
      </trkpt>
      <trkpt lat="43.15247" lon="5.90957">
        <ele>80.614280700684</ele>
        <time>2009-06-25T05:25:09Z</time>
      </trkpt>
      <trkpt lat="43.15256" lon="5.90947">
        <ele>81.318618774414</ele>
        <time>2009-06-25T05:25:15Z</time>
      </trkpt>
      <trkpt lat="43.15269" lon="5.90926">
        <ele>83.540924072266</ele>
        <time>2009-06-25T05:25:24Z</time>
      </trkpt>
      <trkpt lat="43.15276" lon="5.90912">
        <ele>85.819038391113</ele>
        <time>2009-06-25T05:25:30Z</time>
      </trkpt>
      <trkpt lat="43.15287" lon="5.90896">
        <ele>88.624740600586</ele>
        <time>2009-06-25T05:25:37Z</time>
      </trkpt>
      <trkpt lat="43.15297" lon="5.9088">
        <ele>90.948348999023</ele>
        <time>2009-06-25T05:25:44Z</time>
      </trkpt>
      <trkpt lat="43.15305" lon="5.90866">
        <ele>92.457252502441</ele>
        <time>2009-06-25T05:25:50Z</time>
      </trkpt>
      <trkpt lat="43.15303" lon="5.90846">
        <ele>96.147338867188</ele>
        <time>2009-06-25T05:25:57Z</time>
      </trkpt>
      <trkpt lat="43.15309" lon="5.90837">
        <ele>98.33332824707</ele>
        <time>2009-06-25T05:26:01Z</time>
      </trkpt>
      <trkpt lat="43.15316" lon="5.90822">
        <ele>100.69818878174</ele>
        <time>2009-06-25T05:26:07Z</time>
      </trkpt>
      <trkpt lat="43.15325" lon="5.90817">
        <ele>101.91384887695</ele>
        <time>2009-06-25T05:26:12Z</time>
      </trkpt>
      <trkpt lat="43.15332" lon="5.90811">
        <ele>103.07513427734</ele>
        <time>2009-06-25T05:26:15Z</time>
      </trkpt>
      <trkpt lat="43.15341" lon="5.90798">
        <ele>105.19811248779</ele>
        <time>2009-06-25T05:26:21Z</time>
      </trkpt>
      <trkpt lat="43.15345" lon="5.90796">
        <ele>105.82907104492</ele>
        <time>2009-06-25T05:26:23Z</time>
      </trkpt>
      <trkpt lat="43.15349" lon="5.90793">
        <ele>106.52910614014</ele>
        <time>2009-06-25T05:26:25Z</time>
      </trkpt>
      <trkpt lat="43.15357" lon="5.90781">
        <ele>109.06759643555</ele>
        <time>2009-06-25T05:26:31Z</time>
      </trkpt>
      <trkpt lat="43.15369" lon="5.90766">
        <ele>113.59887695312</ele>
        <time>2009-06-25T05:26:38Z</time>
      </trkpt>
      <trkpt lat="43.1538" lon="5.90752">
        <ele>118.33329772949</ele>
        <time>2009-06-25T05:26:45Z</time>
      </trkpt>
      <trkpt lat="43.15393" lon="5.90731">
        <ele>122.49792480469</ele>
        <time>2009-06-25T05:26:53Z</time>
      </trkpt>
      <trkpt lat="43.15411" lon="5.90701">
        <ele>126.99047851562</ele>
        <time>2009-06-25T05:27:04Z</time>
      </trkpt>
      <trkpt lat="43.15428" lon="5.90679">
        <ele>131.08950805664</ele>
        <time>2009-06-25T05:27:12Z</time>
      </trkpt>
      <trkpt lat="43.15442" lon="5.90672">
        <ele>133.94592285156</ele>
        <time>2009-06-25T05:27:17Z</time>
      </trkpt>
      <trkpt lat="43.15456" lon="5.90671">
        <ele>136.28601074219</ele>
        <time>2009-06-25T05:27:22Z</time>
      </trkpt>
      <trkpt lat="43.15467" lon="5.90677">
        <ele>137.28614807129</ele>
        <time>2009-06-25T05:27:27Z</time>
      </trkpt>
      <trkpt lat="43.1548" lon="5.90686">
        <ele>136.54800415039</ele>
        <time>2009-06-25T05:27:32Z</time>
      </trkpt>
      <trkpt lat="43.15496" lon="5.907">
        <ele>134.41989135742</ele>
        <time>2009-06-25T05:27:39Z</time>
      </trkpt>
      <trkpt lat="43.1551" lon="5.90712">
        <ele>133.44390869141</ele>
        <time>2009-06-25T05:27:45Z</time>
      </trkpt>
      <trkpt lat="43.1553" lon="5.90727">
        <ele>132.09397888184</ele>
        <time>2009-06-25T05:27:52Z</time>
      </trkpt>
      <trkpt lat="43.15545" lon="5.90738">
        <ele>129.8487701416</ele>
        <time>2009-06-25T05:27:58Z</time>
      </trkpt>
      <trkpt lat="43.15561" lon="5.9075">
        <ele>128.05354309082</ele>
        <time>2009-06-25T05:28:03Z</time>
      </trkpt>
      <trkpt lat="43.15587" lon="5.90765">
        <ele>125.68134307861</ele>
        <time>2009-06-25T05:28:11Z</time>
      </trkpt>
      <trkpt lat="43.15607" lon="5.90767">
        <ele>124.47619628906</ele>
        <time>2009-06-25T05:28:17Z</time>
      </trkpt>
      <trkpt lat="43.15626" lon="5.90767">
        <ele>124.42024230957</ele>
        <time>2009-06-25T05:28:23Z</time>
      </trkpt>
      <trkpt lat="43.15655" lon="5.90758">
        <ele>126.27449798584</ele>
        <time>2009-06-25T05:28:32Z</time>
      </trkpt>
      <trkpt lat="43.15676" lon="5.9074">
        <ele>132.73300170898</ele>
        <time>2009-06-25T05:28:40Z</time>
      </trkpt>
      <trkpt lat="43.15692" lon="5.90717">
        <ele>140.89723205566</ele>
        <time>2009-06-25T05:28:47Z</time>
      </trkpt>
      <trkpt lat="43.15701" lon="5.90693">
        <ele>145.84768676758</ele>
        <time>2009-06-25T05:28:54Z</time>
      </trkpt>
      <trkpt lat="43.15711" lon="5.90672">
        <ele>151.53311157227</ele>
        <time>2009-06-25T05:29:00Z</time>
      </trkpt>
      <trkpt lat="43.15727" lon="5.9066">
        <ele>152.69577026367</ele>
        <time>2009-06-25T05:29:05Z</time>
      </trkpt>
      <trkpt lat="43.15747" lon="5.90661">
        <ele>150.01051330566</ele>
        <time>2009-06-25T05:29:11Z</time>
      </trkpt>
      <trkpt lat="43.15767" lon="5.90672">
        <ele>143.74070739746</ele>
        <time>2009-06-25T05:29:18Z</time>
      </trkpt>
      <trkpt lat="43.1579" lon="5.90681">
        <ele>137.91354370117</ele>
        <time>2009-06-25T05:29:26Z</time>
      </trkpt>
      <trkpt lat="43.15812" lon="5.90674">
        <ele>137.27891540527</ele>
        <time>2009-06-25T05:29:33Z</time>
      </trkpt>
      <trkpt lat="43.15833" lon="5.90658">
        <ele>139.86630249023</ele>
        <time>2009-06-25T05:29:40Z</time>
      </trkpt>
      <trkpt lat="43.15852" lon="5.90637">
        <ele>140.60174560547</ele>
        <time>2009-06-25T05:29:48Z</time>
      </trkpt>
      <trkpt lat="43.15863" lon="5.90619">
        <ele>143.42620849609</ele>
        <time>2009-06-25T05:29:53Z</time>
      </trkpt>
      <trkpt lat="43.15879" lon="5.90596">
        <ele>148.11712646484</ele>
        <time>2009-06-25T05:30:00Z</time>
      </trkpt>
      <trkpt lat="43.15892" lon="5.9057">
        <ele>151.83680725098</ele>
        <time>2009-06-25T05:30:07Z</time>
      </trkpt>
      <trkpt lat="43.15908" lon="5.90538">
        <ele>155.42352294922</ele>
        <time>2009-06-25T05:30:16Z</time>
      </trkpt>
      <trkpt lat="43.15923" lon="5.90509">
        <ele>158.26295471191</ele>
        <time>2009-06-25T05:30:25Z</time>
      </trkpt>
      <trkpt lat="43.15941" lon="5.90473">
        <ele>157.94059753418</ele>
        <time>2009-06-25T05:30:35Z</time>
      </trkpt>
      <trkpt lat="43.15953" lon="5.90442">
        <ele>160.83023071289</ele>
        <time>2009-06-25T05:30:43Z</time>
      </trkpt>
      <trkpt lat="43.15962" lon="5.9041">
        <ele>164.52117919922</ele>
        <time>2009-06-25T05:30:51Z</time>
      </trkpt>
      <trkpt lat="43.15977" lon="5.90378">
        <ele>165.5947265625</ele>
        <time>2009-06-25T05:31:00Z</time>
      </trkpt>
      <trkpt lat="43.15995" lon="5.90338">
        <ele>168.28637695312</ele>
        <time>2009-06-25T05:31:11Z</time>
      </trkpt>
      <trkpt lat="43.16006" lon="5.90303">
        <ele>170.46629333496</ele>
        <time>2009-06-25T05:31:20Z</time>
      </trkpt>
      <trkpt lat="43.16019" lon="5.90261">
        <ele>174.7092590332</ele>
        <time>2009-06-25T05:31:30Z</time>
      </trkpt>
      <trkpt lat="43.16032" lon="5.90246">
        <ele>175.57835388184</ele>
        <time>2009-06-25T05:31:35Z</time>
      </trkpt>
      <trkpt lat="43.16047" lon="5.90223">
        <ele>179.92303466797</ele>
        <time>2009-06-25T05:31:42Z</time>
      </trkpt>
      <trkpt lat="43.16055" lon="5.90199">
        <ele>184.27159118652</ele>
        <time>2009-06-25T05:31:48Z</time>
      </trkpt>
      <trkpt lat="43.16068" lon="5.90192">
        <ele>184.88290405273</ele>
        <time>2009-06-25T05:31:52Z</time>
      </trkpt>
      <trkpt lat="43.16082" lon="5.90201">
        <ele>182.71926879883</ele>
        <time>2009-06-25T05:31:57Z</time>
      </trkpt>
      <trkpt lat="43.16099" lon="5.90225">
        <ele>175.39088439941</ele>
        <time>2009-06-25T05:32:05Z</time>
      </trkpt>
      <trkpt lat="43.16114" lon="5.90236">
        <ele>170.67626953125</ele>
        <time>2009-06-25T05:32:11Z</time>
      </trkpt>
      <trkpt lat="43.1613" lon="5.90233">
        <ele>171.52598571777</ele>
        <time>2009-06-25T05:32:16Z</time>
      </trkpt>
      <trkpt lat="43.1615" lon="5.90218">
        <ele>174.77601623535</ele>
        <time>2009-06-25T05:32:24Z</time>
      </trkpt>
      <trkpt lat="43.16165" lon="5.90204">
        <ele>177.40710449219</ele>
        <time>2009-06-25T05:32:30Z</time>
      </trkpt>
      <trkpt lat="43.16188" lon="5.90193">
        <ele>176.35832214356</ele>
        <time>2009-06-25T05:32:38Z</time>
      </trkpt>
      <trkpt lat="43.16199" lon="5.902">
        <ele>173.18907165527</ele>
        <time>2009-06-25T05:32:42Z</time>
      </trkpt>
      <trkpt lat="43.16215" lon="5.90211">
        <ele>168.75874328613</ele>
        <time>2009-06-25T05:32:48Z</time>
      </trkpt>
      <trkpt lat="43.16231" lon="5.90206">
        <ele>168.6775970459</ele>
        <time>2009-06-25T05:32:53Z</time>
      </trkpt>
      <trkpt lat="43.16254" lon="5.90185">
        <ele>170.41616821289</ele>
        <time>2009-06-25T05:33:01Z</time>
      </trkpt>
      <trkpt lat="43.16285" lon="5.90158">
        <ele>173.64462280273</ele>
        <time>2009-06-25T05:33:12Z</time>
      </trkpt>
      <trkpt lat="43.16296" lon="5.90133">
        <ele>178.57438659668</ele>
        <time>2009-06-25T05:33:18Z</time>
      </trkpt>
      <trkpt lat="43.16303" lon="5.901">
        <ele>185.53382873535</ele>
        <time>2009-06-25T05:33:26Z</time>
      </trkpt>
      <trkpt lat="43.16312" lon="5.90062">
        <ele>195.07456970215</ele>
        <time>2009-06-25T05:33:36Z</time>
      </trkpt>
      <trkpt lat="43.16321" lon="5.90053">
        <ele>197.26324462891</ele>
        <time>2009-06-25T05:33:40Z</time>
      </trkpt>
      <trkpt lat="43.16344" lon="5.9005">
        <ele>196.8465423584</ele>
        <time>2009-06-25T05:33:47Z</time>
      </trkpt>
      <trkpt lat="43.16361" lon="5.90045">
        <ele>197.98188781738</ele>
        <time>2009-06-25T05:33:53Z</time>
      </trkpt>
      <trkpt lat="43.1638" lon="5.90049">
        <ele>195.40348815918</ele>
        <time>2009-06-25T05:33:59Z</time>
      </trkpt>
      <trkpt lat="43.16391" lon="5.90063">
        <ele>190.9384765625</ele>
        <time>2009-06-25T05:34:04Z</time>
      </trkpt>
      <trkpt lat="43.16406" lon="5.90086">
        <ele>184.51443481445</ele>
        <time>2009-06-25T05:34:12Z</time>
      </trkpt>
      <trkpt lat="43.16424" lon="5.90093">
        <ele>183.68055725098</ele>
        <time>2009-06-25T05:34:18Z</time>
      </trkpt>
      <trkpt lat="43.1644" lon="5.901">
        <ele>183.38331604004</ele>
        <time>2009-06-25T05:34:24Z</time>
      </trkpt>
      <trkpt lat="43.16455" lon="5.90108">
        <ele>183.18426513672</ele>
        <time>2009-06-25T05:34:30Z</time>
      </trkpt>
      <trkpt lat="43.16473" lon="5.90115">
        <ele>183.63137817383</ele>
        <time>2009-06-25T05:34:36Z</time>
      </trkpt>
      <trkpt lat="43.16488" lon="5.90117">
        <ele>184.86734008789</ele>
        <time>2009-06-25T05:34:41Z</time>
      </trkpt>
      <trkpt lat="43.16513" lon="5.90103">
        <ele>190.35499572754</ele>
        <time>2009-06-25T05:34:48Z</time>
      </trkpt>
      <trkpt lat="43.16523" lon="5.90084">
        <ele>193.21037292481</ele>
        <time>2009-06-25T05:34:53Z</time>
      </trkpt>
      <trkpt lat="43.16528" lon="5.90049">
        <ele>197.45385742188</ele>
        <time>2009-06-25T05:35:01Z</time>
      </trkpt>
      <trkpt lat="43.16536" lon="5.90034">
        <ele>198.60546875</ele>
        <time>2009-06-25T05:35:06Z</time>
      </trkpt>
      <trkpt lat="43.16548" lon="5.90032">
        <ele>198.82249450684</ele>
        <time>2009-06-25T05:35:10Z</time>
      </trkpt>
      <trkpt lat="43.16562" lon="5.90042">
        <ele>198.83093261719</ele>
        <time>2009-06-25T05:35:15Z</time>
      </trkpt>
      <trkpt lat="43.16579" lon="5.90054">
        <ele>199.69805908203</ele>
        <time>2009-06-25T05:35:21Z</time>
      </trkpt>
      <trkpt lat="43.16592" lon="5.90052">
        <ele>200</ele>
        <time>2009-06-25T05:35:25Z</time>
      </trkpt>
      <trkpt lat="43.16612" lon="5.9004">
        <ele>200</ele>
        <time>2009-06-25T05:35:32Z</time>
      </trkpt>
      <trkpt lat="43.16637" lon="5.90026">
        <ele>200</ele>
        <time>2009-06-25T05:35:41Z</time>
      </trkpt>
      <trkpt lat="43.16658" lon="5.90013">
        <ele>200</ele>
        <time>2009-06-25T05:35:48Z</time>
      </trkpt>
      <trkpt lat="43.1668" lon="5.89995">
        <ele>205.21838378906</ele>
        <time>2009-06-25T05:35:56Z</time>
      </trkpt>
      <trkpt lat="43.16701" lon="5.89974">
        <ele>213.3875579834</ele>
        <time>2009-06-25T05:36:04Z</time>
      </trkpt>
      <trkpt lat="43.16722" lon="5.89957">
        <ele>218.27046203613</ele>
        <time>2009-06-25T05:36:12Z</time>
      </trkpt>
      <trkpt lat="43.16751" lon="5.89938">
        <ele>222.81770324707</ele>
        <time>2009-06-25T05:36:21Z</time>
      </trkpt>
      <trkpt lat="43.16772" lon="5.89934">
        <ele>227.16416931152</ele>
        <time>2009-06-25T05:36:27Z</time>
      </trkpt>
      <trkpt lat="43.16797" lon="5.89935">
        <ele>235.32354736328</ele>
        <time>2009-06-25T05:36:35Z</time>
      </trkpt>
      <trkpt lat="43.16822" lon="5.8994">
        <ele>243.08988952637</ele>
        <time>2009-06-25T05:36:43Z</time>
      </trkpt>
      <trkpt lat="43.16834" lon="5.8995">
        <ele>245.66439819336</ele>
        <time>2009-06-25T05:36:48Z</time>
      </trkpt>
      <trkpt lat="43.16853" lon="5.89952">
        <ele>248.89163208008</ele>
        <time>2009-06-25T05:36:54Z</time>
      </trkpt>
      <trkpt lat="43.16867" lon="5.89938">
        <ele>253.22998046875</ele>
        <time>2009-06-25T05:37:00Z</time>
      </trkpt>
      <trkpt lat="43.16885" lon="5.89929">
        <ele>258.93057250977</ele>
        <time>2009-06-25T05:37:06Z</time>
      </trkpt>
      <trkpt lat="43.16893" lon="5.8994">
        <ele>263.23852539062</ele>
        <time>2009-06-25T05:37:10Z</time>
      </trkpt>
      <trkpt lat="43.16891" lon="5.89956">
        <ele>261.35491943359</ele>
        <time>2009-06-25T05:37:14Z</time>
      </trkpt>
      <trkpt lat="43.16878" lon="5.89983">
        <ele>254.48735046387</ele>
        <time>2009-06-25T05:37:22Z</time>
      </trkpt>
      <trkpt lat="43.16861" lon="5.90002">
        <ele>247.9475402832</ele>
        <time>2009-06-25T05:37:29Z</time>
      </trkpt>
      <trkpt lat="43.16841" lon="5.90023">
        <ele>242.06193542481</ele>
        <time>2009-06-25T05:37:37Z</time>
      </trkpt>
      <trkpt lat="43.16833" lon="5.90044">
        <ele>239.78826904297</ele>
        <time>2009-06-25T05:37:43Z</time>
      </trkpt>
      <trkpt lat="43.16837" lon="5.90066">
        <ele>241.0221862793</ele>
        <time>2009-06-25T05:37:48Z</time>
      </trkpt>
      <trkpt lat="43.16849" lon="5.90074">
        <ele>244.4235534668</ele>
        <time>2009-06-25T05:37:52Z</time>
      </trkpt>
      <trkpt lat="43.16865" lon="5.90071">
        <ele>248.73532104492</ele>
        <time>2009-06-25T05:37:57Z</time>
      </trkpt>
      <trkpt lat="43.16889" lon="5.90051">
        <ele>253.39836120606</ele>
        <time>2009-06-25T05:38:06Z</time>
      </trkpt>
      <trkpt lat="43.16903" lon="5.9003">
        <ele>260.12307739258</ele>
        <time>2009-06-25T05:38:13Z</time>
      </trkpt>
      <trkpt lat="43.16915" lon="5.90008">
        <ele>268.00741577148</ele>
        <time>2009-06-25T05:38:20Z</time>
      </trkpt>
      <trkpt lat="43.16928" lon="5.89985">
        <ele>276.16680908203</ele>
        <time>2009-06-25T05:38:27Z</time>
      </trkpt>
      <trkpt lat="43.16944" lon="5.89958">
        <ele>281.92678833008</ele>
        <time>2009-06-25T05:38:35Z</time>
      </trkpt>
      <trkpt lat="43.16954" lon="5.8993">
        <ele>289.06414794922</ele>
        <time>2009-06-25T05:38:42Z</time>
      </trkpt>
      <trkpt lat="43.16965" lon="5.89899">
        <ele>296.06402587891</ele>
        <time>2009-06-25T05:38:50Z</time>
      </trkpt>
      <trkpt lat="43.16973" lon="5.89866">
        <ele>300.31521606445</ele>
        <time>2009-06-25T05:38:58Z</time>
      </trkpt>
      <trkpt lat="43.16977" lon="5.89831">
        <ele>302.35437011719</ele>
        <time>2009-06-25T05:39:06Z</time>
      </trkpt>
      <trkpt lat="43.16978" lon="5.89795">
        <ele>305.08206176758</ele>
        <time>2009-06-25T05:39:14Z</time>
      </trkpt>
      <trkpt lat="43.1698" lon="5.89765">
        <ele>306.78302001953</ele>
        <time>2009-06-25T05:39:21Z</time>
      </trkpt>
      <trkpt lat="43.16975" lon="5.89743">
        <ele>305.80065917969</ele>
        <time>2009-06-25T05:39:26Z</time>
      </trkpt>
      <trkpt lat="43.16965" lon="5.89732">
        <ele>301.98635864258</ele>
        <time>2009-06-25T05:39:30Z</time>
      </trkpt>
      <trkpt lat="43.16955" lon="5.89711">
        <ele>298.25894165039</ele>
        <time>2009-06-25T05:39:36Z</time>
      </trkpt>
      <trkpt lat="43.16943" lon="5.8968">
        <ele>293.74838256836</ele>
        <time>2009-06-25T05:39:44Z</time>
      </trkpt>
      <trkpt lat="43.1694" lon="5.89668">
        <ele>292.31918334961</ele>
        <time>2009-06-25T05:39:47Z</time>
      </trkpt>
      <trkpt lat="43.16948" lon="5.89651">
        <ele>297.1487121582</ele>
        <time>2009-06-25T05:39:52Z</time>
      </trkpt>
      <trkpt lat="43.16956" lon="5.89653">
        <ele>301.29949951172</ele>
        <time>2009-06-25T05:39:55Z</time>
      </trkpt>
      <trkpt lat="43.16957" lon="5.89669">
        <ele>301.27780151367</ele>
        <time>2009-06-25T05:39:59Z</time>
      </trkpt>
      <trkpt lat="43.16959" lon="5.89699">
        <ele>300.82183837891</ele>
        <time>2009-06-25T05:40:06Z</time>
      </trkpt>
      <trkpt lat="43.16972" lon="5.89714">
        <ele>306.17080688477</ele>
        <time>2009-06-25T05:40:11Z</time>
      </trkpt>
      <trkpt lat="43.16989" lon="5.8973">
        <ele>313.14434814453</ele>
        <time>2009-06-25T05:40:17Z</time>
      </trkpt>
      <trkpt lat="43.16996" lon="5.89755">
        <ele>314.94137573242</ele>
        <time>2009-06-25T05:40:24Z</time>
      </trkpt>
      <trkpt lat="43.16994" lon="5.89784">
        <ele>312.40515136719</ele>
        <time>2009-06-25T05:40:30Z</time>
      </trkpt>
      <trkpt lat="43.16997" lon="5.89818">
        <ele>311.72708129883</ele>
        <time>2009-06-25T05:40:37Z</time>
      </trkpt>
      <trkpt lat="43.17001" lon="5.89858">
        <ele>310.67971801758</ele>
        <time>2009-06-25T05:40:46Z</time>
      </trkpt>
      <trkpt lat="43.17" lon="5.89888">
        <ele>309.10858154297</ele>
        <time>2009-06-25T05:40:52Z</time>
      </trkpt>
      <trkpt lat="43.16994" lon="5.89908">
        <ele>305.92623901367</ele>
        <time>2009-06-25T05:40:57Z</time>
      </trkpt>
      <trkpt lat="43.16986" lon="5.89929">
        <ele>303.06430053711</ele>
        <time>2009-06-25T05:41:02Z</time>
      </trkpt>
      <trkpt lat="43.16996" lon="5.89941">
        <ele>305.01266479492</ele>
        <time>2009-06-25T05:41:06Z</time>
      </trkpt>
      <trkpt lat="43.17006" lon="5.89937">
        <ele>307.73083496094</ele>
        <time>2009-06-25T05:41:09Z</time>
      </trkpt>
      <trkpt lat="43.17008" lon="5.89923">
        <ele>309.05328369141</ele>
        <time>2009-06-25T05:41:12Z</time>
      </trkpt>
      <trkpt lat="43.17017" lon="5.89891">
        <ele>314.33499145508</ele>
        <time>2009-06-25T05:41:19Z</time>
      </trkpt>
      <trkpt lat="43.17021" lon="5.89867">
        <ele>317.09121704102</ele>
        <time>2009-06-25T05:41:24Z</time>
      </trkpt>
      <trkpt lat="43.17015" lon="5.89837">
        <ele>316.33981323242</ele>
        <time>2009-06-25T05:41:31Z</time>
      </trkpt>
      <trkpt lat="43.17013" lon="5.89818">
        <ele>316.65048217773</ele>
        <time>2009-06-25T05:41:35Z</time>
      </trkpt>
      <trkpt lat="43.1702" lon="5.89785">
        <ele>319.69592285156</ele>
        <time>2009-06-25T05:41:42Z</time>
      </trkpt>
      <trkpt lat="43.17027" lon="5.89753">
        <ele>323.48016357422</ele>
        <time>2009-06-25T05:41:49Z</time>
      </trkpt>
      <trkpt lat="43.1702" lon="5.89726">
        <ele>323.85437011719</ele>
        <time>2009-06-25T05:41:55Z</time>
      </trkpt>
      <trkpt lat="43.17011" lon="5.89698">
        <ele>322.69500732422</ele>
        <time>2009-06-25T05:42:02Z</time>
      </trkpt>
      <trkpt lat="43.17004" lon="5.8967">
        <ele>321.24642944336</ele>
        <time>2009-06-25T05:42:09Z</time>
      </trkpt>
      <trkpt lat="43.17009" lon="5.8965">
        <ele>322.96688842773</ele>
        <time>2009-06-25T05:42:14Z</time>
      </trkpt>
      <trkpt lat="43.17019" lon="5.89617">
        <ele>327.18222045898</ele>
        <time>2009-06-25T05:42:21Z</time>
      </trkpt>
      <trkpt lat="43.17015" lon="5.89594">
        <ele>326.63369750977</ele>
        <time>2009-06-25T05:42:26Z</time>
      </trkpt>
      <trkpt lat="43.17003" lon="5.89579">
        <ele>321.37680053711</ele>
        <time>2009-06-25T05:42:31Z</time>
      </trkpt>
      <trkpt lat="43.16986" lon="5.89559">
        <ele>317.36978149414</ele>
        <time>2009-06-25T05:42:38Z</time>
      </trkpt>
      <trkpt lat="43.16982" lon="5.89539">
        <ele>317.06671142578</ele>
        <time>2009-06-25T05:42:43Z</time>
      </trkpt>
      <trkpt lat="43.16977" lon="5.8951">
        <ele>317.89166259766</ele>
        <time>2009-06-25T05:42:50Z</time>
      </trkpt>
      <trkpt lat="43.16973" lon="5.8947">
        <ele>319.22439575195</ele>
        <time>2009-06-25T05:42:59Z</time>
      </trkpt>
      <trkpt lat="43.16971" lon="5.89443">
        <ele>319.85690307617</ele>
        <time>2009-06-25T05:43:05Z</time>
      </trkpt>
      <trkpt lat="43.16973" lon="5.89404">
        <ele>325.93899536133</ele>
        <time>2009-06-25T05:43:13Z</time>
      </trkpt>
      <trkpt lat="43.16972" lon="5.89372">
        <ele>329.44152832031</ele>
        <time>2009-06-25T05:43:20Z</time>
      </trkpt>
      <trkpt lat="43.16973" lon="5.89348">
        <ele>333.51364135742</ele>
        <time>2009-06-25T05:43:25Z</time>
      </trkpt>
      <trkpt lat="43.16972" lon="5.8933">
        <ele>336.3635559082</ele>
        <time>2009-06-25T05:43:29Z</time>
      </trkpt>
      <trkpt lat="43.16971" lon="5.89305">
        <ele>338.68252563477</ele>
        <time>2009-06-25T05:43:34Z</time>
      </trkpt>
      <trkpt lat="43.16971" lon="5.89281">
        <ele>341.19180297852</ele>
        <time>2009-06-25T05:43:39Z</time>
      </trkpt>
      <trkpt lat="43.16973" lon="5.89256">
        <ele>345.43127441406</ele>
        <time>2009-06-25T05:43:44Z</time>
      </trkpt>
      <trkpt lat="43.16972" lon="5.89229">
        <ele>348.02304077148</ele>
        <time>2009-06-25T05:43:50Z</time>
      </trkpt>
      <trkpt lat="43.16967" lon="5.892">
        <ele>350.0458984375</ele>
        <time>2009-06-25T05:43:57Z</time>
      </trkpt>
      <trkpt lat="43.16964" lon="5.89181">
        <ele>351.81735229492</ele>
        <time>2009-06-25T05:44:01Z</time>
      </trkpt>
      <trkpt lat="43.16962" lon="5.89158">
        <ele>353.65850830078</ele>
        <time>2009-06-25T05:44:06Z</time>
      </trkpt>
      <trkpt lat="43.16963" lon="5.89131">
        <ele>355.8896484375</ele>
        <time>2009-06-25T05:44:12Z</time>
      </trkpt>
      <trkpt lat="43.16963" lon="5.89113">
        <ele>357.00271606445</ele>
        <time>2009-06-25T05:44:16Z</time>
      </trkpt>
      <trkpt lat="43.16964" lon="5.89083">
        <ele>360.47106933594</ele>
        <time>2009-06-25T05:44:22Z</time>
      </trkpt>
      <trkpt lat="43.16962" lon="5.89062">
        <ele>360.94827270508</ele>
        <time>2009-06-25T05:44:27Z</time>
      </trkpt>
      <trkpt lat="43.16954" lon="5.89041">
        <ele>359.83654785156</ele>
        <time>2009-06-25T05:44:32Z</time>
      </trkpt>
      <trkpt lat="43.16944" lon="5.89024">
        <ele>357.18988037109</ele>
        <time>2009-06-25T05:44:38Z</time>
      </trkpt>
      <trkpt lat="43.1693" lon="5.89002">
        <ele>356.78134155273</ele>
        <time>2009-06-25T05:44:45Z</time>
      </trkpt>
      <trkpt lat="43.16918" lon="5.88982">
        <ele>357.20755004883</ele>
        <time>2009-06-25T05:44:51Z</time>
      </trkpt>
      <trkpt lat="43.16908" lon="5.88956">
        <ele>358.82720947266</ele>
        <time>2009-06-25T05:44:58Z</time>
      </trkpt>
      <trkpt lat="43.16913" lon="5.88943">
        <ele>361.4426574707</ele>
        <time>2009-06-25T05:45:02Z</time>
      </trkpt>
      <trkpt lat="43.16925" lon="5.88944">
        <ele>363.52536010742</ele>
        <time>2009-06-25T05:45:07Z</time>
      </trkpt>
      <trkpt lat="43.16927" lon="5.88948">
        <ele>363.29132080078</ele>
        <time>2009-06-25T05:45:08Z</time>
      </trkpt>
      <trkpt lat="43.16941" lon="5.88972">
        <ele>361.55725097656</ele>
        <time>2009-06-25T05:45:15Z</time>
      </trkpt>
      <trkpt lat="43.16964" lon="5.88995">
        <ele>367.81787109375</ele>
        <time>2009-06-25T05:45:22Z</time>
      </trkpt>
      <trkpt lat="43.16975" lon="5.89">
        <ele>371.90444946289</ele>
        <time>2009-06-25T05:45:25Z</time>
      </trkpt>
      <trkpt lat="43.16998" lon="5.89">
        <ele>379.32629394531</ele>
        <time>2009-06-25T05:45:31Z</time>
      </trkpt>
      <trkpt lat="43.17008" lon="5.89019">
        <ele>381.20162963867</ele>
        <time>2009-06-25T05:45:36Z</time>
      </trkpt>
      <trkpt lat="43.17008" lon="5.89023">
        <ele>380.99908447266</ele>
        <time>2009-06-25T05:45:37Z</time>
      </trkpt>
      <trkpt lat="43.17015" lon="5.89066">
        <ele>380.20471191406</ele>
        <time>2009-06-25T05:45:46Z</time>
      </trkpt>
      <trkpt lat="43.17019" lon="5.89084">
        <ele>380.73309326172</ele>
        <time>2009-06-25T05:45:50Z</time>
      </trkpt>
      <trkpt lat="43.17018" lon="5.89108">
        <ele>377.71014404297</ele>
        <time>2009-06-25T05:45:55Z</time>
      </trkpt>
      <trkpt lat="43.1702" lon="5.89131">
        <ele>377.15322875977</ele>
        <time>2009-06-25T05:46:00Z</time>
      </trkpt>
      <trkpt lat="43.17027" lon="5.89161">
        <ele>379.775390625</ele>
        <time>2009-06-25T05:46:06Z</time>
      </trkpt>
      <trkpt lat="43.17037" lon="5.89185">
        <ele>383.19570922852</ele>
        <time>2009-06-25T05:46:11Z</time>
      </trkpt>
      <trkpt lat="43.17044" lon="5.89212">
        <ele>382.80850219727</ele>
        <time>2009-06-25T05:46:17Z</time>
      </trkpt>
      <trkpt lat="43.17045" lon="5.89234">
        <ele>380.57919311523</ele>
        <time>2009-06-25T05:46:22Z</time>
      </trkpt>
      <trkpt lat="43.17039" lon="5.89267">
        <ele>372.96170043945</ele>
        <time>2009-06-25T05:46:29Z</time>
      </trkpt>
      <trkpt lat="43.17037" lon="5.89311">
        <ele>364.79150390625</ele>
        <time>2009-06-25T05:46:38Z</time>
      </trkpt>
      <trkpt lat="43.1704" lon="5.89334">
        <ele>364.56900024414</ele>
        <time>2009-06-25T05:46:42Z</time>
      </trkpt>
      <trkpt lat="43.17054" lon="5.89341">
        <ele>369.27603149414</ele>
        <time>2009-06-25T05:46:46Z</time>
      </trkpt>
      <trkpt lat="43.17057" lon="5.89334">
        <ele>372.45611572266</ele>
        <time>2009-06-25T05:46:48Z</time>
      </trkpt>
      <trkpt lat="43.17058" lon="5.8933">
        <ele>373.31799316406</ele>
        <time>2009-06-25T05:46:49Z</time>
      </trkpt>
      <trkpt lat="43.17057" lon="5.89295">
        <ele>378.08911132812</ele>
        <time>2009-06-25T05:46:57Z</time>
      </trkpt>
      <trkpt lat="43.1706" lon="5.89269">
        <ele>383.00280761719</ele>
        <time>2009-06-25T05:47:03Z</time>
      </trkpt>
      <trkpt lat="43.17067" lon="5.89243">
        <ele>389.97723388672</ele>
        <time>2009-06-25T05:47:09Z</time>
      </trkpt>
      <trkpt lat="43.1707" lon="5.89217">
        <ele>394.26858520508</ele>
        <time>2009-06-25T05:47:15Z</time>
      </trkpt>
      <trkpt lat="43.17068" lon="5.89192">
        <ele>396.84017944336</ele>
        <time>2009-06-25T05:47:21Z</time>
      </trkpt>
      <trkpt lat="43.17067" lon="5.89162">
        <ele>399.45425415039</ele>
        <time>2009-06-25T05:47:28Z</time>
      </trkpt>
      <trkpt lat="43.17069" lon="5.8913">
        <ele>401.58932495117</ele>
        <time>2009-06-25T05:47:35Z</time>
      </trkpt>
      <trkpt lat="43.17078" lon="5.89104">
        <ele>403.39590454102</ele>
        <time>2009-06-25T05:47:41Z</time>
      </trkpt>
      <trkpt lat="43.17083" lon="5.89088">
        <ele>404.85961914062</ele>
        <time>2009-06-25T05:47:45Z</time>
      </trkpt>
      <trkpt lat="43.17079" lon="5.89054">
        <ele>405.3219909668</ele>
        <time>2009-06-25T05:47:52Z</time>
      </trkpt>
      <trkpt lat="43.17076" lon="5.89027">
        <ele>405.65972900391</ele>
        <time>2009-06-25T05:47:58Z</time>
      </trkpt>
      <trkpt lat="43.17076" lon="5.88999">
        <ele>406.56573486328</ele>
        <time>2009-06-25T05:48:04Z</time>
      </trkpt>
      <trkpt lat="43.17078" lon="5.88966">
        <ele>407.98709106445</ele>
        <time>2009-06-25T05:48:11Z</time>
      </trkpt>
      <trkpt lat="43.1708" lon="5.88931">
        <ele>409.78100585938</ele>
        <time>2009-06-25T05:48:18Z</time>
      </trkpt>
      <trkpt lat="43.17076" lon="5.88904">
        <ele>408.27474975586</ele>
        <time>2009-06-25T05:48:24Z</time>
      </trkpt>
      <trkpt lat="43.17061" lon="5.88885">
        <ele>403.15795898438</ele>
        <time>2009-06-25T05:48:30Z</time>
      </trkpt>
      <trkpt lat="43.17044" lon="5.88863">
        <ele>397.16827392578</ele>
        <time>2009-06-25T05:48:37Z</time>
      </trkpt>
      <trkpt lat="43.17036" lon="5.88852">
        <ele>394.75396728516</ele>
        <time>2009-06-25T05:48:41Z</time>
      </trkpt>
      <trkpt lat="43.17038" lon="5.88844">
        <ele>394.96508789062</ele>
        <time>2009-06-25T05:48:44Z</time>
      </trkpt>
      <trkpt lat="43.17041" lon="5.88844">
        <ele>395.70495605469</ele>
        <time>2009-06-25T05:48:45Z</time>
      </trkpt>
      <trkpt lat="43.1705" lon="5.88846">
        <ele>398.01037597656</ele>
        <time>2009-06-25T05:48:49Z</time>
      </trkpt>
      <trkpt lat="43.17052" lon="5.88849">
        <ele>398.68670654297</ele>
        <time>2009-06-25T05:48:50Z</time>
      </trkpt>
      <trkpt lat="43.17065" lon="5.88862">
        <ele>402.04965209961</ele>
        <time>2009-06-25T05:48:55Z</time>
      </trkpt>
      <trkpt lat="43.17082" lon="5.88879">
        <ele>407.64541625977</ele>
        <time>2009-06-25T05:49:02Z</time>
      </trkpt>
      <trkpt lat="43.17096" lon="5.88897">
        <ele>414.3078918457</ele>
        <time>2009-06-25T05:49:08Z</time>
      </trkpt>
      <trkpt lat="43.17099" lon="5.88922">
        <ele>415.99157714844</ele>
        <time>2009-06-25T05:49:14Z</time>
      </trkpt>
      <trkpt lat="43.17101" lon="5.88946">
        <ele>416.44613647461</ele>
        <time>2009-06-25T05:49:19Z</time>
      </trkpt>
      <trkpt lat="43.17102" lon="5.88982">
        <ele>416.29830932617</ele>
        <time>2009-06-25T05:49:25Z</time>
      </trkpt>
      <trkpt lat="43.17106" lon="5.89015">
        <ele>417.63055419922</ele>
        <time>2009-06-25T05:49:31Z</time>
      </trkpt>
      <trkpt lat="43.17109" lon="5.89048">
        <ele>418.22967529297</ele>
        <time>2009-06-25T05:49:38Z</time>
      </trkpt>
      <trkpt lat="43.1711" lon="5.89079">
        <ele>417.00280761719</ele>
        <time>2009-06-25T05:49:44Z</time>
      </trkpt>
      <trkpt lat="43.17109" lon="5.89117">
        <ele>413.57565307617</ele>
        <time>2009-06-25T05:49:52Z</time>
      </trkpt>
      <trkpt lat="43.17113" lon="5.8914">
        <ele>413.59182739258</ele>
        <time>2009-06-25T05:49:58Z</time>
      </trkpt>
      <trkpt lat="43.17118" lon="5.89165">
        <ele>414.09301757812</ele>
        <time>2009-06-25T05:50:05Z</time>
      </trkpt>
      <trkpt lat="43.17125" lon="5.89198">
        <ele>414.19027709961</ele>
        <time>2009-06-25T05:50:14Z</time>
      </trkpt>
      <trkpt lat="43.17129" lon="5.89227">
        <ele>415.07000732422</ele>
        <time>2009-06-25T05:50:22Z</time>
      </trkpt>
      <trkpt lat="43.17128" lon="5.8925">
        <ele>412.86904907227</ele>
        <time>2009-06-25T05:50:28Z</time>
      </trkpt>
      <trkpt lat="43.17128" lon="5.8928">
        <ele>410.24926757812</ele>
        <time>2009-06-25T05:50:36Z</time>
      </trkpt>
      <trkpt lat="43.17129" lon="5.89304">
        <ele>407.73614501953</ele>
        <time>2009-06-25T05:50:43Z</time>
      </trkpt>
      <trkpt lat="43.17131" lon="5.89329">
        <ele>406.9323425293</ele>
        <time>2009-06-25T05:50:50Z</time>
      </trkpt>
      <trkpt lat="43.1714" lon="5.8936">
        <ele>407.45401000977</ele>
        <time>2009-06-25T05:50:58Z</time>
      </trkpt>
      <trkpt lat="43.17149" lon="5.89384">
        <ele>408.1955871582</ele>
        <time>2009-06-25T05:51:05Z</time>
      </trkpt>
      <trkpt lat="43.17166" lon="5.89397">
        <ele>413.20489501953</ele>
        <time>2009-06-25T05:51:12Z</time>
      </trkpt>
      <trkpt lat="43.17189" lon="5.89404">
        <ele>422.79483032227</ele>
        <time>2009-06-25T05:51:20Z</time>
      </trkpt>
      <trkpt lat="43.17207" lon="5.89414">
        <ele>431.24337768555</ele>
        <time>2009-06-25T05:51:27Z</time>
      </trkpt>
      <trkpt lat="43.17223" lon="5.8942">
        <ele>440.02261352539</ele>
        <time>2009-06-25T05:51:33Z</time>
      </trkpt>
      <trkpt lat="43.1724" lon="5.8943">
        <ele>446.65823364258</ele>
        <time>2009-06-25T05:51:40Z</time>
      </trkpt>
      <trkpt lat="43.17253" lon="5.89446">
        <ele>449.9606628418</ele>
        <time>2009-06-25T05:51:46Z</time>
      </trkpt>
      <trkpt lat="43.17256" lon="5.89459">
        <ele>450.08700561523</ele>
        <time>2009-06-25T05:51:50Z</time>
      </trkpt>
      <trkpt lat="43.17261" lon="5.8948">
        <ele>450.37438964844</ele>
        <time>2009-06-25T05:51:57Z</time>
      </trkpt>
      <trkpt lat="43.17265" lon="5.89505">
        <ele>448.65609741211</ele>
        <time>2009-06-25T05:52:05Z</time>
      </trkpt>
      <trkpt lat="43.1727" lon="5.89522">
        <ele>448.10342407227</ele>
        <time>2009-06-25T05:52:11Z</time>
      </trkpt>
      <trkpt lat="43.17276" lon="5.89541">
        <ele>447.5859375</ele>
        <time>2009-06-25T05:52:18Z</time>
      </trkpt>
      <trkpt lat="43.17276" lon="5.89564">
        <ele>443.5295715332</ele>
        <time>2009-06-25T05:52:25Z</time>
      </trkpt>
      <trkpt lat="43.17276" lon="5.89593">
        <ele>437.60708618164</ele>
        <time>2009-06-25T05:52:34Z</time>
      </trkpt>
      <trkpt lat="43.17284" lon="5.89614">
        <ele>437.28149414062</ele>
        <time>2009-06-25T05:52:41Z</time>
      </trkpt>
      <trkpt lat="43.17302" lon="5.89636">
        <ele>441.81918334961</ele>
        <time>2009-06-25T05:52:50Z</time>
      </trkpt>
      <trkpt lat="43.17319" lon="5.89653">
        <ele>442.41528320312</ele>
        <time>2009-06-25T05:52:58Z</time>
      </trkpt>
      <trkpt lat="43.17337" lon="5.89675">
        <ele>441.88043212891</ele>
        <time>2009-06-25T05:53:07Z</time>
      </trkpt>
      <trkpt lat="43.17349" lon="5.89697">
        <ele>440.64501953125</ele>
        <time>2009-06-25T05:53:15Z</time>
      </trkpt>
      <trkpt lat="43.17356" lon="5.89716">
        <ele>440.44769287109</ele>
        <time>2009-06-25T05:53:22Z</time>
      </trkpt>
      <trkpt lat="43.17369" lon="5.89739">
        <ele>440.58062744141</ele>
        <time>2009-06-25T05:53:32Z</time>
      </trkpt>
      <trkpt lat="43.1738" lon="5.89756">
        <ele>440.43508911133</ele>
        <time>2009-06-25T05:53:39Z</time>
      </trkpt>
      <trkpt lat="43.17394" lon="5.89766">
        <ele>442.90765380859</ele>
        <time>2009-06-25T05:53:46Z</time>
      </trkpt>
      <trkpt lat="43.17414" lon="5.89771">
        <ele>447.43264770508</ele>
        <time>2009-06-25T05:53:55Z</time>
      </trkpt>
      <trkpt lat="43.17431" lon="5.89776">
        <ele>451.97528076172</ele>
        <time>2009-06-25T05:54:02Z</time>
      </trkpt>
      <trkpt lat="43.17447" lon="5.89777">
        <ele>456.68341064453</ele>
        <time>2009-06-25T05:54:09Z</time>
      </trkpt>
      <trkpt lat="43.17466" lon="5.89774">
        <ele>461.44049072266</ele>
        <time>2009-06-25T05:54:17Z</time>
      </trkpt>
      <trkpt lat="43.17487" lon="5.8977">
        <ele>470.00274658203</ele>
        <time>2009-06-25T05:54:26Z</time>
      </trkpt>
      <trkpt lat="43.17505" lon="5.89773">
        <ele>477.04168701172</ele>
        <time>2009-06-25T05:54:33Z</time>
      </trkpt>
      <trkpt lat="43.17515" lon="5.8979">
        <ele>478.47180175781</ele>
        <time>2009-06-25T05:54:39Z</time>
      </trkpt>
      <trkpt lat="43.17521" lon="5.89814">
        <ele>477.47314453125</ele>
        <time>2009-06-25T05:54:47Z</time>
      </trkpt>
      <trkpt lat="43.17521" lon="5.89835">
        <ele>475.82434082031</ele>
        <time>2009-06-25T05:54:54Z</time>
      </trkpt>
      <trkpt lat="43.17518" lon="5.89859">
        <ele>471.84664916992</ele>
        <time>2009-06-25T05:55:03Z</time>
      </trkpt>
      <trkpt lat="43.17514" lon="5.89887">
        <ele>468.74575805664</ele>
        <time>2009-06-25T05:55:13Z</time>
      </trkpt>
      <trkpt lat="43.17514" lon="5.89912">
        <ele>465.56881713867</ele>
        <time>2009-06-25T05:55:21Z</time>
      </trkpt>
      <trkpt lat="43.17519" lon="5.89932">
        <ele>464.38424682617</ele>
        <time>2009-06-25T05:55:27Z</time>
      </trkpt>
      <trkpt lat="43.17534" lon="5.8996">
        <ele>464.69445800781</ele>
        <time>2009-06-25T05:55:37Z</time>
      </trkpt>
      <trkpt lat="43.1755" lon="5.89983">
        <ele>464.95062255859</ele>
        <time>2009-06-25T05:55:46Z</time>
      </trkpt>
      <trkpt lat="43.17569" lon="5.90001">
        <ele>464.79843139648</ele>
        <time>2009-06-25T05:55:56Z</time>
      </trkpt>
      <trkpt lat="43.17584" lon="5.90014">
        <ele>465.58767700195</ele>
        <time>2009-06-25T05:56:04Z</time>
      </trkpt>
      <trkpt lat="43.17604" lon="5.90031">
        <ele>467.13381958008</ele>
        <time>2009-06-25T05:56:13Z</time>
      </trkpt>
      <trkpt lat="43.1761" lon="5.90045">
        <ele>465.69186401367</ele>
        <time>2009-06-25T05:56:18Z</time>
      </trkpt>
      <trkpt lat="43.17619" lon="5.90076">
        <ele>461.75765991211</ele>
        <time>2009-06-25T05:56:28Z</time>
      </trkpt>
      <trkpt lat="43.1763" lon="5.90094">
        <ele>460.93765258789</ele>
        <time>2009-06-25T05:56:35Z</time>
      </trkpt>
      <trkpt lat="43.17646" lon="5.90106">
        <ele>462.00424194336</ele>
        <time>2009-06-25T05:56:42Z</time>
      </trkpt>
      <trkpt lat="43.17669" lon="5.90113">
        <ele>465.21557617188</ele>
        <time>2009-06-25T05:56:51Z</time>
      </trkpt>
      <trkpt lat="43.17687" lon="5.90119">
        <ele>467.30126953125</ele>
        <time>2009-06-25T05:56:59Z</time>
      </trkpt>
      <trkpt lat="43.17707" lon="5.90124">
        <ele>469.70974731445</ele>
        <time>2009-06-25T05:57:08Z</time>
      </trkpt>
      <trkpt lat="43.17725" lon="5.90129">
        <ele>471.81051635742</ele>
        <time>2009-06-25T05:57:16Z</time>
      </trkpt>
      <trkpt lat="43.17741" lon="5.90133">
        <ele>474.10403442383</ele>
        <time>2009-06-25T05:57:23Z</time>
      </trkpt>
      <trkpt lat="43.1776" lon="5.90136">
        <ele>477.2073059082</ele>
        <time>2009-06-25T05:57:30Z</time>
      </trkpt>
      <trkpt lat="43.17781" lon="5.90133">
        <ele>483.35733032227</ele>
        <time>2009-06-25T05:57:39Z</time>
      </trkpt>
      <trkpt lat="43.17806" lon="5.90131">
        <ele>495.83187866211</ele>
        <time>2009-06-25T05:57:49Z</time>
      </trkpt>
      <trkpt lat="43.17824" lon="5.90128">
        <ele>506.73452758789</ele>
        <time>2009-06-25T05:57:56Z</time>
      </trkpt>
      <trkpt lat="43.17855" lon="5.90116">
        <ele>518.37713623047</ele>
        <time>2009-06-25T05:58:08Z</time>
      </trkpt>
      <trkpt lat="43.17875" lon="5.90109">
        <ele>528.5751953125</ele>
        <time>2009-06-25T05:58:16Z</time>
      </trkpt>
      <trkpt lat="43.17891" lon="5.90106">
        <ele>537.89453125</ele>
        <time>2009-06-25T05:58:22Z</time>
      </trkpt>
      <trkpt lat="43.17917" lon="5.90107">
        <ele>553.22790527344</ele>
        <time>2009-06-25T05:58:31Z</time>
      </trkpt>
      <trkpt lat="43.17946" lon="5.9011">
        <ele>566.18225097656</ele>
        <time>2009-06-25T05:58:41Z</time>
      </trkpt>
      <trkpt lat="43.17958" lon="5.90122">
        <ele>570.09741210938</ele>
        <time>2009-06-25T05:58:47Z</time>
      </trkpt>
      <trkpt lat="43.17958" lon="5.90133">
        <ele>568.451171875</ele>
        <time>2009-06-25T05:58:51Z</time>
      </trkpt>
      <trkpt lat="43.17953" lon="5.90141">
        <ele>564.50262451172</ele>
        <time>2009-06-25T05:58:56Z</time>
      </trkpt>
      <trkpt lat="43.17941" lon="5.90158">
        <ele>555.80603027344</ele>
        <time>2009-06-25T05:59:03Z</time>
      </trkpt>
      <trkpt lat="43.17942" lon="5.90175">
        <ele>555.18695068359</ele>
        <time>2009-06-25T05:59:08Z</time>
      </trkpt>
      <trkpt lat="43.17954" lon="5.90196">
        <ele>560.12225341797</ele>
        <time>2009-06-25T05:59:16Z</time>
      </trkpt>
      <trkpt lat="43.17962" lon="5.90215">
        <ele>561.73052978516</ele>
        <time>2009-06-25T05:59:23Z</time>
      </trkpt>
      <trkpt lat="43.1797" lon="5.90236">
        <ele>563.30316162109</ele>
        <time>2009-06-25T05:59:30Z</time>
      </trkpt>
      <trkpt lat="43.17974" lon="5.90259">
        <ele>563.4951171875</ele>
        <time>2009-06-25T05:59:37Z</time>
      </trkpt>
      <trkpt lat="43.17974" lon="5.90292">
        <ele>561.53790283203</ele>
        <time>2009-06-25T05:59:47Z</time>
      </trkpt>
      <trkpt lat="43.17977" lon="5.90317">
        <ele>562.80853271484</ele>
        <time>2009-06-25T05:59:54Z</time>
      </trkpt>
      <trkpt lat="43.17986" lon="5.90347">
        <ele>568.61645507812</ele>
        <time>2009-06-25T06:00:02Z</time>
      </trkpt>
      <trkpt lat="43.17995" lon="5.90372">
        <ele>574.4775390625</ele>
        <time>2009-06-25T06:00:10Z</time>
      </trkpt>
      <trkpt lat="43.18008" lon="5.90402">
        <ele>581.43603515625</ele>
        <time>2009-06-25T06:00:20Z</time>
      </trkpt>
      <trkpt lat="43.18023" lon="5.90424">
        <ele>587.73229980469</ele>
        <time>2009-06-25T06:00:28Z</time>
      </trkpt>
      <trkpt lat="43.18027" lon="5.90442">
        <ele>588.83239746094</ele>
        <time>2009-06-25T06:00:34Z</time>
      </trkpt>
      <trkpt lat="43.18028" lon="5.90468">
        <ele>588.29681396484</ele>
        <time>2009-06-25T06:00:43Z</time>
      </trkpt>
      <trkpt lat="43.18033" lon="5.90496">
        <ele>589.07397460938</ele>
        <time>2009-06-25T06:00:52Z</time>
      </trkpt>
      <trkpt lat="43.18037" lon="5.90517">
        <ele>589.66357421875</ele>
        <time>2009-06-25T06:00:59Z</time>
      </trkpt>
      <trkpt lat="43.18041" lon="5.90531">
        <ele>590.10955810547</ele>
        <time>2009-06-25T06:01:04Z</time>
      </trkpt>
      <trkpt lat="43.18039" lon="5.9055">
        <ele>588.68133544922</ele>
        <time>2009-06-25T06:01:10Z</time>
      </trkpt>
      <trkpt lat="43.18031" lon="5.90556">
        <ele>586.14587402344</ele>
        <time>2009-06-25T06:01:14Z</time>
      </trkpt>
      <trkpt lat="43.18008" lon="5.90569">
        <ele>581.30914306641</ele>
        <time>2009-06-25T06:01:24Z</time>
      </trkpt>
      <trkpt lat="43.18001" lon="5.90582">
        <ele>580.11566162109</ele>
        <time>2009-06-25T06:01:29Z</time>
      </trkpt>
      <trkpt lat="43.17999" lon="5.90601">
        <ele>579.05639648438</ele>
        <time>2009-06-25T06:01:35Z</time>
      </trkpt>
      <trkpt lat="43.18" lon="5.90611">
        <ele>579.05017089844</ele>
        <time>2009-06-25T06:01:38Z</time>
      </trkpt>
      <trkpt lat="43.18009" lon="5.90614">
        <ele>580.20562744141</ele>
        <time>2009-06-25T06:01:42Z</time>
      </trkpt>
      <trkpt lat="43.18012" lon="5.90607">
        <ele>580.89392089844</ele>
        <time>2009-06-25T06:01:44Z</time>
      </trkpt>
      <trkpt lat="43.18023" lon="5.90591">
        <ele>583.09460449219</ele>
        <time>2009-06-25T06:01:50Z</time>
      </trkpt>
      <trkpt lat="43.18027" lon="5.90587">
        <ele>583.77099609375</ele>
        <time>2009-06-25T06:01:52Z</time>
      </trkpt>
      <trkpt lat="43.18037" lon="5.90586">
        <ele>587.38543701172</ele>
        <time>2009-06-25T06:01:56Z</time>
      </trkpt>
      <trkpt lat="43.18058" lon="5.90583">
        <ele>594.89904785156</ele>
        <time>2009-06-25T06:02:04Z</time>
      </trkpt>
      <trkpt lat="43.18071" lon="5.90574">
        <ele>601.22491455078</ele>
        <time>2009-06-25T06:02:10Z</time>
      </trkpt>
      <trkpt lat="43.18076" lon="5.90555">
        <ele>604.14398193359</ele>
        <time>2009-06-25T06:02:15Z</time>
      </trkpt>
      <trkpt lat="43.18077" lon="5.90532">
        <ele>606.16448974609</ele>
        <time>2009-06-25T06:02:22Z</time>
      </trkpt>
      <trkpt lat="43.18081" lon="5.90506">
        <ele>609.36041259766</ele>
        <time>2009-06-25T06:02:30Z</time>
      </trkpt>
      <trkpt lat="43.1809" lon="5.90477">
        <ele>615.69464111328</ele>
        <time>2009-06-25T06:02:39Z</time>
      </trkpt>
      <trkpt lat="43.18094" lon="5.90447">
        <ele>619.431640625</ele>
        <time>2009-06-25T06:02:48Z</time>
      </trkpt>
      <trkpt lat="43.18096" lon="5.90415">
        <ele>622.13793945312</ele>
        <time>2009-06-25T06:02:57Z</time>
      </trkpt>
      <trkpt lat="43.18094" lon="5.90391">
        <ele>622.09851074219</ele>
        <time>2009-06-25T06:03:04Z</time>
      </trkpt>
      <trkpt lat="43.18092" lon="5.90363">
        <ele>623.14642333984</ele>
        <time>2009-06-25T06:03:12Z</time>
      </trkpt>
      <trkpt lat="43.18094" lon="5.9033">
        <ele>624.552734375</ele>
        <time>2009-06-25T06:03:21Z</time>
      </trkpt>
      <trkpt lat="43.18095" lon="5.90297">
        <ele>625.48742675781</ele>
        <time>2009-06-25T06:03:30Z</time>
      </trkpt>
      <trkpt lat="43.18098" lon="5.90262">
        <ele>627.42639160156</ele>
        <time>2009-06-25T06:03:40Z</time>
      </trkpt>
      <trkpt lat="43.18109" lon="5.90237">
        <ele>633.65997314453</ele>
        <time>2009-06-25T06:03:48Z</time>
      </trkpt>
      <trkpt lat="43.18121" lon="5.9022">
        <ele>641.8779296875</ele>
        <time>2009-06-25T06:03:55Z</time>
      </trkpt>
      <trkpt lat="43.18128" lon="5.90197">
        <ele>647.35223388672</ele>
        <time>2009-06-25T06:04:02Z</time>
      </trkpt>
      <trkpt lat="43.18122" lon="5.90177">
        <ele>644.59875488281</ele>
        <time>2009-06-25T06:04:08Z</time>
      </trkpt>
      <trkpt lat="43.18116" lon="5.90146">
        <ele>641.50030517578</ele>
        <time>2009-06-25T06:04:17Z</time>
      </trkpt>
      <trkpt lat="43.1811" lon="5.90119">
        <ele>639.04876708984</ele>
        <time>2009-06-25T06:04:25Z</time>
      </trkpt>
      <trkpt lat="43.18112" lon="5.90093">
        <ele>640.68041992188</ele>
        <time>2009-06-25T06:04:32Z</time>
      </trkpt>
      <trkpt lat="43.18122" lon="5.90066">
        <ele>649.09411621094</ele>
        <time>2009-06-25T06:04:40Z</time>
      </trkpt>
      <trkpt lat="43.18127" lon="5.90039">
        <ele>654.52630615234</ele>
        <time>2009-06-25T06:04:47Z</time>
      </trkpt>
      <trkpt lat="43.18124" lon="5.90025">
        <ele>655.08074951172</ele>
        <time>2009-06-25T06:04:51Z</time>
      </trkpt>
      <trkpt lat="43.1811" lon="5.90009">
        <ele>651.75543212891</ele>
        <time>2009-06-25T06:04:58Z</time>
      </trkpt>
      <trkpt lat="43.18095" lon="5.89995">
        <ele>647.3017578125</ele>
        <time>2009-06-25T06:05:05Z</time>
      </trkpt>
      <trkpt lat="43.1808" lon="5.89977">
        <ele>644.72467041016</ele>
        <time>2009-06-25T06:05:13Z</time>
      </trkpt>
      <trkpt lat="43.18069" lon="5.8996">
        <ele>643.38092041016</ele>
        <time>2009-06-25T06:05:20Z</time>
      </trkpt>
      <trkpt lat="43.18055" lon="5.89946">
        <ele>641.41351318359</ele>
        <time>2009-06-25T06:05:26Z</time>
      </trkpt>
      <trkpt lat="43.18051" lon="5.89938">
        <ele>640.39624023438</ele>
        <time>2009-06-25T06:05:29Z</time>
      </trkpt>
      <trkpt lat="43.18056" lon="5.89929">
        <ele>644.40325927734</ele>
        <time>2009-06-25T06:05:33Z</time>
      </trkpt>
      <trkpt lat="43.18066" lon="5.89936">
        <ele>646.68487548828</ele>
        <time>2009-06-25T06:05:37Z</time>
      </trkpt>
      <trkpt lat="43.18068" lon="5.89939">
        <ele>647.02087402344</ele>
        <time>2009-06-25T06:05:38Z</time>
      </trkpt>
      <trkpt lat="43.18082" lon="5.89954">
        <ele>649.72692871094</ele>
        <time>2009-06-25T06:05:45Z</time>
      </trkpt>
      <trkpt lat="43.18095" lon="5.89968">
        <ele>651.90026855469</ele>
        <time>2009-06-25T06:05:52Z</time>
      </trkpt>
      <trkpt lat="43.18112" lon="5.89977">
        <ele>656.71624755859</ele>
        <time>2009-06-25T06:05:59Z</time>
      </trkpt>
      <trkpt lat="43.18132" lon="5.89986">
        <ele>664.00506591797</ele>
        <time>2009-06-25T06:06:07Z</time>
      </trkpt>
      <trkpt lat="43.1815" lon="5.89994">
        <ele>674.27587890625</ele>
        <time>2009-06-25T06:06:14Z</time>
      </trkpt>
      <trkpt lat="43.1816" lon="5.9001">
        <ele>680.06829833984</ele>
        <time>2009-06-25T06:06:20Z</time>
      </trkpt>
      <trkpt lat="43.18163" lon="5.90031">
        <ele>678.99304199219</ele>
        <time>2009-06-25T06:06:26Z</time>
      </trkpt>
      <trkpt lat="43.18162" lon="5.90057">
        <ele>674.357421875</ele>
        <time>2009-06-25T06:06:33Z</time>
      </trkpt>
      <trkpt lat="43.18167" lon="5.9009">
        <ele>672.04418945312</ele>
        <time>2009-06-25T06:06:43Z</time>
      </trkpt>
      <trkpt lat="43.18174" lon="5.90117">
        <ele>672.53271484375</ele>
        <time>2009-06-25T06:06:51Z</time>
      </trkpt>
      <trkpt lat="43.18185" lon="5.90141">
        <ele>675.78796386719</ele>
        <time>2009-06-25T06:06:59Z</time>
      </trkpt>
      <trkpt lat="43.182" lon="5.9017">
        <ele>681.29815673828</ele>
        <time>2009-06-25T06:07:08Z</time>
      </trkpt>
      <trkpt lat="43.18206" lon="5.90196">
        <ele>683.12121582031</ele>
        <time>2009-06-25T06:07:15Z</time>
      </trkpt>
      <trkpt lat="43.18202" lon="5.90222">
        <ele>679.06994628906</ele>
        <time>2009-06-25T06:07:22Z</time>
      </trkpt>
      <trkpt lat="43.18197" lon="5.9025">
        <ele>674.66253662109</ele>
        <time>2009-06-25T06:07:30Z</time>
      </trkpt>
      <trkpt lat="43.18195" lon="5.90287">
        <ele>673.03649902344</ele>
        <time>2009-06-25T06:07:40Z</time>
      </trkpt>
      <trkpt lat="43.18198" lon="5.90317">
        <ele>674.70202636719</ele>
        <time>2009-06-25T06:07:48Z</time>
      </trkpt>
      <trkpt lat="43.18208" lon="5.90349">
        <ele>681.20782470703</ele>
        <time>2009-06-25T06:07:57Z</time>
      </trkpt>
      <trkpt lat="43.18221" lon="5.90391">
        <ele>690.23687744141</ele>
        <time>2009-06-25T06:08:09Z</time>
      </trkpt>
      <trkpt lat="43.18228" lon="5.90419">
        <ele>695.91510009766</ele>
        <time>2009-06-25T06:08:17Z</time>
      </trkpt>
      <trkpt lat="43.18238" lon="5.90445">
        <ele>706.6708984375</ele>
        <time>2009-06-25T06:08:25Z</time>
      </trkpt>
      <trkpt lat="43.18242" lon="5.90465">
        <ele>710.51672363281</ele>
        <time>2009-06-25T06:08:31Z</time>
      </trkpt>
      <trkpt lat="43.18243" lon="5.90486">
        <ele>712.05529785156</ele>
        <time>2009-06-25T06:08:37Z</time>
      </trkpt>
      <trkpt lat="43.18243" lon="5.90507">
        <ele>711.53125</ele>
        <time>2009-06-25T06:08:43Z</time>
      </trkpt>
      <trkpt lat="43.18244" lon="5.90521">
        <ele>713.02233886719</ele>
        <time>2009-06-25T06:08:47Z</time>
      </trkpt>
      <trkpt lat="43.18252" lon="5.90523">
        <ele>721.09069824219</ele>
        <time>2009-06-25T06:08:51Z</time>
      </trkpt>
      <trkpt lat="43.18253" lon="5.90513">
        <ele>721.51940917969</ele>
        <time>2009-06-25T06:08:54Z</time>
      </trkpt>
      <trkpt lat="43.18253" lon="5.90501">
        <ele>721.91839599609</ele>
        <time>2009-06-25T06:08:57Z</time>
      </trkpt>
      <trkpt lat="43.18255" lon="5.90472">
        <ele>722.82458496094</ele>
        <time>2009-06-25T06:09:05Z</time>
      </trkpt>
      <trkpt lat="43.18255" lon="5.9045">
        <ele>722.47869873047</ele>
        <time>2009-06-25T06:09:12Z</time>
      </trkpt>
      <trkpt lat="43.18258" lon="5.90415">
        <ele>723.77838134766</ele>
        <time>2009-06-25T06:09:21Z</time>
      </trkpt>
      <trkpt lat="43.18259" lon="5.90384">
        <ele>724.07092285156</ele>
        <time>2009-06-25T06:09:29Z</time>
      </trkpt>
      <trkpt lat="43.18265" lon="5.9035">
        <ele>725.33831787109</ele>
        <time>2009-06-25T06:09:38Z</time>
      </trkpt>
      <trkpt lat="43.18268" lon="5.90316">
        <ele>725.982421875</ele>
        <time>2009-06-25T06:09:47Z</time>
      </trkpt>
      <trkpt lat="43.18274" lon="5.90285">
        <ele>728.02209472656</ele>
        <time>2009-06-25T06:09:55Z</time>
      </trkpt>
      <trkpt lat="43.18282" lon="5.90255">
        <ele>732.12469482422</ele>
        <time>2009-06-25T06:10:03Z</time>
      </trkpt>
      <trkpt lat="43.18288" lon="5.90223">
        <ele>733.81658935547</ele>
        <time>2009-06-25T06:10:12Z</time>
      </trkpt>
      <trkpt lat="43.18294" lon="5.90199">
        <ele>735.16326904297</ele>
        <time>2009-06-25T06:10:19Z</time>
      </trkpt>
      <trkpt lat="43.18295" lon="5.90173">
        <ele>734.64331054688</ele>
        <time>2009-06-25T06:10:26Z</time>
      </trkpt>
      <trkpt lat="43.18291" lon="5.90144">
        <ele>731.58898925781</ele>
        <time>2009-06-25T06:10:33Z</time>
      </trkpt>
      <trkpt lat="43.18288" lon="5.9011">
        <ele>728.41326904297</ele>
        <time>2009-06-25T06:10:42Z</time>
      </trkpt>
      <trkpt lat="43.18283" lon="5.90071">
        <ele>725.59790039062</ele>
        <time>2009-06-25T06:10:52Z</time>
      </trkpt>
      <trkpt lat="43.18285" lon="5.90042">
        <ele>724.67962646484</ele>
        <time>2009-06-25T06:10:59Z</time>
      </trkpt>
      <trkpt lat="43.1829" lon="5.90011">
        <ele>723.5732421875</ele>
        <time>2009-06-25T06:11:07Z</time>
      </trkpt>
      <trkpt lat="43.18299" lon="5.90009">
        <ele>723.56201171875</ele>
        <time>2009-06-25T06:11:11Z</time>
      </trkpt>
      <trkpt lat="43.183" lon="5.9002">
        <ele>724.27374267578</ele>
        <time>2009-06-25T06:11:14Z</time>
      </trkpt>
      <trkpt lat="43.183" lon="5.90047">
        <ele>726.46862792969</ele>
        <time>2009-06-25T06:11:22Z</time>
      </trkpt>
      <trkpt lat="43.18308" lon="5.90072">
        <ele>729.15386962891</ele>
        <time>2009-06-25T06:11:30Z</time>
      </trkpt>
      <trkpt lat="43.18319" lon="5.90098">
        <ele>729.52429199219</ele>
        <time>2009-06-25T06:11:38Z</time>
      </trkpt>
      <trkpt lat="43.18326" lon="5.90132">
        <ele>732.06207275391</ele>
        <time>2009-06-25T06:11:48Z</time>
      </trkpt>
      <trkpt lat="43.18333" lon="5.90161">
        <ele>735.16516113281</ele>
        <time>2009-06-25T06:11:57Z</time>
      </trkpt>
      <trkpt lat="43.18338" lon="5.90186">
        <ele>734.4443359375</ele>
        <time>2009-06-25T06:12:04Z</time>
      </trkpt>
      <trkpt lat="43.18335" lon="5.90209">
        <ele>738.46405029297</ele>
        <time>2009-06-25T06:12:10Z</time>
      </trkpt>
      <trkpt lat="43.1833" lon="5.90237">
        <ele>742.20434570312</ele>
        <time>2009-06-25T06:12:17Z</time>
      </trkpt>
      <trkpt lat="43.18324" lon="5.90275">
        <ele>744.22082519531</ele>
        <time>2009-06-25T06:12:27Z</time>
      </trkpt>
      <trkpt lat="43.18324" lon="5.90296">
        <ele>745.62976074219</ele>
        <time>2009-06-25T06:12:33Z</time>
      </trkpt>
      <trkpt lat="43.18327" lon="5.90323">
        <ele>747.33874511719</ele>
        <time>2009-06-25T06:12:41Z</time>
      </trkpt>
      <trkpt lat="43.18329" lon="5.90355">
        <ele>749.54736328125</ele>
        <time>2009-06-25T06:12:50Z</time>
      </trkpt>
      <trkpt lat="43.18331" lon="5.90382">
        <ele>751.49743652344</ele>
        <time>2009-06-25T06:12:57Z</time>
      </trkpt>
      <trkpt lat="43.18337" lon="5.90422">
        <ele>752.75360107422</ele>
        <time>2009-06-25T06:13:08Z</time>
      </trkpt>
      <trkpt lat="43.18344" lon="5.90459">
        <ele>755.52777099609</ele>
        <time>2009-06-25T06:13:18Z</time>
      </trkpt>
      <trkpt lat="43.18351" lon="5.90496">
        <ele>759.29351806641</ele>
        <time>2009-06-25T06:13:28Z</time>
      </trkpt>
      <trkpt lat="43.18356" lon="5.9053">
        <ele>763.86712646484</ele>
        <time>2009-06-25T06:13:37Z</time>
      </trkpt>
      <trkpt lat="43.18361" lon="5.90554">
        <ele>767.68505859375</ele>
        <time>2009-06-25T06:13:44Z</time>
      </trkpt>
      <trkpt lat="43.18367" lon="5.90577">
        <ele>769.46051025391</ele>
        <time>2009-06-25T06:13:51Z</time>
      </trkpt>
      <trkpt lat="43.18376" lon="5.90615">
        <ele>775.95031738281</ele>
        <time>2009-06-25T06:14:02Z</time>
      </trkpt>
      <trkpt lat="43.18383" lon="5.90645">
        <ele>785.57952880859</ele>
        <time>2009-06-25T06:14:11Z</time>
      </trkpt>
      <trkpt lat="43.18391" lon="5.90675">
        <ele>796.44354248047</ele>
        <time>2009-06-25T06:14:20Z</time>
      </trkpt>
      <trkpt lat="43.18395" lon="5.90703">
        <ele>800</ele>
        <time>2009-06-25T06:14:28Z</time>
      </trkpt>
      <trkpt lat="43.18391" lon="5.90733">
        <ele>800</ele>
        <time>2009-06-25T06:14:36Z</time>
      </trkpt>
      <trkpt lat="43.18387" lon="5.90764">
        <ele>799.80853271484</ele>
        <time>2009-06-25T06:14:45Z</time>
      </trkpt>
      <trkpt lat="43.1838" lon="5.90791">
        <ele>797.61291503906</ele>
        <time>2009-06-25T06:14:52Z</time>
      </trkpt>
      <trkpt lat="43.18377" lon="5.90823">
        <ele>791.44274902344</ele>
        <time>2009-06-25T06:15:00Z</time>
      </trkpt>
      <trkpt lat="43.18375" lon="5.90853">
        <ele>780.1611328125</ele>
        <time>2009-06-25T06:15:08Z</time>
      </trkpt>
      <trkpt lat="43.18367" lon="5.90878">
        <ele>769.15997314453</ele>
        <time>2009-06-25T06:15:15Z</time>
      </trkpt>
      <trkpt lat="43.18363" lon="5.909">
        <ele>761.16333007812</ele>
        <time>2009-06-25T06:15:21Z</time>
      </trkpt>
      <trkpt lat="43.18369" lon="5.90909">
        <ele>760.07348632812</ele>
        <time>2009-06-25T06:15:25Z</time>
      </trkpt>
      <trkpt lat="43.18372" lon="5.90905">
        <ele>763.01745605469</ele>
        <time>2009-06-25T06:15:27Z</time>
      </trkpt>
      <trkpt lat="43.18388" lon="5.90869">
        <ele>781.44885253906</ele>
        <time>2009-06-25T06:15:37Z</time>
      </trkpt>
      <trkpt lat="43.18398" lon="5.90841">
        <ele>794.22479248047</ele>
        <time>2009-06-25T06:15:45Z</time>
      </trkpt>
      <trkpt lat="43.18401" lon="5.90828">
        <ele>798.14172363281</ele>
        <time>2009-06-25T06:15:49Z</time>
      </trkpt>
      <trkpt lat="43.18405" lon="5.90827">
        <ele>798.69879150391</ele>
        <time>2009-06-25T06:15:53Z</time>
      </trkpt>
      <trkpt lat="43.18404" lon="5.90833">
        <ele>798.27764892578</ele>
        <time>2009-06-25T06:15:55Z</time>
      </trkpt>
      <trkpt lat="43.18395" lon="5.90862">
        <ele>784.99694824219</ele>
        <time>2009-06-25T06:16:03Z</time>
      </trkpt>
      <trkpt lat="43.1839" lon="5.90886">
        <ele>777.12127685547</ele>
        <time>2009-06-25T06:16:09Z</time>
      </trkpt>
      <trkpt lat="43.18386" lon="5.90903">
        <ele>769.04986572266</ele>
        <time>2009-06-25T06:16:14Z</time>
      </trkpt>
      <trkpt lat="43.18384" lon="5.9092">
        <ele>761.33685302734</ele>
        <time>2009-06-25T06:16:20Z</time>
      </trkpt>
      <trkpt lat="43.18383" lon="5.90935">
        <ele>756.21868896484</ele>
        <time>2009-06-25T06:16:25Z</time>
      </trkpt>
      <trkpt lat="43.18388" lon="5.90934">
        <ele>758.27209472656</ele>
        <time>2009-06-25T06:16:29Z</time>
      </trkpt>
      <trkpt lat="43.18389" lon="5.90931">
        <ele>759.40081787109</ele>
        <time>2009-06-25T06:16:30Z</time>
      </trkpt>
      <trkpt lat="43.18396" lon="5.90914">
        <ele>767.18041992188</ele>
        <time>2009-06-25T06:16:37Z</time>
      </trkpt>
      <trkpt lat="43.18407" lon="5.90901">
        <ele>776.10681152344</ele>
        <time>2009-06-25T06:16:43Z</time>
      </trkpt>
      <trkpt lat="43.18415" lon="5.9088">
        <ele>785.28753662109</ele>
        <time>2009-06-25T06:16:49Z</time>
      </trkpt>
      <trkpt lat="43.18427" lon="5.90854">
        <ele>793.54833984375</ele>
        <time>2009-06-25T06:16:57Z</time>
      </trkpt>
      <trkpt lat="43.18434" lon="5.90824">
        <ele>800</ele>
        <time>2009-06-25T06:17:06Z</time>
      </trkpt>
      <trkpt lat="43.18441" lon="5.90806">
        <ele>800</ele>
        <time>2009-06-25T06:17:12Z</time>
      </trkpt>
      <trkpt lat="43.18448" lon="5.90806">
        <ele>800</ele>
        <time>2009-06-25T06:17:16Z</time>
      </trkpt>
      <trkpt lat="43.18452" lon="5.90808">
        <ele>800</ele>
        <time>2009-06-25T06:17:20Z</time>
      </trkpt>
      <trkpt lat="43.18452" lon="5.90809">
        <ele>800</ele>
        <time>2009-06-25T06:17:22Z</time>
      </trkpt>
      <trkpt lat="43.18436" lon="5.90808">
        <ele>800</ele>
        <time>2009-06-25T06:21:12Z</time>
      </trkpt>
      <trkpt lat="43.18435" lon="5.90811">
        <ele>800</ele>
        <time>2009-06-25T06:21:13Z</time>
      </trkpt>
      <trkpt lat="43.18433" lon="5.90817">
        <ele>800</ele>
        <time>2009-06-25T06:21:18Z</time>
      </trkpt>
      <trkpt lat="43.18429" lon="5.90829">
        <ele>800</ele>
        <time>2009-06-25T06:21:23Z</time>
      </trkpt>
      <trkpt lat="43.18425" lon="5.90847">
        <ele>795.72509765625</ele>
        <time>2009-06-25T06:21:27Z</time>
      </trkpt>
      <trkpt lat="43.18412" lon="5.9088">
        <ele>784.75061035156</ele>
        <time>2009-06-25T06:21:33Z</time>
      </trkpt>
      <trkpt lat="43.18409" lon="5.90891">
        <ele>780.97509765625</ele>
        <time>2009-06-25T06:21:35Z</time>
      </trkpt>
      <trkpt lat="43.18403" lon="5.90903">
        <ele>774.08117675781</ele>
        <time>2009-06-25T06:21:38Z</time>
      </trkpt>
      <trkpt lat="43.18388" lon="5.90927">
        <ele>760.57983398438</ele>
        <time>2009-06-25T06:21:45Z</time>
      </trkpt>
      <trkpt lat="43.18386" lon="5.90937">
        <ele>756.77191162109</ele>
        <time>2009-06-25T06:21:48Z</time>
      </trkpt>
      <trkpt lat="43.18382" lon="5.90933">
        <ele>756.63018798828</ele>
        <time>2009-06-25T06:21:52Z</time>
      </trkpt>
      <trkpt lat="43.18385" lon="5.90899">
        <ele>769.75469970703</ele>
        <time>2009-06-25T06:21:58Z</time>
      </trkpt>
      <trkpt lat="43.18389" lon="5.90869">
        <ele>781.77038574219</ele>
        <time>2009-06-25T06:22:02Z</time>
      </trkpt>
      <trkpt lat="43.18398" lon="5.9083">
        <ele>797.6220703125</ele>
        <time>2009-06-25T06:22:07Z</time>
      </trkpt>
      <trkpt lat="43.18395" lon="5.90823">
        <ele>798.08483886719</ele>
        <time>2009-06-25T06:22:11Z</time>
      </trkpt>
      <trkpt lat="43.18394" lon="5.90827">
        <ele>797.50640869141</ele>
        <time>2009-06-25T06:22:12Z</time>
      </trkpt>
      <trkpt lat="43.18386" lon="5.9086">
        <ele>782.9892578125</ele>
        <time>2009-06-25T06:22:17Z</time>
      </trkpt>
      <trkpt lat="43.18374" lon="5.90901">
        <ele>765.04333496094</ele>
        <time>2009-06-25T06:22:22Z</time>
      </trkpt>
      <trkpt lat="43.18367" lon="5.90911">
        <ele>758.90557861328</ele>
        <time>2009-06-25T06:22:26Z</time>
      </trkpt>
      <trkpt lat="43.18367" lon="5.90903">
        <ele>761.56921386719</ele>
        <time>2009-06-25T06:22:28Z</time>
      </trkpt>
      <trkpt lat="43.18369" lon="5.90901">
        <ele>763.22778320312</ele>
        <time>2009-06-25T06:22:33Z</time>
      </trkpt>
      <trkpt lat="43.18372" lon="5.90905">
        <ele>762.59582519531</ele>
        <time>2009-06-25T06:22:44Z</time>
      </trkpt>
      <trkpt lat="43.18372" lon="5.90904">
        <ele>763.18707275391</ele>
        <time>2009-06-25T06:22:55Z</time>
      </trkpt>
      <trkpt lat="43.18375" lon="5.90886">
        <ele>770.46612548828</ele>
        <time>2009-06-25T06:22:59Z</time>
      </trkpt>
      <trkpt lat="43.18382" lon="5.90853">
        <ele>783.57568359375</ele>
        <time>2009-06-25T06:23:04Z</time>
      </trkpt>
      <trkpt lat="43.18383" lon="5.90831">
        <ele>793.048828125</ele>
        <time>2009-06-25T06:23:07Z</time>
      </trkpt>
      <trkpt lat="43.18387" lon="5.90783">
        <ele>799.55310058594</ele>
        <time>2009-06-25T06:23:13Z</time>
      </trkpt>
      <trkpt lat="43.18396" lon="5.90731">
        <ele>800</ele>
        <time>2009-06-25T06:23:20Z</time>
      </trkpt>
      <trkpt lat="43.18398" lon="5.90713">
        <ele>800</ele>
        <time>2009-06-25T06:23:23Z</time>
      </trkpt>
      <trkpt lat="43.18398" lon="5.90698">
        <ele>800</ele>
        <time>2009-06-25T06:23:26Z</time>
      </trkpt>
      <trkpt lat="43.18395" lon="5.90681">
        <ele>797.55932617188</ele>
        <time>2009-06-25T06:23:31Z</time>
      </trkpt>
      <trkpt lat="43.18392" lon="5.90667">
        <ele>795.10461425781</ele>
        <time>2009-06-25T06:23:36Z</time>
      </trkpt>
      <trkpt lat="43.18385" lon="5.9064">
        <ele>784.44836425781</ele>
        <time>2009-06-25T06:23:41Z</time>
      </trkpt>
      <trkpt lat="43.18377" lon="5.90608">
        <ele>774.55639648438</ele>
        <time>2009-06-25T06:23:45Z</time>
      </trkpt>
      <trkpt lat="43.18365" lon="5.90552">
        <ele>767.18579101562</ele>
        <time>2009-06-25T06:23:50Z</time>
      </trkpt>
      <trkpt lat="43.18356" lon="5.90486">
        <ele>758.41314697266</ele>
        <time>2009-06-25T06:23:55Z</time>
      </trkpt>
      <trkpt lat="43.18337" lon="5.90375">
        <ele>749.84808349609</ele>
        <time>2009-06-25T06:24:03Z</time>
      </trkpt>
      <trkpt lat="43.18335" lon="5.90292">
        <ele>744.58190917969</ele>
        <time>2009-06-25T06:24:09Z</time>
      </trkpt>
      <trkpt lat="43.18344" lon="5.90215">
        <ele>734.10034179688</ele>
        <time>2009-06-25T06:24:15Z</time>
      </trkpt>
      <trkpt lat="43.18346" lon="5.90204">
        <ele>731.88555908203</ele>
        <time>2009-06-25T06:24:16Z</time>
      </trkpt>
      <trkpt lat="43.18341" lon="5.90161">
        <ele>730.9697265625</ele>
        <time>2009-06-25T06:24:20Z</time>
      </trkpt>
      <trkpt lat="43.18329" lon="5.90112">
        <ele>728.93768310547</ele>
        <time>2009-06-25T06:24:24Z</time>
      </trkpt>
      <trkpt lat="43.18307" lon="5.90053">
        <ele>727.43115234375</ele>
        <time>2009-06-25T06:24:29Z</time>
      </trkpt>
      <trkpt lat="43.18301" lon="5.90013">
        <ele>723.88958740234</ele>
        <time>2009-06-25T06:24:33Z</time>
      </trkpt>
      <trkpt lat="43.18296" lon="5.90005">
        <ele>723.28564453125</ele>
        <time>2009-06-25T06:24:35Z</time>
      </trkpt>
      <trkpt lat="43.18285" lon="5.90009">
        <ele>723.41137695312</ele>
        <time>2009-06-25T06:24:38Z</time>
      </trkpt>
      <trkpt lat="43.18284" lon="5.90014">
        <ele>723.62438964844</ele>
        <time>2009-06-25T06:24:39Z</time>
      </trkpt>
      <trkpt lat="43.18276" lon="5.90052">
        <ele>723.83117675781</ele>
        <time>2009-06-25T06:24:44Z</time>
      </trkpt>
      <trkpt lat="43.1828" lon="5.90101">
        <ele>726.18328857422</ele>
        <time>2009-06-25T06:24:49Z</time>
      </trkpt>
      <trkpt lat="43.1829" lon="5.90167">
        <ele>732.11987304688</ele>
        <time>2009-06-25T06:24:55Z</time>
      </trkpt>
      <trkpt lat="43.18286" lon="5.90212">
        <ele>732.44989013672</ele>
        <time>2009-06-25T06:24:59Z</time>
      </trkpt>
      <trkpt lat="43.18261" lon="5.90295">
        <ele>721.92980957031</ele>
        <time>2009-06-25T06:25:06Z</time>
      </trkpt>
      <trkpt lat="43.18249" lon="5.90385">
        <ele>718.54718017578</ele>
        <time>2009-06-25T06:25:13Z</time>
      </trkpt>
      <trkpt lat="43.18247" lon="5.90448">
        <ele>716.87310791016</ele>
        <time>2009-06-25T06:25:18Z</time>
      </trkpt>
      <trkpt lat="43.18251" lon="5.90506">
        <ele>720.82751464844</ele>
        <time>2009-06-25T06:25:23Z</time>
      </trkpt>
      <trkpt lat="43.18251" lon="5.90523">
        <ele>720.39721679688</ele>
        <time>2009-06-25T06:25:27Z</time>
      </trkpt>
      <trkpt lat="43.1825" lon="5.90523">
        <ele>720.16619873047</ele>
        <time>2009-06-25T06:25:28Z</time>
      </trkpt>
      <trkpt lat="43.18248" lon="5.90501">
        <ele>718.00402832031</ele>
        <time>2009-06-25T06:25:31Z</time>
      </trkpt>
      <trkpt lat="43.18249" lon="5.90491">
        <ele>718.48388671875</ele>
        <time>2009-06-25T06:25:32Z</time>
      </trkpt>
      <trkpt lat="43.18237" lon="5.90423">
        <ele>706.17840576172</ele>
        <time>2009-06-25T06:25:38Z</time>
      </trkpt>
      <trkpt lat="43.1822" lon="5.9036">
        <ele>689.22937011719</ele>
        <time>2009-06-25T06:25:43Z</time>
      </trkpt>
      <trkpt lat="43.18205" lon="5.90308">
        <ele>679.39868164062</ele>
        <time>2009-06-25T06:25:47Z</time>
      </trkpt>
      <trkpt lat="43.18204" lon="5.90295">
        <ele>678.71850585938</ele>
        <time>2009-06-25T06:25:48Z</time>
      </trkpt>
      <trkpt lat="43.18207" lon="5.9023">
        <ele>682.10302734375</ele>
        <time>2009-06-25T06:25:53Z</time>
      </trkpt>
      <trkpt lat="43.18208" lon="5.90217">
        <ele>683.38555908203</ele>
        <time>2009-06-25T06:25:54Z</time>
      </trkpt>
      <trkpt lat="43.18201" lon="5.90169">
        <ele>682.38989257812</ele>
        <time>2009-06-25T06:25:58Z</time>
      </trkpt>
      <trkpt lat="43.18181" lon="5.90123">
        <ele>676.05236816406</ele>
        <time>2009-06-25T06:26:02Z</time>
      </trkpt>
      <trkpt lat="43.18168" lon="5.90072">
        <ele>675.91656494141</ele>
        <time>2009-06-25T06:26:06Z</time>
      </trkpt>
      <trkpt lat="43.18166" lon="5.90023">
        <ele>682.85748291016</ele>
        <time>2009-06-25T06:26:10Z</time>
      </trkpt>
      <trkpt lat="43.1815" lon="5.89988">
        <ele>675.49682617188</ele>
        <time>2009-06-25T06:26:14Z</time>
      </trkpt>
      <trkpt lat="43.18134" lon="5.89979">
        <ele>666.48529052734</ele>
        <time>2009-06-25T06:26:16Z</time>
      </trkpt>
      <trkpt lat="43.18078" lon="5.89949">
        <ele>649.19000244141</ele>
        <time>2009-06-25T06:26:22Z</time>
      </trkpt>
      <trkpt lat="43.18071" lon="5.89942">
        <ele>647.67047119141</ele>
        <time>2009-06-25T06:26:23Z</time>
      </trkpt>
      <trkpt lat="43.18052" lon="5.89927">
        <ele>642.57934570312</ele>
        <time>2009-06-25T06:26:27Z</time>
      </trkpt>
      <trkpt lat="43.18049" lon="5.89938">
        <ele>639.6884765625</ele>
        <time>2009-06-25T06:26:29Z</time>
      </trkpt>
      <trkpt lat="43.18055" lon="5.89949">
        <ele>640.78863525391</ele>
        <time>2009-06-25T06:26:31Z</time>
      </trkpt>
      <trkpt lat="43.1809" lon="5.8999">
        <ele>646.34362792969</ele>
        <time>2009-06-25T06:26:37Z</time>
      </trkpt>
      <trkpt lat="43.18113" lon="5.90011">
        <ele>652.35815429688</ele>
        <time>2009-06-25T06:26:40Z</time>
      </trkpt>
      <trkpt lat="43.18124" lon="5.90041">
        <ele>653.00341796875</ele>
        <time>2009-06-25T06:26:44Z</time>
      </trkpt>
      <trkpt lat="43.18114" lon="5.9007">
        <ele>644.09936523438</ele>
        <time>2009-06-25T06:26:47Z</time>
      </trkpt>
      <trkpt lat="43.18108" lon="5.90126">
        <ele>637.85656738281</ele>
        <time>2009-06-25T06:26:52Z</time>
      </trkpt>
      <trkpt lat="43.18122" lon="5.90184">
        <ele>644.34130859375</ele>
        <time>2009-06-25T06:26:57Z</time>
      </trkpt>
      <trkpt lat="43.18115" lon="5.90217">
        <ele>638.47387695312</ele>
        <time>2009-06-25T06:27:01Z</time>
      </trkpt>
      <trkpt lat="43.18093" lon="5.90267">
        <ele>624.92700195312</ele>
        <time>2009-06-25T06:27:06Z</time>
      </trkpt>
      <trkpt lat="43.18092" lon="5.9028">
        <ele>624.3056640625</ele>
        <time>2009-06-25T06:27:07Z</time>
      </trkpt>
      <trkpt lat="43.18089" lon="5.90373">
        <ele>621.22064208984</ele>
        <time>2009-06-25T06:27:14Z</time>
      </trkpt>
      <trkpt lat="43.18089" lon="5.90444">
        <ele>617.60119628906</ele>
        <time>2009-06-25T06:27:19Z</time>
      </trkpt>
      <trkpt lat="43.18082" lon="5.90481">
        <ele>611.64654541016</ele>
        <time>2009-06-25T06:27:22Z</time>
      </trkpt>
      <trkpt lat="43.18075" lon="5.90542">
        <ele>604.50524902344</ele>
        <time>2009-06-25T06:27:27Z</time>
      </trkpt>
      <trkpt lat="43.18069" lon="5.9057">
        <ele>600.47009277344</ele>
        <time>2009-06-25T06:27:30Z</time>
      </trkpt>
      <trkpt lat="43.18052" lon="5.9058">
        <ele>592.56884765625</ele>
        <time>2009-06-25T06:27:33Z</time>
      </trkpt>
      <trkpt lat="43.18017" lon="5.90599">
        <ele>581.83978271484</ele>
        <time>2009-06-25T06:27:38Z</time>
      </trkpt>
      <trkpt lat="43.18008" lon="5.90616">
        <ele>579.94708251953</ele>
        <time>2009-06-25T06:27:41Z</time>
      </trkpt>
      <trkpt lat="43.18002" lon="5.90611">
        <ele>579.22534179688</ele>
        <time>2009-06-25T06:27:43Z</time>
      </trkpt>
      <trkpt lat="43.18003" lon="5.90589">
        <ele>580.28967285156</ele>
        <time>2009-06-25T06:27:46Z</time>
      </trkpt>
      <trkpt lat="43.18018" lon="5.9057">
        <ele>582.84539794922</ele>
        <time>2009-06-25T06:27:49Z</time>
      </trkpt>
      <trkpt lat="43.18024" lon="5.90566">
        <ele>584.06414794922</ele>
        <time>2009-06-25T06:27:50Z</time>
      </trkpt>
      <trkpt lat="43.18038" lon="5.90559">
        <ele>588.16870117188</ele>
        <time>2009-06-25T06:27:52Z</time>
      </trkpt>
      <trkpt lat="43.18047" lon="5.90537">
        <ele>591.88110351562</ele>
        <time>2009-06-25T06:27:55Z</time>
      </trkpt>
      <trkpt lat="43.18042" lon="5.90509">
        <ele>591.74536132812</ele>
        <time>2009-06-25T06:27:58Z</time>
      </trkpt>
      <trkpt lat="43.18038" lon="5.90488">
        <ele>590.89361572266</ele>
        <time>2009-06-25T06:28:00Z</time>
      </trkpt>
      <trkpt lat="43.18033" lon="5.90449">
        <ele>590.60046386719</ele>
        <time>2009-06-25T06:28:03Z</time>
      </trkpt>
      <trkpt lat="43.18018" lon="5.90404">
        <ele>585.71453857422</ele>
        <time>2009-06-25T06:28:07Z</time>
      </trkpt>
      <trkpt lat="43.17993" lon="5.90343">
        <ele>572.25952148438</ele>
        <time>2009-06-25T06:28:12Z</time>
      </trkpt>
      <trkpt lat="43.17989" lon="5.90331">
        <ele>569.75793457031</ele>
        <time>2009-06-25T06:28:13Z</time>
      </trkpt>
      <trkpt lat="43.17981" lon="5.90263">
        <ele>567.61627197266</ele>
        <time>2009-06-25T06:28:18Z</time>
      </trkpt>
      <trkpt lat="43.17962" lon="5.902">
        <ele>563.83917236328</ele>
        <time>2009-06-25T06:28:23Z</time>
      </trkpt>
      <trkpt lat="43.17957" lon="5.9019">
        <ele>562.23559570312</ele>
        <time>2009-06-25T06:28:24Z</time>
      </trkpt>
      <trkpt lat="43.17948" lon="5.90173">
        <ele>558.33203125</ele>
        <time>2009-06-25T06:28:26Z</time>
      </trkpt>
      <trkpt lat="43.17948" lon="5.9015">
        <ele>560.64855957031</ele>
        <time>2009-06-25T06:28:29Z</time>
      </trkpt>
      <trkpt lat="43.17961" lon="5.90128">
        <ele>570.91967773438</ele>
        <time>2009-06-25T06:28:32Z</time>
      </trkpt>
      <trkpt lat="43.17957" lon="5.90109">
        <ele>571.66284179688</ele>
        <time>2009-06-25T06:28:35Z</time>
      </trkpt>
      <trkpt lat="43.17943" lon="5.90102">
        <ele>565.85009765625</ele>
        <time>2009-06-25T06:28:37Z</time>
      </trkpt>
      <trkpt lat="43.17934" lon="5.90102">
        <ele>562.13854980469</ele>
        <time>2009-06-25T06:28:38Z</time>
      </trkpt>
      <trkpt lat="43.17897" lon="5.90098">
        <ele>543.11273193359</ele>
        <time>2009-06-25T06:28:42Z</time>
      </trkpt>
      <trkpt lat="43.17847" lon="5.90113">
        <ele>516.85461425781</ele>
        <time>2009-06-25T06:28:47Z</time>
      </trkpt>
      <trkpt lat="43.17828" lon="5.90119">
        <ele>510.48413085938</ele>
        <time>2009-06-25T06:28:49Z</time>
      </trkpt>
      <trkpt lat="43.1776" lon="5.90124">
        <ele>479.57138061523</ele>
        <time>2009-06-25T06:28:56Z</time>
      </trkpt>
      <trkpt lat="43.17687" lon="5.90108">
        <ele>468.91497802734</ele>
        <time>2009-06-25T06:29:03Z</time>
      </trkpt>
      <trkpt lat="43.17659" lon="5.90103">
        <ele>464.49365234375</ele>
        <time>2009-06-25T06:29:06Z</time>
      </trkpt>
      <trkpt lat="43.17629" lon="5.90083">
        <ele>462.33389282227</ele>
        <time>2009-06-25T06:29:10Z</time>
      </trkpt>
      <trkpt lat="43.1762" lon="5.90062">
        <ele>464.32986450195</ele>
        <time>2009-06-25T06:29:12Z</time>
      </trkpt>
      <trkpt lat="43.17614" lon="5.9004">
        <ele>467.16430664062</ele>
        <time>2009-06-25T06:29:14Z</time>
      </trkpt>
      <trkpt lat="43.17588" lon="5.90009">
        <ele>466.79446411133</ele>
        <time>2009-06-25T06:29:18Z</time>
      </trkpt>
      <trkpt lat="43.17579" lon="5.90003">
        <ele>466.09448242188</ele>
        <time>2009-06-25T06:29:19Z</time>
      </trkpt>
      <trkpt lat="43.17546" lon="5.89971">
        <ele>466.23937988281</ele>
        <time>2009-06-25T06:29:23Z</time>
      </trkpt>
      <trkpt lat="43.17521" lon="5.89923">
        <ele>465.73348999023</ele>
        <time>2009-06-25T06:29:28Z</time>
      </trkpt>
      <trkpt lat="43.17519" lon="5.89889">
        <ele>469.70907592773</ele>
        <time>2009-06-25T06:29:31Z</time>
      </trkpt>
      <trkpt lat="43.1752" lon="5.89877">
        <ele>470.81256103516</ele>
        <time>2009-06-25T06:29:32Z</time>
      </trkpt>
      <trkpt lat="43.17525" lon="5.89839">
        <ele>476.41513061523</ele>
        <time>2009-06-25T06:29:35Z</time>
      </trkpt>
      <trkpt lat="43.1752" lon="5.8979">
        <ele>480.04794311523</ele>
        <time>2009-06-25T06:29:39Z</time>
      </trkpt>
      <trkpt lat="43.17507" lon="5.89766">
        <ele>478.80514526367</ele>
        <time>2009-06-25T06:29:42Z</time>
      </trkpt>
      <trkpt lat="43.17484" lon="5.8976">
        <ele>470.27801513672</ele>
        <time>2009-06-25T06:29:45Z</time>
      </trkpt>
      <trkpt lat="43.17475" lon="5.89762">
        <ele>466.58560180664</ele>
        <time>2009-06-25T06:29:46Z</time>
      </trkpt>
      <trkpt lat="43.17457" lon="5.89765">
        <ele>460.70819091797</ele>
        <time>2009-06-25T06:29:48Z</time>
      </trkpt>
      <trkpt lat="43.17407" lon="5.89761">
        <ele>447.02066040039</ele>
        <time>2009-06-25T06:29:53Z</time>
      </trkpt>
      <trkpt lat="43.17377" lon="5.89742">
        <ele>442.29382324219</ele>
        <time>2009-06-25T06:29:57Z</time>
      </trkpt>
      <trkpt lat="43.1736" lon="5.89705">
        <ele>444.08474731445</ele>
        <time>2009-06-25T06:30:00Z</time>
      </trkpt>
      <trkpt lat="43.17328" lon="5.8965">
        <ele>445.35046386719</ele>
        <time>2009-06-25T06:30:05Z</time>
      </trkpt>
      <trkpt lat="43.17311" lon="5.89634">
        <ele>444.94470214844</ele>
        <time>2009-06-25T06:30:07Z</time>
      </trkpt>
      <trkpt lat="43.17287" lon="5.89598">
        <ele>441.4245300293</ele>
        <time>2009-06-25T06:30:11Z</time>
      </trkpt>
      <trkpt lat="43.17282" lon="5.89576">
        <ele>443.65350341797</ele>
        <time>2009-06-25T06:30:13Z</time>
      </trkpt>
      <trkpt lat="43.17269" lon="5.89507">
        <ele>450.13919067383</ele>
        <time>2009-06-25T06:30:18Z</time>
      </trkpt>
      <trkpt lat="43.17257" lon="5.89457">
        <ele>450.7458190918</ele>
        <time>2009-06-25T06:30:22Z</time>
      </trkpt>
      <trkpt lat="43.17243" lon="5.8943">
        <ele>447.69952392578</ele>
        <time>2009-06-25T06:30:25Z</time>
      </trkpt>
      <trkpt lat="43.17218" lon="5.89416">
        <ele>437.4231262207</ele>
        <time>2009-06-25T06:30:28Z</time>
      </trkpt>
      <trkpt lat="43.17173" lon="5.89398">
        <ele>416.03805541992</ele>
        <time>2009-06-25T06:30:33Z</time>
      </trkpt>
      <trkpt lat="43.1715" lon="5.8937">
        <ele>410.22290039062</ele>
        <time>2009-06-25T06:30:37Z</time>
      </trkpt>
      <trkpt lat="43.17142" lon="5.89335">
        <ele>410.98162841797</ele>
        <time>2009-06-25T06:30:40Z</time>
      </trkpt>
      <trkpt lat="43.17139" lon="5.89247">
        <ele>418.41897583008</ele>
        <time>2009-06-25T06:30:46Z</time>
      </trkpt>
      <trkpt lat="43.1713" lon="5.89172">
        <ele>418.81219482422</ele>
        <time>2009-06-25T06:30:51Z</time>
      </trkpt>
      <trkpt lat="43.17125" lon="5.89143">
        <ele>418.12176513672</ele>
        <time>2009-06-25T06:30:53Z</time>
      </trkpt>
      <trkpt lat="43.17119" lon="5.89071">
        <ele>421.40432739258</ele>
        <time>2009-06-25T06:30:58Z</time>
      </trkpt>
      <trkpt lat="43.1711" lon="5.8899">
        <ele>419.40069580078</ele>
        <time>2009-06-25T06:31:04Z</time>
      </trkpt>
      <trkpt lat="43.17106" lon="5.88935">
        <ele>418.31149291992</ele>
        <time>2009-06-25T06:31:09Z</time>
      </trkpt>
      <trkpt lat="43.17104" lon="5.88917">
        <ele>417.55822753906</ele>
        <time>2009-06-25T06:31:11Z</time>
      </trkpt>
      <trkpt lat="43.17097" lon="5.88889">
        <ele>414.44165039062</ele>
        <time>2009-06-25T06:31:14Z</time>
      </trkpt>
      <trkpt lat="43.17069" lon="5.8886">
        <ele>402.83233642578</ele>
        <time>2009-06-25T06:31:18Z</time>
      </trkpt>
      <trkpt lat="43.17048" lon="5.88838">
        <ele>397.14520263672</ele>
        <time>2009-06-25T06:31:22Z</time>
      </trkpt>
      <trkpt lat="43.1704" lon="5.88841">
        <ele>395.40283203125</ele>
        <time>2009-06-25T06:31:26Z</time>
      </trkpt>
      <trkpt lat="43.17045" lon="5.88851">
        <ele>397.01818847656</ele>
        <time>2009-06-25T06:31:28Z</time>
      </trkpt>
      <trkpt lat="43.17064" lon="5.8888">
        <ele>403.44464111328</ele>
        <time>2009-06-25T06:31:33Z</time>
      </trkpt>
      <trkpt lat="43.17082" lon="5.88912">
        <ele>410.283203125</ele>
        <time>2009-06-25T06:31:38Z</time>
      </trkpt>
      <trkpt lat="43.17083" lon="5.88944">
        <ele>410.01806640625</ele>
        <time>2009-06-25T06:31:42Z</time>
      </trkpt>
      <trkpt lat="43.17079" lon="5.89018">
        <ele>406.47601318359</ele>
        <time>2009-06-25T06:31:49Z</time>
      </trkpt>
      <trkpt lat="43.17079" lon="5.8903">
        <ele>406.18029785156</ele>
        <time>2009-06-25T06:31:50Z</time>
      </trkpt>
      <trkpt lat="43.17082" lon="5.89083">
        <ele>404.7248840332</ele>
        <time>2009-06-25T06:31:55Z</time>
      </trkpt>
      <trkpt lat="43.17079" lon="5.89092">
        <ele>403.97485351562</ele>
        <time>2009-06-25T06:31:56Z</time>
      </trkpt>
      <trkpt lat="43.17069" lon="5.89153">
        <ele>400.44790649414</ele>
        <time>2009-06-25T06:32:01Z</time>
      </trkpt>
      <trkpt lat="43.17073" lon="5.89193">
        <ele>398.00527954102</ele>
        <time>2009-06-25T06:32:04Z</time>
      </trkpt>
      <trkpt lat="43.1707" lon="5.89245">
        <ele>390.75247192383</ele>
        <time>2009-06-25T06:32:08Z</time>
      </trkpt>
      <trkpt lat="43.17067" lon="5.89257">
        <ele>387.6891784668</ele>
        <time>2009-06-25T06:32:09Z</time>
      </trkpt>
      <trkpt lat="43.17066" lon="5.89309">
        <ele>378.81948852539</ele>
        <time>2009-06-25T06:32:13Z</time>
      </trkpt>
      <trkpt lat="43.17066" lon="5.89329">
        <ele>376.27032470703</ele>
        <time>2009-06-25T06:32:15Z</time>
      </trkpt>
      <trkpt lat="43.17056" lon="5.89339">
        <ele>370.71759033203</ele>
        <time>2009-06-25T06:32:18Z</time>
      </trkpt>
      <trkpt lat="43.17052" lon="5.89326">
        <ele>371.32943725586</ele>
        <time>2009-06-25T06:32:20Z</time>
      </trkpt>
      <trkpt lat="43.17051" lon="5.89318">
        <ele>371.91741943359</ele>
        <time>2009-06-25T06:32:21Z</time>
      </trkpt>
      <trkpt lat="43.17048" lon="5.89265">
        <ele>378.19873046875</ele>
        <time>2009-06-25T06:32:27Z</time>
      </trkpt>
      <trkpt lat="43.17049" lon="5.89246">
        <ele>381.72418212891</ele>
        <time>2009-06-25T06:32:29Z</time>
      </trkpt>
      <trkpt lat="43.17045" lon="5.89201">
        <ele>385.54220581055</ele>
        <time>2009-06-25T06:32:33Z</time>
      </trkpt>
      <trkpt lat="43.17029" lon="5.89138">
        <ele>380.76861572266</ele>
        <time>2009-06-25T06:32:39Z</time>
      </trkpt>
      <trkpt lat="43.17028" lon="5.8911">
        <ele>381.53192138672</ele>
        <time>2009-06-25T06:32:43Z</time>
      </trkpt>
      <trkpt lat="43.17028" lon="5.8911">
        <ele>381.57214355469</ele>
        <time>2009-06-25T06:32:46Z</time>
      </trkpt>
      <trkpt lat="43.17028" lon="5.89114">
        <ele>381.08709716797</ele>
        <time>2009-06-25T06:32:58Z</time>
      </trkpt>
      <trkpt lat="43.17029" lon="5.89114">
        <ele>381.86572265625</ele>
        <time>2009-06-25T06:33:08Z</time>
      </trkpt>
      <trkpt lat="43.1703" lon="5.89109">
        <ele>382.44586181641</ele>
        <time>2009-06-25T06:33:14Z</time>
      </trkpt>
      <trkpt lat="43.17026" lon="5.89086">
        <ele>382.97329711914</ele>
        <time>2009-06-25T06:33:19Z</time>
      </trkpt>
      <trkpt lat="43.17018" lon="5.89044">
        <ele>382.52264404297</ele>
        <time>2009-06-25T06:33:25Z</time>
      </trkpt>
      <trkpt lat="43.17015" lon="5.89026">
        <ele>383.14825439453</ele>
        <time>2009-06-25T06:33:27Z</time>
      </trkpt>
      <trkpt lat="43.16998" lon="5.88998">
        <ele>379.34140014648</ele>
        <time>2009-06-25T06:33:31Z</time>
      </trkpt>
      <trkpt lat="43.1699" lon="5.88997">
        <ele>376.84005737305</ele>
        <time>2009-06-25T06:33:32Z</time>
      </trkpt>
      <trkpt lat="43.16954" lon="5.88982">
        <ele>365.13479614258</ele>
        <time>2009-06-25T06:33:37Z</time>
      </trkpt>
      <trkpt lat="43.16938" lon="5.88956">
        <ele>363.87768554688</ele>
        <time>2009-06-25T06:33:40Z</time>
      </trkpt>
      <trkpt lat="43.16926" lon="5.88933">
        <ele>364.61450195312</ele>
        <time>2009-06-25T06:33:43Z</time>
      </trkpt>
      <trkpt lat="43.16904" lon="5.88937">
        <ele>360.25134277344</ele>
        <time>2009-06-25T06:33:46Z</time>
      </trkpt>
      <trkpt lat="43.16901" lon="5.88951">
        <ele>358.2160949707</ele>
        <time>2009-06-25T06:33:48Z</time>
      </trkpt>
      <trkpt lat="43.16912" lon="5.88968">
        <ele>357.74917602539</ele>
        <time>2009-06-25T06:33:50Z</time>
      </trkpt>
      <trkpt lat="43.16948" lon="5.89026">
        <ele>358.65582275391</ele>
        <time>2009-06-25T06:33:56Z</time>
      </trkpt>
      <trkpt lat="43.16967" lon="5.89067">
        <ele>362.73699951172</ele>
        <time>2009-06-25T06:34:00Z</time>
      </trkpt>
      <trkpt lat="43.16968" lon="5.89092">
        <ele>361.14038085938</ele>
        <time>2009-06-25T06:34:02Z</time>
      </trkpt>
      <trkpt lat="43.1697" lon="5.89177">
        <ele>355.07794189453</ele>
        <time>2009-06-25T06:34:08Z</time>
      </trkpt>
      <trkpt lat="43.16973" lon="5.8927">
        <ele>343.81231689453</ele>
        <time>2009-06-25T06:34:14Z</time>
      </trkpt>
      <trkpt lat="43.16971" lon="5.89338">
        <ele>334.74755859375</ele>
        <time>2009-06-25T06:34:18Z</time>
      </trkpt>
      <trkpt lat="43.1697" lon="5.89408">
        <ele>324.36315917969</ele>
        <time>2009-06-25T06:34:22Z</time>
      </trkpt>
      <trkpt lat="43.16978" lon="5.89517">
        <ele>317.58267211914</ele>
        <time>2009-06-25T06:34:28Z</time>
      </trkpt>
      <trkpt lat="43.16983" lon="5.89548">
        <ele>317.05416870117</ele>
        <time>2009-06-25T06:34:30Z</time>
      </trkpt>
      <trkpt lat="43.17011" lon="5.89582">
        <ele>325.12075805664</ele>
        <time>2009-06-25T06:34:34Z</time>
      </trkpt>
      <trkpt lat="43.17019" lon="5.89611">
        <ele>327.63214111328</ele>
        <time>2009-06-25T06:34:37Z</time>
      </trkpt>
      <trkpt lat="43.17011" lon="5.8964">
        <ele>324.02020263672</ele>
        <time>2009-06-25T06:34:40Z</time>
      </trkpt>
      <trkpt lat="43.17006" lon="5.89674">
        <ele>321.75158691406</ele>
        <time>2009-06-25T06:34:43Z</time>
      </trkpt>
      <trkpt lat="43.17012" lon="5.89699">
        <ele>322.97482299805</ele>
        <time>2009-06-25T06:34:45Z</time>
      </trkpt>
      <trkpt lat="43.1702" lon="5.89724">
        <ele>323.90930175781</ele>
        <time>2009-06-25T06:34:47Z</time>
      </trkpt>
      <trkpt lat="43.17018" lon="5.89777">
        <ele>319.53881835938</ele>
        <time>2009-06-25T06:34:51Z</time>
      </trkpt>
      <trkpt lat="43.17014" lon="5.89817">
        <ele>316.88562011719</ele>
        <time>2009-06-25T06:34:54Z</time>
      </trkpt>
      <trkpt lat="43.17015" lon="5.89831">
        <ele>316.55462646484</ele>
        <time>2009-06-25T06:34:55Z</time>
      </trkpt>
      <trkpt lat="43.17012" lon="5.89898">
        <ele>312.22402954102</ele>
        <time>2009-06-25T06:35:00Z</time>
      </trkpt>
      <trkpt lat="43.17008" lon="5.89921">
        <ele>309.14447021484</ele>
        <time>2009-06-25T06:35:02Z</time>
      </trkpt>
      <trkpt lat="43.16998" lon="5.89944">
        <ele>305.39547729492</ele>
        <time>2009-06-25T06:35:06Z</time>
      </trkpt>
      <trkpt lat="43.16992" lon="5.89929">
        <ele>304.57321166992</ele>
        <time>2009-06-25T06:35:08Z</time>
      </trkpt>
      <trkpt lat="43.17001" lon="5.89913">
        <ele>307.54290771484</ele>
        <time>2009-06-25T06:35:10Z</time>
      </trkpt>
      <trkpt lat="43.17008" lon="5.89884">
        <ele>311.9013671875</ele>
        <time>2009-06-25T06:35:13Z</time>
      </trkpt>
      <trkpt lat="43.17007" lon="5.8985">
        <ele>313.24127197266</ele>
        <time>2009-06-25T06:35:16Z</time>
      </trkpt>
      <trkpt lat="43.17003" lon="5.89803">
        <ele>314.92376708984</ele>
        <time>2009-06-25T06:35:20Z</time>
      </trkpt>
      <trkpt lat="43.17002" lon="5.8979">
        <ele>315.17266845703</ele>
        <time>2009-06-25T06:35:21Z</time>
      </trkpt>
      <trkpt lat="43.16999" lon="5.89741">
        <ele>317.21270751953</ele>
        <time>2009-06-25T06:35:25Z</time>
      </trkpt>
      <trkpt lat="43.16988" lon="5.8972">
        <ele>313.26901245117</ele>
        <time>2009-06-25T06:35:27Z</time>
      </trkpt>
      <trkpt lat="43.1698" lon="5.89712">
        <ele>310.16708374023</ele>
        <time>2009-06-25T06:35:28Z</time>
      </trkpt>
      <trkpt lat="43.16959" lon="5.89667">
        <ele>302.51037597656</ele>
        <time>2009-06-25T06:35:33Z</time>
      </trkpt>
      <trkpt lat="43.16954" lon="5.89643">
        <ele>300.86688232422</ele>
        <time>2009-06-25T06:35:36Z</time>
      </trkpt>
      <trkpt lat="43.16938" lon="5.89645">
        <ele>291.91809082031</ele>
        <time>2009-06-25T06:35:39Z</time>
      </trkpt>
      <trkpt lat="43.16933" lon="5.89661">
        <ele>288.76824951172</ele>
        <time>2009-06-25T06:35:41Z</time>
      </trkpt>
      <trkpt lat="43.16938" lon="5.89684">
        <ele>290.85021972656</ele>
        <time>2009-06-25T06:35:43Z</time>
      </trkpt>
      <trkpt lat="43.16961" lon="5.89726">
        <ele>300.63366699219</ele>
        <time>2009-06-25T06:35:47Z</time>
      </trkpt>
      <trkpt lat="43.16977" lon="5.89766">
        <ele>305.361328125</ele>
        <time>2009-06-25T06:35:51Z</time>
      </trkpt>
      <trkpt lat="43.16975" lon="5.89779">
        <ele>304.33703613281</ele>
        <time>2009-06-25T06:35:52Z</time>
      </trkpt>
      <trkpt lat="43.16966" lon="5.89859">
        <ele>297.00283813477</ele>
        <time>2009-06-25T06:35:58Z</time>
      </trkpt>
      <trkpt lat="43.16945" lon="5.89929">
        <ele>283.57443237305</ele>
        <time>2009-06-25T06:36:03Z</time>
      </trkpt>
      <trkpt lat="43.16911" lon="5.89997">
        <ele>267.81298828125</ele>
        <time>2009-06-25T06:36:08Z</time>
      </trkpt>
      <trkpt lat="43.16885" lon="5.90045">
        <ele>252.76519775391</ele>
        <time>2009-06-25T06:36:12Z</time>
      </trkpt>
      <trkpt lat="43.16855" lon="5.90071">
        <ele>245.94682312012</ele>
        <time>2009-06-25T06:36:16Z</time>
      </trkpt>
      <trkpt lat="43.16843" lon="5.90065">
        <ele>242.35148620606</ele>
        <time>2009-06-25T06:36:18Z</time>
      </trkpt>
      <trkpt lat="43.16837" lon="5.90047">
        <ele>240.6943359375</ele>
        <time>2009-06-25T06:36:21Z</time>
      </trkpt>
      <trkpt lat="43.16849" lon="5.9003">
        <ele>243.3310546875</ele>
        <time>2009-06-25T06:36:23Z</time>
      </trkpt>
      <trkpt lat="43.16856" lon="5.90024">
        <ele>245.20333862305</ele>
        <time>2009-06-25T06:36:24Z</time>
      </trkpt>
      <trkpt lat="43.16871" lon="5.90008">
        <ele>250.56022644043</ele>
        <time>2009-06-25T06:36:26Z</time>
      </trkpt>
      <trkpt lat="43.16893" lon="5.89966">
        <ele>261.61166381836</ele>
        <time>2009-06-25T06:36:30Z</time>
      </trkpt>
      <trkpt lat="43.16895" lon="5.89929">
        <ele>264.0625</ele>
        <time>2009-06-25T06:36:33Z</time>
      </trkpt>
      <trkpt lat="43.16882" lon="5.89923">
        <ele>257.83087158203</ele>
        <time>2009-06-25T06:36:35Z</time>
      </trkpt>
      <trkpt lat="43.16867" lon="5.89934">
        <ele>253.23091125488</ele>
        <time>2009-06-25T06:36:37Z</time>
      </trkpt>
      <trkpt lat="43.16827" lon="5.89937">
        <ele>244.79277038574</ele>
        <time>2009-06-25T06:36:42Z</time>
      </trkpt>
      <trkpt lat="43.16808" lon="5.8993">
        <ele>239.74249267578</ele>
        <time>2009-06-25T06:36:44Z</time>
      </trkpt>
      <trkpt lat="43.16777" lon="5.89922">
        <ele>229.29620361328</ele>
        <time>2009-06-25T06:36:47Z</time>
      </trkpt>
      <trkpt lat="43.16736" lon="5.89934">
        <ele>222.37452697754</ele>
        <time>2009-06-25T06:36:51Z</time>
      </trkpt>
      <trkpt lat="43.16682" lon="5.89984">
        <ele>208.56187438965</ele>
        <time>2009-06-25T06:36:57Z</time>
      </trkpt>
      <trkpt lat="43.16644" lon="5.90014">
        <ele>200</ele>
        <time>2009-06-25T06:37:01Z</time>
      </trkpt>
      <trkpt lat="43.16596" lon="5.90044">
        <ele>200</ele>
        <time>2009-06-25T06:37:06Z</time>
      </trkpt>
      <trkpt lat="43.16566" lon="5.90049">
        <ele>198.87983703613</ele>
        <time>2009-06-25T06:37:10Z</time>
      </trkpt>
      <trkpt lat="43.16547" lon="5.90026">
        <ele>199.05209350586</ele>
        <time>2009-06-25T06:37:13Z</time>
      </trkpt>
      <trkpt lat="43.16528" lon="5.90041">
        <ele>198.0764465332</ele>
        <time>2009-06-25T06:37:16Z</time>
      </trkpt>
      <trkpt lat="43.16526" lon="5.90063">
        <ele>196.01161193848</ele>
        <time>2009-06-25T06:37:18Z</time>
      </trkpt>
      <trkpt lat="43.16504" lon="5.90103">
        <ele>188.51547241211</ele>
        <time>2009-06-25T06:37:23Z</time>
      </trkpt>
      <trkpt lat="43.1648" lon="5.90106">
        <ele>185.56141662598</ele>
        <time>2009-06-25T06:37:26Z</time>
      </trkpt>
      <trkpt lat="43.16471" lon="5.90103">
        <ele>185.14807128906</ele>
        <time>2009-06-25T06:37:27Z</time>
      </trkpt>
      <trkpt lat="43.16425" lon="5.90082">
        <ele>185.54483032227</ele>
        <time>2009-06-25T06:37:32Z</time>
      </trkpt>
      <trkpt lat="43.16396" lon="5.90048">
        <ele>194.81307983398</ele>
        <time>2009-06-25T06:37:36Z</time>
      </trkpt>
      <trkpt lat="43.16364" lon="5.90018">
        <ele>204.4157409668</ele>
        <time>2009-06-25T06:37:40Z</time>
      </trkpt>
      <trkpt lat="43.16333" lon="5.90019">
        <ele>205.91661071777</ele>
        <time>2009-06-25T06:37:43Z</time>
      </trkpt>
      <trkpt lat="43.16307" lon="5.90044">
        <ele>201.65090942383</ele>
        <time>2009-06-25T06:37:46Z</time>
      </trkpt>
      <trkpt lat="43.16295" lon="5.90088">
        <ele>188.39950561523</ele>
        <time>2009-06-25T06:37:49Z</time>
      </trkpt>
      <trkpt lat="43.16291" lon="5.90118">
        <ele>182.40798950195</ele>
        <time>2009-06-25T06:37:51Z</time>
      </trkpt>
      <trkpt lat="43.16274" lon="5.90154">
        <ele>174.91104125977</ele>
        <time>2009-06-25T06:37:54Z</time>
      </trkpt>
      <trkpt lat="43.16266" lon="5.90163">
        <ele>173.56864929199</ele>
        <time>2009-06-25T06:37:55Z</time>
      </trkpt>
      <trkpt lat="43.16232" lon="5.90197">
        <ele>170.99935913086</ele>
        <time>2009-06-25T06:37:59Z</time>
      </trkpt>
      <trkpt lat="43.16207" lon="5.90197">
        <ele>173.43231201172</ele>
        <time>2009-06-25T06:38:02Z</time>
      </trkpt>
      <trkpt lat="43.16182" lon="5.90184">
        <ele>179.01286315918</ele>
        <time>2009-06-25T06:38:05Z</time>
      </trkpt>
      <trkpt lat="43.16155" lon="5.90203">
        <ele>178.46510314941</ele>
        <time>2009-06-25T06:38:08Z</time>
      </trkpt>
      <trkpt lat="43.16137" lon="5.90219">
        <ele>175.69860839844</ele>
        <time>2009-06-25T06:38:10Z</time>
      </trkpt>
      <trkpt lat="43.16111" lon="5.90229">
        <ele>172.72842407227</ele>
        <time>2009-06-25T06:38:13Z</time>
      </trkpt>
      <trkpt lat="43.16098" lon="5.90217">
        <ele>177.70890808106</ele>
        <time>2009-06-25T06:38:15Z</time>
      </trkpt>
      <trkpt lat="43.16092" lon="5.90207">
        <ele>180.44245910644</ele>
        <time>2009-06-25T06:38:16Z</time>
      </trkpt>
      <trkpt lat="43.16056" lon="5.90181">
        <ele>186.88104248047</ele>
        <time>2009-06-25T06:38:21Z</time>
      </trkpt>
      <trkpt lat="43.16042" lon="5.90198">
        <ele>185.12060546875</ele>
        <time>2009-06-25T06:38:23Z</time>
      </trkpt>
      <trkpt lat="43.16037" lon="5.90209">
        <ele>183.03871154785</ele>
        <time>2009-06-25T06:38:24Z</time>
      </trkpt>
      <trkpt lat="43.16012" lon="5.90259">
        <ele>175.73406982422</ele>
        <time>2009-06-25T06:38:29Z</time>
      </trkpt>
      <trkpt lat="43.16008" lon="5.90273">
        <ele>174.67834472656</ele>
        <time>2009-06-25T06:38:30Z</time>
      </trkpt>
      <trkpt lat="43.15986" lon="5.9034">
        <ele>169.62533569336</ele>
        <time>2009-06-25T06:38:35Z</time>
      </trkpt>
      <trkpt lat="43.15955" lon="5.90413">
        <ele>165.48419189453</ele>
        <time>2009-06-25T06:38:40Z</time>
      </trkpt>
      <trkpt lat="43.15925" lon="5.9049">
        <ele>160.7112121582</ele>
        <time>2009-06-25T06:38:45Z</time>
      </trkpt>
      <trkpt lat="43.15902" lon="5.90532">
        <ele>157.99079895019</ele>
        <time>2009-06-25T06:38:48Z</time>
      </trkpt>
      <trkpt lat="43.15866" lon="5.90604">
        <ele>147.57968139648</ele>
        <time>2009-06-25T06:38:53Z</time>
      </trkpt>
      <trkpt lat="43.15848" lon="5.90631">
        <ele>143.52955627441</ele>
        <time>2009-06-25T06:38:55Z</time>
      </trkpt>
      <trkpt lat="43.15806" lon="5.90667">
        <ele>139.93739318848</ele>
        <time>2009-06-25T06:38:59Z</time>
      </trkpt>
      <trkpt lat="43.15776" lon="5.90667">
        <ele>143.98731994629</ele>
        <time>2009-06-25T06:39:02Z</time>
      </trkpt>
      <trkpt lat="43.15767" lon="5.90663">
        <ele>146.73016357422</ele>
        <time>2009-06-25T06:39:03Z</time>
      </trkpt>
      <trkpt lat="43.15717" lon="5.90658">
        <ele>154.34739685059</ele>
        <time>2009-06-25T06:39:08Z</time>
      </trkpt>
      <trkpt lat="43.15701" lon="5.90679">
        <ele>150.34349060059</ele>
        <time>2009-06-25T06:39:10Z</time>
      </trkpt>
      <trkpt lat="43.15695" lon="5.90691">
        <ele>147.052734375</ele>
        <time>2009-06-25T06:39:11Z</time>
      </trkpt>
      <trkpt lat="43.1566" lon="5.90745">
        <ele>130.31376647949</ele>
        <time>2009-06-25T06:39:16Z</time>
      </trkpt>
      <trkpt lat="43.15629" lon="5.90759">
        <ele>126.15058898926</ele>
        <time>2009-06-25T06:39:19Z</time>
      </trkpt>
      <trkpt lat="43.15575" lon="5.90752">
        <ele>127.61828613281</ele>
        <time>2009-06-25T06:39:24Z</time>
      </trkpt>
      <trkpt lat="43.15554" lon="5.9074">
        <ele>129.45764160156</ele>
        <time>2009-06-25T06:39:26Z</time>
      </trkpt>
      <trkpt lat="43.15498" lon="5.90696">
        <ele>134.82159423828</ele>
        <time>2009-06-25T06:39:32Z</time>
      </trkpt>
      <trkpt lat="43.15461" lon="5.9067">
        <ele>137.44430541992</ele>
        <time>2009-06-25T06:39:36Z</time>
      </trkpt>
      <trkpt lat="43.15427" lon="5.90676">
        <ele>131.34307861328</ele>
        <time>2009-06-25T06:39:40Z</time>
      </trkpt>
      <trkpt lat="43.15408" lon="5.907">
        <ele>126.60595703125</ele>
        <time>2009-06-25T06:39:43Z</time>
      </trkpt>
      <trkpt lat="43.15394" lon="5.90722">
        <ele>123.51244354248</ele>
        <time>2009-06-25T06:39:46Z</time>
      </trkpt>
      <trkpt lat="43.15379" lon="5.90726">
        <ele>121.41624450684</ele>
        <time>2009-06-25T06:39:50Z</time>
      </trkpt>
      <trkpt lat="43.15364" lon="5.90708">
        <ele>121.35311889648</ele>
        <time>2009-06-25T06:39:53Z</time>
      </trkpt>
      <trkpt lat="43.15358" lon="5.90681">
        <ele>122.31330871582</ele>
        <time>2009-06-25T06:39:56Z</time>
      </trkpt>
      <trkpt lat="43.15359" lon="5.90671">
        <ele>123.41204071045</ele>
        <time>2009-06-25T06:39:57Z</time>
      </trkpt>
      <trkpt lat="43.15365" lon="5.90623">
        <ele>126.67051696777</ele>
        <time>2009-06-25T06:40:01Z</time>
      </trkpt>
      <trkpt lat="43.15372" lon="5.90485">
        <ele>125.73094177246</ele>
        <time>2009-06-25T06:40:12Z</time>
      </trkpt>
      <trkpt lat="43.15365" lon="5.90443">
        <ele>122.74746704102</ele>
        <time>2009-06-25T06:40:14Z</time>
      </trkpt>
      <trkpt lat="43.15363" lon="5.90401">
        <ele>121.91580200195</ele>
        <time>2009-06-25T06:40:18Z</time>
      </trkpt>
      <trkpt lat="43.15349" lon="5.90394">
        <ele>120.11888122559</ele>
        <time>2009-06-25T06:40:21Z</time>
      </trkpt>
      <trkpt lat="43.15342" lon="5.90395">
        <ele>119.17224121094</ele>
        <time>2009-06-25T06:40:22Z</time>
      </trkpt>
      <trkpt lat="43.153" lon="5.90389">
        <ele>109.99780273438</ele>
        <time>2009-06-25T06:40:27Z</time>
      </trkpt>
      <trkpt lat="43.15258" lon="5.90362">
        <ele>104.55776977539</ele>
        <time>2009-06-25T06:40:32Z</time>
      </trkpt>
      <trkpt lat="43.15224" lon="5.9034">
        <ele>100.13819885254</ele>
        <time>2009-06-25T06:40:36Z</time>
      </trkpt>
      <trkpt lat="43.15184" lon="5.90313">
        <ele>97.16731262207</ele>
        <time>2009-06-25T06:40:42Z</time>
      </trkpt>
      <trkpt lat="43.15156" lon="5.90306">
        <ele>93.432792663574</ele>
        <time>2009-06-25T06:40:45Z</time>
      </trkpt>
      <trkpt lat="43.151" lon="5.90295">
        <ele>87.513885498047</ele>
        <time>2009-06-25T06:40:50Z</time>
      </trkpt>
      <trkpt lat="43.15035" lon="5.90277">
        <ele>79.774421691895</ele>
        <time>2009-06-25T06:40:55Z</time>
      </trkpt>
      <trkpt lat="43.14979" lon="5.90266">
        <ele>72.000732421875</ele>
        <time>2009-06-25T06:41:00Z</time>
      </trkpt>
      <trkpt lat="43.14942" lon="5.90259">
        <ele>67.67236328125</ele>
        <time>2009-06-25T06:41:04Z</time>
      </trkpt>
      <trkpt lat="43.14884" lon="5.90247">
        <ele>61.03511428833</ele>
        <time>2009-06-25T06:41:10Z</time>
      </trkpt>
      <trkpt lat="43.14821" lon="5.90235">
        <ele>58.550483703613</ele>
        <time>2009-06-25T06:41:16Z</time>
      </trkpt>
      <trkpt lat="43.14787" lon="5.90228">
        <ele>57.460418701172</ele>
        <time>2009-06-25T06:41:20Z</time>
      </trkpt>
      <trkpt lat="43.14767" lon="5.90225">
        <ele>56.523941040039</ele>
        <time>2009-06-25T06:41:24Z</time>
      </trkpt>
      <trkpt lat="43.14735" lon="5.90224">
        <ele>55.427024841309</ele>
        <time>2009-06-25T06:41:30Z</time>
      </trkpt>
      <trkpt lat="43.14726" lon="5.90223">
        <ele>55.100868225098</ele>
        <time>2009-06-25T06:41:32Z</time>
      </trkpt>
      <trkpt lat="43.14704" lon="5.90236">
        <ele>53.842590332031</ele>
        <time>2009-06-25T06:41:36Z</time>
      </trkpt>
      <trkpt lat="43.14665" lon="5.90262">
        <ele>51.934265136719</ele>
        <time>2009-06-25T06:41:42Z</time>
      </trkpt>
      <trkpt lat="43.14643" lon="5.90276">
        <ele>51.137756347656</ele>
        <time>2009-06-25T06:41:45Z</time>
      </trkpt>
      <trkpt lat="43.14604" lon="5.90314">
        <ele>50.473999023438</ele>
        <time>2009-06-25T06:41:50Z</time>
      </trkpt>
      <trkpt lat="43.14561" lon="5.90369">
        <ele>48.397827148438</ele>
        <time>2009-06-25T06:41:56Z</time>
      </trkpt>
      <trkpt lat="43.14522" lon="5.90414">
        <ele>46.353271484375</ele>
        <time>2009-06-25T06:42:01Z</time>
      </trkpt>
      <trkpt lat="43.14515" lon="5.90424">
        <ele>45.611694335938</ele>
        <time>2009-06-25T06:42:02Z</time>
      </trkpt>
      <trkpt lat="43.1449" lon="5.90468">
        <ele>42.40251159668</ele>
        <time>2009-06-25T06:42:06Z</time>
      </trkpt>
      <trkpt lat="43.14448" lon="5.90566">
        <ele>41.48095703125</ele>
        <time>2009-06-25T06:42:14Z</time>
      </trkpt>
      <trkpt lat="43.14413" lon="5.90631">
        <ele>39.40119934082</ele>
        <time>2009-06-25T06:42:20Z</time>
      </trkpt>
      <trkpt lat="43.14375" lon="5.90691">
        <ele>26.64892578125</ele>
        <time>2009-06-25T06:42:26Z</time>
      </trkpt>
      <trkpt lat="43.14337" lon="5.90748">
        <ele>23.201965332031</ele>
        <time>2009-06-25T06:42:32Z</time>
      </trkpt>
      <trkpt lat="43.14293" lon="5.90815">
        <ele>21.743011474609</ele>
        <time>2009-06-25T06:42:40Z</time>
      </trkpt>
      <trkpt lat="43.14265" lon="5.90843">
        <ele>20.649925231934</ele>
        <time>2009-06-25T06:42:44Z</time>
      </trkpt>
      <trkpt lat="43.1424" lon="5.90856">
        <ele>20.290842056274</ele>
        <time>2009-06-25T06:42:47Z</time>
      </trkpt>
      <trkpt lat="43.14215" lon="5.90888">
        <ele>20.006572723389</ele>
        <time>2009-06-25T06:42:51Z</time>
      </trkpt>
      <trkpt lat="43.14212" lon="5.909">
        <ele>20</ele>
        <time>2009-06-25T06:42:52Z</time>
      </trkpt>
      <trkpt lat="43.142" lon="5.9099">
        <ele>20</ele>
        <time>2009-06-25T06:42:59Z</time>
      </trkpt>
      <trkpt lat="43.14187" lon="5.91018">
        <ele>20</ele>
        <time>2009-06-25T06:43:03Z</time>
      </trkpt>
      <trkpt lat="43.14167" lon="5.91022">
        <ele>20</ele>
        <time>2009-06-25T06:43:06Z</time>
      </trkpt>
      <trkpt lat="43.14149" lon="5.91039">
        <ele>20</ele>
        <time>2009-06-25T06:43:09Z</time>
      </trkpt>
      <trkpt lat="43.14148" lon="5.91046">
        <ele>20</ele>
        <time>2009-06-25T06:43:10Z</time>
      </trkpt>
      <trkpt lat="43.14131" lon="5.91073">
        <ele>20</ele>
        <time>2009-06-25T06:43:15Z</time>
      </trkpt>
      <trkpt lat="43.14086" lon="5.91085">
        <ele>20</ele>
        <time>2009-06-25T06:43:22Z</time>
      </trkpt>
      <trkpt lat="43.1405" lon="5.91084">
        <ele>20</ele>
        <time>2009-06-25T06:43:27Z</time>
      </trkpt>
      <trkpt lat="43.14008" lon="5.91079">
        <ele>20</ele>
        <time>2009-06-25T06:43:33Z</time>
      </trkpt>
      <trkpt lat="43.13998" lon="5.91076">
        <ele>20</ele>
        <time>2009-06-25T06:43:35Z</time>
      </trkpt>
      <trkpt lat="43.13989" lon="5.91085">
        <ele>20</ele>
        <time>2009-06-25T06:43:39Z</time>
      </trkpt>
      <trkpt lat="43.1399" lon="5.91091">
        <ele>20</ele>
        <time>2009-06-25T06:43:40Z</time>
      </trkpt>
      <trkpt lat="43.1399" lon="5.91096">
        <ele>20</ele>
        <time>2009-06-25T06:43:41Z</time>
      </trkpt>
      <trkpt lat="43.13994" lon="5.91132">
        <ele>20</ele>
        <time>2009-06-25T06:43:48Z</time>
      </trkpt>
      <trkpt lat="43.13997" lon="5.9115">
        <ele>20</ele>
        <time>2009-06-25T06:43:52Z</time>
      </trkpt>
      <trkpt lat="43.13999" lon="5.91164">
        <ele>20</ele>
        <time>2009-06-25T06:43:55Z</time>
      </trkpt>
      <trkpt lat="43.14001" lon="5.91194">
        <ele>20</ele>
        <time>2009-06-25T06:44:01Z</time>
      </trkpt>
      <trkpt lat="43.14003" lon="5.91219">
        <ele>21.085655212402</ele>
        <time>2009-06-25T06:44:07Z</time>
      </trkpt>
      <trkpt lat="43.14006" lon="5.91238">
        <ele>24.913009643555</ele>
        <time>2009-06-25T06:44:13Z</time>
      </trkpt>
      <trkpt lat="43.14007" lon="5.91257">
        <ele>28.292335510254</ele>
        <time>2009-06-25T06:44:20Z</time>
      </trkpt>
      <trkpt lat="43.14007" lon="5.91267">
        <ele>29.339469909668</ele>
        <time>2009-06-25T06:44:24Z</time>
      </trkpt>
      <trkpt lat="43.14012" lon="5.91277">
        <ele>30.755676269531</ele>
        <time>2009-06-25T06:44:29Z</time>
      </trkpt>
      <trkpt lat="43.14012" lon="5.91284">
        <ele>32.25732421875</ele>
        <time>2009-06-25T06:44:35Z</time>
      </trkpt>
      <trkpt lat="43.14012" lon="5.91288">
        <ele>33.163696289062</ele>
        <time>2009-06-25T06:44:46Z</time>
      </trkpt>
      <trkpt lat="43.14013" lon="5.91304">
        <ele>36.672454833984</ele>
        <time>2009-06-25T06:44:51Z</time>
      </trkpt>
      <trkpt lat="43.14016" lon="5.91324">
        <ele>39.070289611816</ele>
        <time>2009-06-25T06:44:56Z</time>
      </trkpt>
      <trkpt lat="43.1402" lon="5.91353">
        <ele>40.692092895508</ele>
        <time>2009-06-25T06:45:03Z</time>
      </trkpt>
      <trkpt lat="43.14022" lon="5.91379">
        <ele>42.141021728516</ele>
        <time>2009-06-25T06:45:10Z</time>
      </trkpt>
      <trkpt lat="43.14023" lon="5.91404">
        <ele>43.366096496582</ele>
        <time>2009-06-25T06:45:16Z</time>
      </trkpt>
      <trkpt lat="43.14025" lon="5.91431">
        <ele>44.416664123535</ele>
        <time>2009-06-25T06:45:23Z</time>
      </trkpt>
      <trkpt lat="43.14026" lon="5.91459">
        <ele>45.950565338135</ele>
        <time>2009-06-25T06:45:30Z</time>
      </trkpt>
      <trkpt lat="43.14028" lon="5.91478">
        <ele>47.234558105469</ele>
        <time>2009-06-25T06:45:36Z</time>
      </trkpt>
      <trkpt lat="43.14035" lon="5.91496">
        <ele>48.101448059082</ele>
        <time>2009-06-25T06:45:42Z</time>
      </trkpt>
      <trkpt lat="43.14043" lon="5.91511">
        <ele>48.970054626465</ele>
        <time>2009-06-25T06:45:50Z</time>
      </trkpt>
      <trkpt lat="43.14052" lon="5.91527">
        <ele>49.836944580078</ele>
        <time>2009-06-25T06:45:56Z</time>
      </trkpt>
      <trkpt lat="43.14064" lon="5.91546">
        <ele>51.7399559021</ele>
        <time>2009-06-25T06:46:04Z</time>
      </trkpt>
      <trkpt lat="43.14077" lon="5.91564">
        <ele>53.324546813965</ele>
        <time>2009-06-25T06:46:10Z</time>
      </trkpt>
      <trkpt lat="43.1409" lon="5.91582">
        <ele>56.129276275635</ele>
        <time>2009-06-25T06:46:18Z</time>
      </trkpt>
      <trkpt lat="43.14099" lon="5.91594">
        <ele>58.686492919922</ele>
        <time>2009-06-25T06:46:24Z</time>
      </trkpt>
      <trkpt lat="43.14105" lon="5.91603">
        <ele>60.649356842041</ele>
        <time>2009-06-25T06:46:28Z</time>
      </trkpt>
      <trkpt lat="43.14116" lon="5.91617">
        <ele>64.610198974609</ele>
        <time>2009-06-25T06:46:35Z</time>
      </trkpt>
      <trkpt lat="43.14129" lon="5.91626">
        <ele>67.882064819336</ele>
        <time>2009-06-25T06:46:41Z</time>
      </trkpt>
      <trkpt lat="43.14139" lon="5.91637">
        <ele>70.777992248535</ele>
        <time>2009-06-25T06:46:47Z</time>
      </trkpt>
      <trkpt lat="43.1415" lon="5.91649">
        <ele>71.779716491699</ele>
        <time>2009-06-25T06:46:54Z</time>
      </trkpt>
      <trkpt lat="43.14164" lon="5.91662">
        <ele>72.746170043945</ele>
        <time>2009-06-25T06:47:01Z</time>
      </trkpt>
      <trkpt lat="43.14178" lon="5.91676">
        <ele>75.509506225586</ele>
        <time>2009-06-25T06:47:08Z</time>
      </trkpt>
      <trkpt lat="43.14191" lon="5.91688">
        <ele>78.628631591797</ele>
        <time>2009-06-25T06:47:14Z</time>
      </trkpt>
      <trkpt lat="43.14199" lon="5.91697">
        <ele>81.133560180664</ele>
        <time>2009-06-25T06:47:20Z</time>
      </trkpt>
      <trkpt lat="43.14212" lon="5.91711">
        <ele>85.177658081055</ele>
        <time>2009-06-25T06:47:27Z</time>
      </trkpt>
      <trkpt lat="43.14223" lon="5.91728">
        <ele>89.391578674316</ele>
        <time>2009-06-25T06:47:34Z</time>
      </trkpt>
      <trkpt lat="43.14238" lon="5.91752">
        <ele>92.531288146973</ele>
        <time>2009-06-25T06:47:43Z</time>
      </trkpt>
      <trkpt lat="43.1425" lon="5.91771">
        <ele>95.56763458252</ele>
        <time>2009-06-25T06:47:51Z</time>
      </trkpt>
      <trkpt lat="43.1425" lon="5.91788">
        <ele>97.089302062988</ele>
        <time>2009-06-25T06:47:56Z</time>
      </trkpt>
      <trkpt lat="43.14241" lon="5.91794">
        <ele>96.598754882812</ele>
        <time>2009-06-25T06:48:00Z</time>
      </trkpt>
      <trkpt lat="43.14221" lon="5.91795">
        <ele>93.957038879395</ele>
        <time>2009-06-25T06:48:07Z</time>
      </trkpt>
      <trkpt lat="43.14192" lon="5.91799">
        <ele>88.922332763672</ele>
        <time>2009-06-25T06:48:16Z</time>
      </trkpt>
      <trkpt lat="43.14172" lon="5.91805">
        <ele>87.444778442383</ele>
        <time>2009-06-25T06:48:23Z</time>
      </trkpt>
      <trkpt lat="43.14161" lon="5.91816">
        <ele>87.905227661133</ele>
        <time>2009-06-25T06:48:28Z</time>
      </trkpt>
      <trkpt lat="43.14151" lon="5.91832">
        <ele>89.275085449219</ele>
        <time>2009-06-25T06:48:35Z</time>
      </trkpt>
      <trkpt lat="43.14138" lon="5.91853">
        <ele>91.814666748047</ele>
        <time>2009-06-25T06:48:43Z</time>
      </trkpt>
      <trkpt lat="43.14135" lon="5.91858">
        <ele>92.363983154297</ele>
        <time>2009-06-25T06:48:45Z</time>
      </trkpt>
      <trkpt lat="43.14125" lon="5.91877">
        <ele>94.780975341797</ele>
        <time>2009-06-25T06:48:52Z</time>
      </trkpt>
      <trkpt lat="43.14115" lon="5.91897">
        <ele>96.80549621582</ele>
        <time>2009-06-25T06:48:59Z</time>
      </trkpt>
      <trkpt lat="43.14105" lon="5.91918">
        <ele>98.010131835938</ele>
        <time>2009-06-25T06:49:06Z</time>
      </trkpt>
      <trkpt lat="43.14096" lon="5.91938">
        <ele>101.5832901001</ele>
        <time>2009-06-25T06:49:13Z</time>
      </trkpt>
      <trkpt lat="43.14089" lon="5.91955">
        <ele>103.90057373047</ele>
        <time>2009-06-25T06:49:19Z</time>
      </trkpt>
      <trkpt lat="43.14084" lon="5.91971">
        <ele>105.87124633789</ele>
        <time>2009-06-25T06:49:24Z</time>
      </trkpt>
      <trkpt lat="43.14084" lon="5.91992">
        <ele>110.38494110107</ele>
        <time>2009-06-25T06:49:30Z</time>
      </trkpt>
      <trkpt lat="43.14084" lon="5.92013">
        <ele>114.86029052734</ele>
        <time>2009-06-25T06:49:36Z</time>
      </trkpt>
      <trkpt lat="43.14084" lon="5.92043">
        <ele>119.16818237305</ele>
        <time>2009-06-25T06:49:44Z</time>
      </trkpt>
      <trkpt lat="43.14084" lon="5.92046">
        <ele>119.44284057617</ele>
        <time>2009-06-25T06:49:45Z</time>
      </trkpt>
      <trkpt lat="43.14093" lon="5.92046">
        <ele>120.43504333496</ele>
        <time>2009-06-25T06:49:50Z</time>
      </trkpt>
      <trkpt lat="43.14094" lon="5.92038">
        <ele>119.89259338379</ele>
        <time>2009-06-25T06:49:52Z</time>
      </trkpt>
      <trkpt lat="43.14094" lon="5.92012">
        <ele>115.62246704102</ele>
        <time>2009-06-25T06:50:00Z</time>
      </trkpt>
      <trkpt lat="43.14101" lon="5.9199">
        <ele>111.62286376953</ele>
        <time>2009-06-25T06:50:07Z</time>
      </trkpt>
      <trkpt lat="43.14114" lon="5.91976">
        <ele>109.63974761963</ele>
        <time>2009-06-25T06:50:13Z</time>
      </trkpt>
      <trkpt lat="43.14128" lon="5.91965">
        <ele>110.28865051269</ele>
        <time>2009-06-25T06:50:19Z</time>
      </trkpt>
      <trkpt lat="43.14144" lon="5.91952">
        <ele>110.58288574219</ele>
        <time>2009-06-25T06:50:26Z</time>
      </trkpt>
      <trkpt lat="43.14163" lon="5.91941">
        <ele>110.9775390625</ele>
        <time>2009-06-25T06:50:34Z</time>
      </trkpt>
      <trkpt lat="43.14178" lon="5.91936">
        <ele>111.04450988769</ele>
        <time>2009-06-25T06:50:40Z</time>
      </trkpt>
      <trkpt lat="43.14195" lon="5.91931">
        <ele>111.20162963867</ele>
        <time>2009-06-25T06:50:47Z</time>
      </trkpt>
      <trkpt lat="43.14208" lon="5.91933">
        <ele>115.25225830078</ele>
        <time>2009-06-25T06:50:52Z</time>
      </trkpt>
      <trkpt lat="43.14223" lon="5.91944">
        <ele>121.78216552734</ele>
        <time>2009-06-25T06:50:59Z</time>
      </trkpt>
      <trkpt lat="43.14235" lon="5.91956">
        <ele>125.1555480957</ele>
        <time>2009-06-25T06:51:05Z</time>
      </trkpt>
      <trkpt lat="43.14249" lon="5.91969">
        <ele>129.25160217285</ele>
        <time>2009-06-25T06:51:11Z</time>
      </trkpt>
      <trkpt lat="43.14258" lon="5.9198">
        <ele>133.31307983398</ele>
        <time>2009-06-25T06:51:17Z</time>
      </trkpt>
      <trkpt lat="43.14273" lon="5.91995">
        <ele>139.27992248535</ele>
        <time>2009-06-25T06:51:24Z</time>
      </trkpt>
      <trkpt lat="43.14286" lon="5.92009">
        <ele>143.81350708008</ele>
        <time>2009-06-25T06:51:30Z</time>
      </trkpt>
      <trkpt lat="43.14293" lon="5.92021">
        <ele>146.92230224609</ele>
        <time>2009-06-25T06:51:35Z</time>
      </trkpt>
      <trkpt lat="43.14294" lon="5.92023">
        <ele>147.42184448242</ele>
        <time>2009-06-25T06:51:36Z</time>
      </trkpt>
      <trkpt lat="43.14308" lon="5.92031">
        <ele>150.572265625</ele>
        <time>2009-06-25T06:51:42Z</time>
      </trkpt>
      <trkpt lat="43.14325" lon="5.92039">
        <ele>152.65621948242</ele>
        <time>2009-06-25T06:51:48Z</time>
      </trkpt>
      <trkpt lat="43.14334" lon="5.9204">
        <ele>153.48815917969</ele>
        <time>2009-06-25T06:51:51Z</time>
      </trkpt>
      <trkpt lat="43.14343" lon="5.92039">
        <ele>154.93183898926</ele>
        <time>2009-06-25T06:51:54Z</time>
      </trkpt>
      <trkpt lat="43.14363" lon="5.92032">
        <ele>157.86227416992</ele>
        <time>2009-06-25T06:52:01Z</time>
      </trkpt>
      <trkpt lat="43.14379" lon="5.92026">
        <ele>161.36630249023</ele>
        <time>2009-06-25T06:52:07Z</time>
      </trkpt>
      <trkpt lat="43.14393" lon="5.92015">
        <ele>164.27740478516</ele>
        <time>2009-06-25T06:52:13Z</time>
      </trkpt>
      <trkpt lat="43.14403" lon="5.91996">
        <ele>165.54011535644</ele>
        <time>2009-06-25T06:52:19Z</time>
      </trkpt>
      <trkpt lat="43.14405" lon="5.91973">
        <ele>163.7805480957</ele>
        <time>2009-06-25T06:52:25Z</time>
      </trkpt>
      <trkpt lat="43.14404" lon="5.91943">
        <ele>160.98310852051</ele>
        <time>2009-06-25T06:52:33Z</time>
      </trkpt>
      <trkpt lat="43.14403" lon="5.91923">
        <ele>158.40133666992</ele>
        <time>2009-06-25T06:52:39Z</time>
      </trkpt>
      <trkpt lat="43.14405" lon="5.91901">
        <ele>157.16499328613</ele>
        <time>2009-06-25T06:52:47Z</time>
      </trkpt>
      <trkpt lat="43.14405" lon="5.91884">
        <ele>156.15780639648</ele>
        <time>2009-06-25T06:52:53Z</time>
      </trkpt>
      <trkpt lat="43.14407" lon="5.91862">
        <ele>154.50427246094</ele>
        <time>2009-06-25T06:53:01Z</time>
      </trkpt>
      <trkpt lat="43.14408" lon="5.91845">
        <ele>152.7645111084</ele>
        <time>2009-06-25T06:53:07Z</time>
      </trkpt>
      <trkpt lat="43.14409" lon="5.91825">
        <ele>150.61299133301</ele>
        <time>2009-06-25T06:53:14Z</time>
      </trkpt>
      <trkpt lat="43.14409" lon="5.91808">
        <ele>148.87699890137</ele>
        <time>2009-06-25T06:53:20Z</time>
      </trkpt>
      <trkpt lat="43.14409" lon="5.91792">
        <ele>146.82014465332</ele>
        <time>2009-06-25T06:53:25Z</time>
      </trkpt>
      <trkpt lat="43.14415" lon="5.91777">
        <ele>145.72123718262</ele>
        <time>2009-06-25T06:53:31Z</time>
      </trkpt>
      <trkpt lat="43.14423" lon="5.91764">
        <ele>143.86308288574</ele>
        <time>2009-06-25T06:53:37Z</time>
      </trkpt>
      <trkpt lat="43.14441" lon="5.91754">
        <ele>141.81323242188</ele>
        <time>2009-06-25T06:53:45Z</time>
      </trkpt>
      <trkpt lat="43.14454" lon="5.91749">
        <ele>140.56227111816</ele>
        <time>2009-06-25T06:53:50Z</time>
      </trkpt>
      <trkpt lat="43.14468" lon="5.91747">
        <ele>139.50433349609</ele>
        <time>2009-06-25T06:53:56Z</time>
      </trkpt>
      <trkpt lat="43.14471" lon="5.91751">
        <ele>140.14883422852</ele>
        <time>2009-06-25T06:53:59Z</time>
      </trkpt>
      <trkpt lat="43.14466" lon="5.91762">
        <ele>142.38385009766</ele>
        <time>2009-06-25T06:54:04Z</time>
      </trkpt>
      <trkpt lat="43.14464" lon="5.91764">
        <ele>142.80442810059</ele>
        <time>2009-06-25T06:54:05Z</time>
      </trkpt>
      <trkpt lat="43.14455" lon="5.91779">
        <ele>145.81707763672</ele>
        <time>2009-06-25T06:54:12Z</time>
      </trkpt>
      <trkpt lat="43.14451" lon="5.91799">
        <ele>149.51982116699</ele>
        <time>2009-06-25T06:54:18Z</time>
      </trkpt>
      <trkpt lat="43.14452" lon="5.91823">
        <ele>153.25524902344</ele>
        <time>2009-06-25T06:54:26Z</time>
      </trkpt>
      <trkpt lat="43.14454" lon="5.91841">
        <ele>156.09382629394</ele>
        <time>2009-06-25T06:54:32Z</time>
      </trkpt>
      <trkpt lat="43.14457" lon="5.91859">
        <ele>159.60588073731</ele>
        <time>2009-06-25T06:54:38Z</time>
      </trkpt>
      <trkpt lat="43.1446" lon="5.91875">
        <ele>161.80879211426</ele>
        <time>2009-06-25T06:54:44Z</time>
      </trkpt>
      <trkpt lat="43.14465" lon="5.91894">
        <ele>164.11357116699</ele>
        <time>2009-06-25T06:54:51Z</time>
      </trkpt>
      <trkpt lat="43.14469" lon="5.91912">
        <ele>165.56582641602</ele>
        <time>2009-06-25T06:54:58Z</time>
      </trkpt>
      <trkpt lat="43.14476" lon="5.91935">
        <ele>168.8464050293</ele>
        <time>2009-06-25T06:55:06Z</time>
      </trkpt>
      <trkpt lat="43.14479" lon="5.91952">
        <ele>171.24542236328</ele>
        <time>2009-06-25T06:55:12Z</time>
      </trkpt>
      <trkpt lat="43.14479" lon="5.91969">
        <ele>172.89514160156</ele>
        <time>2009-06-25T06:55:17Z</time>
      </trkpt>
      <trkpt lat="43.14482" lon="5.91988">
        <ele>175.57202148438</ele>
        <time>2009-06-25T06:55:23Z</time>
      </trkpt>
      <trkpt lat="43.14486" lon="5.92007">
        <ele>178.60719299316</ele>
        <time>2009-06-25T06:55:29Z</time>
      </trkpt>
      <trkpt lat="43.14486" lon="5.92013">
        <ele>179.59754943848</ele>
        <time>2009-06-25T06:55:31Z</time>
      </trkpt>
      <trkpt lat="43.14483" lon="5.92028">
        <ele>181.87422180176</ele>
        <time>2009-06-25T06:55:36Z</time>
      </trkpt>
      <trkpt lat="43.14479" lon="5.92051">
        <ele>184.12112426758</ele>
        <time>2009-06-25T06:55:43Z</time>
      </trkpt>
      <trkpt lat="43.14472" lon="5.92074">
        <ele>186.61265563965</ele>
        <time>2009-06-25T06:55:51Z</time>
      </trkpt>
      <trkpt lat="43.14465" lon="5.921">
        <ele>188.88275146484</ele>
        <time>2009-06-25T06:56:00Z</time>
      </trkpt>
      <trkpt lat="43.14461" lon="5.92123">
        <ele>190.74380493164</ele>
        <time>2009-06-25T06:56:07Z</time>
      </trkpt>
      <trkpt lat="43.14462" lon="5.92148">
        <ele>193.67050170898</ele>
        <time>2009-06-25T06:56:15Z</time>
      </trkpt>
      <trkpt lat="43.14468" lon="5.92167">
        <ele>198.60781860352</ele>
        <time>2009-06-25T06:56:22Z</time>
      </trkpt>
      <trkpt lat="43.14478" lon="5.92183">
        <ele>205.29180908203</ele>
        <time>2009-06-25T06:56:28Z</time>
      </trkpt>
      <trkpt lat="43.14491" lon="5.92201">
        <ele>213.57641601562</ele>
        <time>2009-06-25T06:56:34Z</time>
      </trkpt>
      <trkpt lat="43.14506" lon="5.9222">
        <ele>220.93431091309</ele>
        <time>2009-06-25T06:56:42Z</time>
      </trkpt>
      <trkpt lat="43.14519" lon="5.92237">
        <ele>225.21150207519</ele>
        <time>2009-06-25T06:56:49Z</time>
      </trkpt>
      <trkpt lat="43.14529" lon="5.9225">
        <ele>229.40072631836</ele>
        <time>2009-06-25T06:56:55Z</time>
      </trkpt>
      <trkpt lat="43.14541" lon="5.92272">
        <ele>236.51608276367</ele>
        <time>2009-06-25T06:57:03Z</time>
      </trkpt>
      <trkpt lat="43.14553" lon="5.92296">
        <ele>244.11209106445</ele>
        <time>2009-06-25T06:57:12Z</time>
      </trkpt>
      <trkpt lat="43.14556" lon="5.92308">
        <ele>246.330078125</ele>
        <time>2009-06-25T06:57:16Z</time>
      </trkpt>
      <trkpt lat="43.1455" lon="5.92319">
        <ele>245.84536743164</ele>
        <time>2009-06-25T06:57:20Z</time>
      </trkpt>
      <trkpt lat="43.14539" lon="5.92338">
        <ele>243.26457214356</ele>
        <time>2009-06-25T06:57:27Z</time>
      </trkpt>
      <trkpt lat="43.14529" lon="5.92362">
        <ele>240.42764282227</ele>
        <time>2009-06-25T06:57:34Z</time>
      </trkpt>
      <trkpt lat="43.14513" lon="5.92378">
        <ele>236.68733215332</ele>
        <time>2009-06-25T06:57:41Z</time>
      </trkpt>
      <trkpt lat="43.14498" lon="5.92401">
        <ele>234.7492980957</ele>
        <time>2009-06-25T06:57:48Z</time>
      </trkpt>
      <trkpt lat="43.14487" lon="5.92426">
        <ele>234.77838134766</ele>
        <time>2009-06-25T06:57:54Z</time>
      </trkpt>
      <trkpt lat="43.14478" lon="5.92457">
        <ele>236.08123779297</ele>
        <time>2009-06-25T06:58:02Z</time>
      </trkpt>
      <trkpt lat="43.14477" lon="5.92489">
        <ele>240.85552978516</ele>
        <time>2009-06-25T06:58:11Z</time>
      </trkpt>
      <trkpt lat="43.14482" lon="5.92517">
        <ele>245.90606689453</ele>
        <time>2009-06-25T06:58:19Z</time>
      </trkpt>
      <trkpt lat="43.14486" lon="5.92541">
        <ele>250.61123657227</ele>
        <time>2009-06-25T06:58:26Z</time>
      </trkpt>
      <trkpt lat="43.14481" lon="5.92551">
        <ele>252.03074645996</ele>
        <time>2009-06-25T06:58:30Z</time>
      </trkpt>
      <trkpt lat="43.14472" lon="5.9255">
        <ele>250.77395629883</ele>
        <time>2009-06-25T06:58:34Z</time>
      </trkpt>
      <trkpt lat="43.14457" lon="5.92543">
        <ele>246.31077575684</ele>
        <time>2009-06-25T06:58:40Z</time>
      </trkpt>
      <trkpt lat="43.14445" lon="5.92553">
        <ele>246.46394348144</ele>
        <time>2009-06-25T06:58:46Z</time>
      </trkpt>
      <trkpt lat="43.14434" lon="5.92566">
        <ele>248.35981750488</ele>
        <time>2009-06-25T06:58:53Z</time>
      </trkpt>
      <trkpt lat="43.1442" lon="5.92579">
        <ele>250.07615661621</ele>
        <time>2009-06-25T06:59:01Z</time>
      </trkpt>
      <trkpt lat="43.14401" lon="5.92593">
        <ele>250.42709350586</ele>
        <time>2009-06-25T06:59:11Z</time>
      </trkpt>
      <trkpt lat="43.14384" lon="5.926">
        <ele>249.36674499512</ele>
        <time>2009-06-25T06:59:19Z</time>
      </trkpt>
      <trkpt lat="43.14371" lon="5.92605">
        <ele>248.15016174316</ele>
        <time>2009-06-25T06:59:26Z</time>
      </trkpt>
      <trkpt lat="43.14359" lon="5.92611">
        <ele>247.45266723633</ele>
        <time>2009-06-25T06:59:32Z</time>
      </trkpt>
      <trkpt lat="43.14341" lon="5.9262">
        <ele>246.82843017578</ele>
        <time>2009-06-25T06:59:40Z</time>
      </trkpt>
      <trkpt lat="43.14319" lon="5.92625">
        <ele>242.94825744629</ele>
        <time>2009-06-25T06:59:49Z</time>
      </trkpt>
      <trkpt lat="43.14299" lon="5.9263">
        <ele>239.13497924805</ele>
        <time>2009-06-25T06:59:57Z</time>
      </trkpt>
      <trkpt lat="43.14278" lon="5.92634">
        <ele>238.44462585449</ele>
        <time>2009-06-25T07:00:05Z</time>
      </trkpt>
      <trkpt lat="43.14273" lon="5.92646">
        <ele>240.56759643555</ele>
        <time>2009-06-25T07:00:10Z</time>
      </trkpt>
      <trkpt lat="43.14283" lon="5.9265">
        <ele>242.40704345703</ele>
        <time>2009-06-25T07:00:14Z</time>
      </trkpt>
      <trkpt lat="43.14286" lon="5.9265">
        <ele>242.71334838867</ele>
        <time>2009-06-25T07:00:15Z</time>
      </trkpt>
      <trkpt lat="43.14302" lon="5.92648">
        <ele>244.53874206543</ele>
        <time>2009-06-25T07:00:22Z</time>
      </trkpt>
      <trkpt lat="43.14318" lon="5.92652">
        <ele>251.98933410644</ele>
        <time>2009-06-25T07:00:29Z</time>
      </trkpt>
      <trkpt lat="43.14337" lon="5.92655">
        <ele>261.39947509766</ele>
        <time>2009-06-25T07:00:37Z</time>
      </trkpt>
      <trkpt lat="43.14357" lon="5.92657">
        <ele>265.87982177734</ele>
        <time>2009-06-25T07:00:45Z</time>
      </trkpt>
      <trkpt lat="43.14367" lon="5.92657">
        <ele>267.15124511719</ele>
        <time>2009-06-25T07:00:50Z</time>
      </trkpt>
      <trkpt lat="43.1438" lon="5.92661">
        <ele>270.06604003906</ele>
        <time>2009-06-25T07:00:56Z</time>
      </trkpt>
      <trkpt lat="43.14399" lon="5.92668">
        <ele>274.49758911133</ele>
        <time>2009-06-25T07:01:05Z</time>
      </trkpt>
      <trkpt lat="43.14416" lon="5.92669">
        <ele>276.48370361328</ele>
        <time>2009-06-25T07:01:13Z</time>
      </trkpt>
      <trkpt lat="43.14434" lon="5.92668">
        <ele>278.93295288086</ele>
        <time>2009-06-25T07:01:21Z</time>
      </trkpt>
      <trkpt lat="43.1445" lon="5.92671">
        <ele>280.72662353516</ele>
        <time>2009-06-25T07:01:28Z</time>
      </trkpt>
      <trkpt lat="43.1447" lon="5.92669">
        <ele>280.45748901367</ele>
        <time>2009-06-25T07:01:36Z</time>
      </trkpt>
      <trkpt lat="43.14489" lon="5.92668">
        <ele>280.23687744141</ele>
        <time>2009-06-25T07:01:44Z</time>
      </trkpt>
      <trkpt lat="43.14511" lon="5.92668">
        <ele>281.90090942383</ele>
        <time>2009-06-25T07:01:53Z</time>
      </trkpt>
      <trkpt lat="43.14524" lon="5.92668">
        <ele>283.8154296875</ele>
        <time>2009-06-25T07:01:59Z</time>
      </trkpt>
      <trkpt lat="43.14549" lon="5.92671">
        <ele>289.10272216797</ele>
        <time>2009-06-25T07:02:09Z</time>
      </trkpt>
      <trkpt lat="43.14568" lon="5.92675">
        <ele>292.91622924805</ele>
        <time>2009-06-25T07:02:17Z</time>
      </trkpt>
      <trkpt lat="43.14587" lon="5.9268">
        <ele>298.59280395508</ele>
        <time>2009-06-25T07:02:25Z</time>
      </trkpt>
      <trkpt lat="43.14603" lon="5.92686">
        <ele>310.30352783203</ele>
        <time>2009-06-25T07:02:31Z</time>
      </trkpt>
      <trkpt lat="43.14611" lon="5.92681">
        <ele>315.98553466797</ele>
        <time>2009-06-25T07:02:35Z</time>
      </trkpt>
      <trkpt lat="43.14615" lon="5.92667">
        <ele>318.39068603516</ele>
        <time>2009-06-25T07:02:40Z</time>
      </trkpt>
      <trkpt lat="43.14613" lon="5.92647">
        <ele>314.71862792969</ele>
        <time>2009-06-25T07:02:46Z</time>
      </trkpt>
      <trkpt lat="43.14612" lon="5.92629">
        <ele>311.59698486328</ele>
        <time>2009-06-25T07:02:52Z</time>
      </trkpt>
      <trkpt lat="43.14612" lon="5.92608">
        <ele>309.49078369141</ele>
        <time>2009-06-25T07:02:59Z</time>
      </trkpt>
      <trkpt lat="43.14614" lon="5.9258">
        <ele>309.32229614258</ele>
        <time>2009-06-25T07:03:09Z</time>
      </trkpt>
      <trkpt lat="43.14618" lon="5.92561">
        <ele>310.24853515625</ele>
        <time>2009-06-25T07:03:16Z</time>
      </trkpt>
      <trkpt lat="43.14626" lon="5.9254">
        <ele>312.58059692383</ele>
        <time>2009-06-25T07:03:24Z</time>
      </trkpt>
      <trkpt lat="43.14634" lon="5.9252">
        <ele>315.73541259766</ele>
        <time>2009-06-25T07:03:32Z</time>
      </trkpt>
      <trkpt lat="43.14644" lon="5.92513">
        <ele>319.29925537109</ele>
        <time>2009-06-25T07:03:37Z</time>
      </trkpt>
      <trkpt lat="43.1466" lon="5.92515">
        <ele>325.03271484375</ele>
        <time>2009-06-25T07:03:45Z</time>
      </trkpt>
      <trkpt lat="43.14668" lon="5.92517">
        <ele>328.95681762695</ele>
        <time>2009-06-25T07:03:49Z</time>
      </trkpt>
      <trkpt lat="43.1468" lon="5.92508">
        <ele>334.70062255859</ele>
        <time>2009-06-25T07:03:55Z</time>
      </trkpt>
      <trkpt lat="43.14683" lon="5.92491">
        <ele>332.95297241211</ele>
        <time>2009-06-25T07:04:01Z</time>
      </trkpt>
      <trkpt lat="43.14688" lon="5.92472">
        <ele>331.96087646484</ele>
        <time>2009-06-25T07:04:07Z</time>
      </trkpt>
      <trkpt lat="43.14704" lon="5.92449">
        <ele>332.96969604492</ele>
        <time>2009-06-25T07:04:15Z</time>
      </trkpt>
      <trkpt lat="43.14726" lon="5.92428">
        <ele>339.46450805664</ele>
        <time>2009-06-25T07:04:25Z</time>
      </trkpt>
      <trkpt lat="43.14738" lon="5.92406">
        <ele>335.65948486328</ele>
        <time>2009-06-25T07:04:32Z</time>
      </trkpt>
      <trkpt lat="43.14741" lon="5.92378">
        <ele>327.30718994141</ele>
        <time>2009-06-25T07:04:39Z</time>
      </trkpt>
      <trkpt lat="43.14742" lon="5.92356">
        <ele>321.32260131836</ele>
        <time>2009-06-25T07:04:45Z</time>
      </trkpt>
      <trkpt lat="43.1474" lon="5.92325">
        <ele>310.38781738281</ele>
        <time>2009-06-25T07:04:55Z</time>
      </trkpt>
      <trkpt lat="43.14739" lon="5.92303">
        <ele>302.97750854492</ele>
        <time>2009-06-25T07:05:03Z</time>
      </trkpt>
      <trkpt lat="43.14737" lon="5.92278">
        <ele>297.81976318359</ele>
        <time>2009-06-25T07:05:11Z</time>
      </trkpt>
      <trkpt lat="43.1474" lon="5.92255">
        <ele>291.2106628418</ele>
        <time>2009-06-25T07:05:19Z</time>
      </trkpt>
      <trkpt lat="43.14747" lon="5.92225">
        <ele>282.64453125</ele>
        <time>2009-06-25T07:05:29Z</time>
      </trkpt>
      <trkpt lat="43.14751" lon="5.92206">
        <ele>279.44418334961</ele>
        <time>2009-06-25T07:05:35Z</time>
      </trkpt>
      <trkpt lat="43.14763" lon="5.92184">
        <ele>277.63702392578</ele>
        <time>2009-06-25T07:05:43Z</time>
      </trkpt>
      <trkpt lat="43.14778" lon="5.92167">
        <ele>276.36364746094</ele>
        <time>2009-06-25T07:05:51Z</time>
      </trkpt>
      <trkpt lat="43.14796" lon="5.92148">
        <ele>272.71365356445</ele>
        <time>2009-06-25T07:06:00Z</time>
      </trkpt>
      <trkpt lat="43.14802" lon="5.92143">
        <ele>272.65628051758</ele>
        <time>2009-06-25T07:06:03Z</time>
      </trkpt>
      <trkpt lat="43.1481" lon="5.9215">
        <ele>276.50765991211</ele>
        <time>2009-06-25T07:06:08Z</time>
      </trkpt>
      <trkpt lat="43.14804" lon="5.92157">
        <ele>279.06436157227</ele>
        <time>2009-06-25T07:06:12Z</time>
      </trkpt>
      <trkpt lat="43.14794" lon="5.92168">
        <ele>280.44232177734</ele>
        <time>2009-06-25T07:06:19Z</time>
      </trkpt>
      <trkpt lat="43.14786" lon="5.92181">
        <ele>283.24725341797</ele>
        <time>2009-06-25T07:06:25Z</time>
      </trkpt>
      <trkpt lat="43.14781" lon="5.92199">
        <ele>288.0295715332</ele>
        <time>2009-06-25T07:06:32Z</time>
      </trkpt>
      <trkpt lat="43.1478" lon="5.92224">
        <ele>294.15026855469</ele>
        <time>2009-06-25T07:06:41Z</time>
      </trkpt>
      <trkpt lat="43.1478" lon="5.92241">
        <ele>299.49325561523</ele>
        <time>2009-06-25T07:06:47Z</time>
      </trkpt>
      <trkpt lat="43.14782" lon="5.92265">
        <ele>307.79827880859</ele>
        <time>2009-06-25T07:06:56Z</time>
      </trkpt>
      <trkpt lat="43.14786" lon="5.92294">
        <ele>316.39636230469</ele>
        <time>2009-06-25T07:07:06Z</time>
      </trkpt>
      <trkpt lat="43.14792" lon="5.92317">
        <ele>324.74520874023</ele>
        <time>2009-06-25T07:07:14Z</time>
      </trkpt>
      <trkpt lat="43.14794" lon="5.92337">
        <ele>333.37493896484</ele>
        <time>2009-06-25T07:07:21Z</time>
      </trkpt>
      <trkpt lat="43.14796" lon="5.92357">
        <ele>343.53890991211</ele>
        <time>2009-06-25T07:07:28Z</time>
      </trkpt>
      <trkpt lat="43.14798" lon="5.92375">
        <ele>350.82202148438</ele>
        <time>2009-06-25T07:07:34Z</time>
      </trkpt>
      <trkpt lat="43.148" lon="5.92401">
        <ele>361.33355712891</ele>
        <time>2009-06-25T07:07:42Z</time>
      </trkpt>
      <trkpt lat="43.148" lon="5.9241">
        <ele>364.65692138672</ele>
        <time>2009-06-25T07:07:45Z</time>
      </trkpt>
      <trkpt lat="43.14799" lon="5.92413">
        <ele>365.4792175293</ele>
        <time>2009-06-25T07:07:52Z</time>
      </trkpt>
      <trkpt lat="43.14801" lon="5.92413">
        <ele>366.01428222656</ele>
        <time>2009-06-25T07:08:00Z</time>
      </trkpt>
      <trkpt lat="43.148" lon="5.9242">
        <ele>368.01266479492</ele>
        <time>2009-06-25T07:08:08Z</time>
      </trkpt>
      <trkpt lat="43.14798" lon="5.92436">
        <ele>370.71209716797</ele>
        <time>2009-06-25T07:08:13Z</time>
      </trkpt>
      <trkpt lat="43.14789" lon="5.92449">
        <ele>370.06369018555</ele>
        <time>2009-06-25T07:08:19Z</time>
      </trkpt>
      <trkpt lat="43.14779" lon="5.92461">
        <ele>369.51611328125</ele>
        <time>2009-06-25T07:08:25Z</time>
      </trkpt>
      <trkpt lat="43.14768" lon="5.92473">
        <ele>368.97198486328</ele>
        <time>2009-06-25T07:08:31Z</time>
      </trkpt>
      <trkpt lat="43.14762" lon="5.92496">
        <ele>374.76141357422</ele>
        <time>2009-06-25T07:08:38Z</time>
      </trkpt>
      <trkpt lat="43.14755" lon="5.92526">
        <ele>378.85614013672</ele>
        <time>2009-06-25T07:08:47Z</time>
      </trkpt>
      <trkpt lat="43.14751" lon="5.92545">
        <ele>380.17123413086</ele>
        <time>2009-06-25T07:08:54Z</time>
      </trkpt>
      <trkpt lat="43.14746" lon="5.9256">
        <ele>381.24703979492</ele>
        <time>2009-06-25T07:09:00Z</time>
      </trkpt>
      <trkpt lat="43.14743" lon="5.92584">
        <ele>384.85144042969</ele>
        <time>2009-06-25T07:09:08Z</time>
      </trkpt>
      <trkpt lat="43.14745" lon="5.92604">
        <ele>388.685546875</ele>
        <time>2009-06-25T07:09:14Z</time>
      </trkpt>
      <trkpt lat="43.1475" lon="5.92628">
        <ele>395.39263916016</ele>
        <time>2009-06-25T07:09:22Z</time>
      </trkpt>
      <trkpt lat="43.14753" lon="5.9265">
        <ele>399.99157714844</ele>
        <time>2009-06-25T07:09:29Z</time>
      </trkpt>
      <trkpt lat="43.14758" lon="5.92674">
        <ele>403.40420532227</ele>
        <time>2009-06-25T07:09:37Z</time>
      </trkpt>
      <trkpt lat="43.14758" lon="5.927">
        <ele>405.30895996094</ele>
        <time>2009-06-25T07:09:45Z</time>
      </trkpt>
      <trkpt lat="43.14759" lon="5.92723">
        <ele>408.20831298828</ele>
        <time>2009-06-25T07:09:52Z</time>
      </trkpt>
      <trkpt lat="43.14762" lon="5.92745">
        <ele>411.73254394531</ele>
        <time>2009-06-25T07:09:58Z</time>
      </trkpt>
      <trkpt lat="43.14758" lon="5.9277">
        <ele>412.43890380859</ele>
        <time>2009-06-25T07:10:04Z</time>
      </trkpt>
      <trkpt lat="43.14749" lon="5.9279">
        <ele>411.03625488281</ele>
        <time>2009-06-25T07:10:11Z</time>
      </trkpt>
      <trkpt lat="43.14742" lon="5.92811">
        <ele>410.78829956055</ele>
        <time>2009-06-25T07:10:18Z</time>
      </trkpt>
      <trkpt lat="43.14736" lon="5.92835">
        <ele>410.6181640625</ele>
        <time>2009-06-25T07:10:26Z</time>
      </trkpt>
      <trkpt lat="43.1473" lon="5.92858">
        <ele>411.04559326172</ele>
        <time>2009-06-25T07:10:33Z</time>
      </trkpt>
      <trkpt lat="43.14721" lon="5.92874">
        <ele>410.08258056641</ele>
        <time>2009-06-25T07:10:39Z</time>
      </trkpt>
      <trkpt lat="43.14706" lon="5.929">
        <ele>407.83526611328</ele>
        <time>2009-06-25T07:10:49Z</time>
      </trkpt>
      <trkpt lat="43.14689" lon="5.92922">
        <ele>402.14974975586</ele>
        <time>2009-06-25T07:10:58Z</time>
      </trkpt>
      <trkpt lat="43.14679" lon="5.92936">
        <ele>397.5065612793</ele>
        <time>2009-06-25T07:11:03Z</time>
      </trkpt>
      <trkpt lat="43.14684" lon="5.92948">
        <ele>399.28338623047</ele>
        <time>2009-06-25T07:11:07Z</time>
      </trkpt>
      <trkpt lat="43.1469" lon="5.92944">
        <ele>402.40399169922</ele>
        <time>2009-06-25T07:11:10Z</time>
      </trkpt>
      <trkpt lat="43.14693" lon="5.92939">
        <ele>403.60458374023</ele>
        <time>2009-06-25T07:11:12Z</time>
      </trkpt>
      <trkpt lat="43.14707" lon="5.92924">
        <ele>409.08605957031</ele>
        <time>2009-06-25T07:11:21Z</time>
      </trkpt>
      <trkpt lat="43.14724" lon="5.92908">
        <ele>414.46389770508</ele>
        <time>2009-06-25T07:11:31Z</time>
      </trkpt>
      <trkpt lat="43.14737" lon="5.92896">
        <ele>417.01361083984</ele>
        <time>2009-06-25T07:11:39Z</time>
      </trkpt>
      <trkpt lat="43.14749" lon="5.92889">
        <ele>419.73233032227</ele>
        <time>2009-06-25T07:11:45Z</time>
      </trkpt>
      <trkpt lat="43.1477" lon="5.92871">
        <ele>424.63745117188</ele>
        <time>2009-06-25T07:11:55Z</time>
      </trkpt>
      <trkpt lat="43.14783" lon="5.92857">
        <ele>427.55941772461</ele>
        <time>2009-06-25T07:12:02Z</time>
      </trkpt>
      <trkpt lat="43.14795" lon="5.9284">
        <ele>430.01419067383</ele>
        <time>2009-06-25T07:12:09Z</time>
      </trkpt>
      <trkpt lat="43.14806" lon="5.92816">
        <ele>431.99395751953</ele>
        <time>2009-06-25T07:12:18Z</time>
      </trkpt>
      <trkpt lat="43.14816" lon="5.92792">
        <ele>432.78125</ele>
        <time>2009-06-25T07:12:28Z</time>
      </trkpt>
      <trkpt lat="43.14825" lon="5.9277">
        <ele>433.13940429688</ele>
        <time>2009-06-25T07:12:37Z</time>
      </trkpt>
      <trkpt lat="43.1483" lon="5.92745">
        <ele>432.6012878418</ele>
        <time>2009-06-25T07:12:46Z</time>
      </trkpt>
      <trkpt lat="43.14833" lon="5.92725">
        <ele>431.3420715332</ele>
        <time>2009-06-25T07:12:53Z</time>
      </trkpt>
      <trkpt lat="43.14834" lon="5.92699">
        <ele>428.82196044922</ele>
        <time>2009-06-25T07:13:01Z</time>
      </trkpt>
      <trkpt lat="43.14835" lon="5.92671">
        <ele>427.11529541016</ele>
        <time>2009-06-25T07:13:10Z</time>
      </trkpt>
      <trkpt lat="43.14833" lon="5.92647">
        <ele>423.93487548828</ele>
        <time>2009-06-25T07:13:17Z</time>
      </trkpt>
      <trkpt lat="43.14825" lon="5.92613">
        <ele>417.75827026367</ele>
        <time>2009-06-25T07:13:27Z</time>
      </trkpt>
      <trkpt lat="43.14828" lon="5.92599">
        <ele>417.65182495117</ele>
        <time>2009-06-25T07:13:31Z</time>
      </trkpt>
      <trkpt lat="43.1484" lon="5.92595">
        <ele>420.60009765625</ele>
        <time>2009-06-25T07:13:36Z</time>
      </trkpt>
      <trkpt lat="43.14859" lon="5.92594">
        <ele>425.61865234375</ele>
        <time>2009-06-25T07:13:44Z</time>
      </trkpt>
      <trkpt lat="43.14877" lon="5.92581">
        <ele>428.10803222656</ele>
        <time>2009-06-25T07:13:52Z</time>
      </trkpt>
      <trkpt lat="43.14896" lon="5.92565">
        <ele>428.84020996094</ele>
        <time>2009-06-25T07:14:01Z</time>
      </trkpt>
      <trkpt lat="43.14913" lon="5.92548">
        <ele>427.32498168945</ele>
        <time>2009-06-25T07:14:09Z</time>
      </trkpt>
      <trkpt lat="43.1493" lon="5.9252">
        <ele>418.39248657227</ele>
        <time>2009-06-25T07:14:18Z</time>
      </trkpt>
      <trkpt lat="43.14945" lon="5.925">
        <ele>409.67916870117</ele>
        <time>2009-06-25T07:14:25Z</time>
      </trkpt>
      <trkpt lat="43.14954" lon="5.92502">
        <ele>407.24490356445</ele>
        <time>2009-06-25T07:14:29Z</time>
      </trkpt>
      <trkpt lat="43.14953" lon="5.92511">
        <ele>408.72119140625</ele>
        <time>2009-06-25T07:14:32Z</time>
      </trkpt>
      <trkpt lat="43.14942" lon="5.9253">
        <ele>415.38656616211</ele>
        <time>2009-06-25T07:14:40Z</time>
      </trkpt>
      <trkpt lat="43.14933" lon="5.92544">
        <ele>421.4328918457</ele>
        <time>2009-06-25T07:14:47Z</time>
      </trkpt>
      <trkpt lat="43.14923" lon="5.92562">
        <ele>427.82022094727</ele>
        <time>2009-06-25T07:14:55Z</time>
      </trkpt>
      <trkpt lat="43.14913" lon="5.92579">
        <ele>432.16357421875</ele>
        <time>2009-06-25T07:15:03Z</time>
      </trkpt>
      <trkpt lat="43.14905" lon="5.92594">
        <ele>433.26086425781</ele>
        <time>2009-06-25T07:15:09Z</time>
      </trkpt>
      <trkpt lat="43.14896" lon="5.92611">
        <ele>434.54187011719</ele>
        <time>2009-06-25T07:15:16Z</time>
      </trkpt>
      <trkpt lat="43.14889" lon="5.92629">
        <ele>436.54940795898</ele>
        <time>2009-06-25T07:15:22Z</time>
      </trkpt>
      <trkpt lat="43.14889" lon="5.92649">
        <ele>439.05603027344</ele>
        <time>2009-06-25T07:15:28Z</time>
      </trkpt>
      <trkpt lat="43.14894" lon="5.92671">
        <ele>441.68499755859</ele>
        <time>2009-06-25T07:15:36Z</time>
      </trkpt>
      <trkpt lat="43.14907" lon="5.92684">
        <ele>443.54235839844</ele>
        <time>2009-06-25T07:15:43Z</time>
      </trkpt>
      <trkpt lat="43.14922" lon="5.927">
        <ele>445.12869262695</ele>
        <time>2009-06-25T07:15:50Z</time>
      </trkpt>
      <trkpt lat="43.14925" lon="5.92719">
        <ele>446.72061157227</ele>
        <time>2009-06-25T07:15:56Z</time>
      </trkpt>
      <trkpt lat="43.14923" lon="5.92734">
        <ele>448.40972900391</ele>
        <time>2009-06-25T07:16:01Z</time>
      </trkpt>
      <trkpt lat="43.1492" lon="5.92757">
        <ele>450.63836669922</ele>
        <time>2009-06-25T07:16:09Z</time>
      </trkpt>
      <trkpt lat="43.14918" lon="5.92779">
        <ele>452.15045166016</ele>
        <time>2009-06-25T07:16:17Z</time>
      </trkpt>
      <trkpt lat="43.14917" lon="5.92808">
        <ele>454.25866699219</ele>
        <time>2009-06-25T07:16:27Z</time>
      </trkpt>
      <trkpt lat="43.14919" lon="5.92839">
        <ele>457.20785522461</ele>
        <time>2009-06-25T07:16:38Z</time>
      </trkpt>
      <trkpt lat="43.14923" lon="5.92868">
        <ele>464.09854125977</ele>
        <time>2009-06-25T07:16:48Z</time>
      </trkpt>
      <trkpt lat="43.14927" lon="5.92887">
        <ele>472.67556762695</ele>
        <time>2009-06-25T07:16:55Z</time>
      </trkpt>
      <trkpt lat="43.14931" lon="5.92905">
        <ele>479.07879638672</ele>
        <time>2009-06-25T07:17:02Z</time>
      </trkpt>
      <trkpt lat="43.14933" lon="5.92926">
        <ele>485.04321289062</ele>
        <time>2009-06-25T07:17:09Z</time>
      </trkpt>
      <trkpt lat="43.14936" lon="5.92946">
        <ele>491.61227416992</ele>
        <time>2009-06-25T07:17:16Z</time>
      </trkpt>
      <trkpt lat="43.14939" lon="5.92964">
        <ele>495.82455444336</ele>
        <time>2009-06-25T07:17:22Z</time>
      </trkpt>
      <trkpt lat="43.14938" lon="5.92987">
        <ele>496.49270629883</ele>
        <time>2009-06-25T07:17:29Z</time>
      </trkpt>
      <trkpt lat="43.1494" lon="5.93008">
        <ele>496.03887939453</ele>
        <time>2009-06-25T07:17:36Z</time>
      </trkpt>
      <trkpt lat="43.14942" lon="5.93013">
        <ele>495.69131469727</ele>
        <time>2009-06-25T07:17:38Z</time>
      </trkpt>
      <trkpt lat="43.14951" lon="5.93021">
        <ele>496.58563232422</ele>
        <time>2009-06-25T07:17:43Z</time>
      </trkpt>
      <trkpt lat="43.14954" lon="5.9302">
        <ele>497.10302734375</ele>
        <time>2009-06-25T07:17:44Z</time>
      </trkpt>
      <trkpt lat="43.14969" lon="5.93015">
        <ele>499.66357421875</ele>
        <time>2009-06-25T07:17:51Z</time>
      </trkpt>
      <trkpt lat="43.14982" lon="5.93012">
        <ele>500</ele>
        <time>2009-06-25T07:17:56Z</time>
      </trkpt>
      <trkpt lat="43.15002" lon="5.93015">
        <ele>500</ele>
        <time>2009-06-25T07:18:03Z</time>
      </trkpt>
      <trkpt lat="43.15016" lon="5.9302">
        <ele>500</ele>
        <time>2009-06-25T07:18:09Z</time>
      </trkpt>
      <trkpt lat="43.15027" lon="5.93033">
        <ele>499.99325561523</ele>
        <time>2009-06-25T07:18:15Z</time>
      </trkpt>
      <trkpt lat="43.15039" lon="5.93047">
        <ele>500</ele>
        <time>2009-06-25T07:18:21Z</time>
      </trkpt>
      <trkpt lat="43.15051" lon="5.93065">
        <ele>500</ele>
        <time>2009-06-25T07:18:26Z</time>
      </trkpt>
      <trkpt lat="43.15058" lon="5.93086">
        <ele>499.9020690918</ele>
        <time>2009-06-25T07:18:30Z</time>
      </trkpt>
      <trkpt lat="43.15059" lon="5.93098">
        <ele>499.20651245117</ele>
        <time>2009-06-25T07:18:32Z</time>
      </trkpt>
      <trkpt lat="43.15054" lon="5.93156">
        <ele>494.65481567383</ele>
        <time>2009-06-25T07:18:39Z</time>
      </trkpt>
      <trkpt lat="43.15052" lon="5.93165">
        <ele>493.87203979492</ele>
        <time>2009-06-25T07:18:40Z</time>
      </trkpt>
      <trkpt lat="43.1505" lon="5.93201">
        <ele>490.31616210938</ele>
        <time>2009-06-25T07:18:44Z</time>
      </trkpt>
      <trkpt lat="43.1505" lon="5.93209">
        <ele>489.97314453125</ele>
        <time>2009-06-25T07:18:45Z</time>
      </trkpt>
      <trkpt lat="43.1505" lon="5.93217">
        <ele>489.65505981445</ele>
        <time>2009-06-25T07:18:46Z</time>
      </trkpt>
      <trkpt lat="43.15048" lon="5.93248">
        <ele>486.40960693359</ele>
        <time>2009-06-25T07:18:50Z</time>
      </trkpt>
      <trkpt lat="43.15055" lon="5.93279">
        <ele>485.90789794922</ele>
        <time>2009-06-25T07:18:54Z</time>
      </trkpt>
      <trkpt lat="43.15082" lon="5.93331">
        <ele>489.77734375</ele>
        <time>2009-06-25T07:19:02Z</time>
      </trkpt>
      <trkpt lat="43.15091" lon="5.93343">
        <ele>490.53530883789</ele>
        <time>2009-06-25T07:19:04Z</time>
      </trkpt>
      <trkpt lat="43.15124" lon="5.93364">
        <ele>493.90991210938</ele>
        <time>2009-06-25T07:19:10Z</time>
      </trkpt>
      <trkpt lat="43.15129" lon="5.93367">
        <ele>494.32189941406</ele>
        <time>2009-06-25T07:19:11Z</time>
      </trkpt>
      <trkpt lat="43.15155" lon="5.93405">
        <ele>496.13024902344</ele>
        <time>2009-06-25T07:19:17Z</time>
      </trkpt>
      <trkpt lat="43.15171" lon="5.9346">
        <ele>496.91909790039</ele>
        <time>2009-06-25T07:19:24Z</time>
      </trkpt>
      <trkpt lat="43.15184" lon="5.93512">
        <ele>497.88491821289</ele>
        <time>2009-06-25T07:19:31Z</time>
      </trkpt>
      <trkpt lat="43.15197" lon="5.93568">
        <ele>500.49957275391</ele>
        <time>2009-06-25T07:19:38Z</time>
      </trkpt>
      <trkpt lat="43.15217" lon="5.93628">
        <ele>503.66827392578</ele>
        <time>2009-06-25T07:19:46Z</time>
      </trkpt>
      <trkpt lat="43.15223" lon="5.93656">
        <ele>504.14904785156</ele>
        <time>2009-06-25T07:19:50Z</time>
      </trkpt>
      <trkpt lat="43.15223" lon="5.93691">
        <ele>503.27789306641</ele>
        <time>2009-06-25T07:19:56Z</time>
      </trkpt>
      <trkpt lat="43.15218" lon="5.93737">
        <ele>498.78939819336</ele>
        <time>2009-06-25T07:20:03Z</time>
      </trkpt>
      <trkpt lat="43.15216" lon="5.93776">
        <ele>497.11682128906</ele>
        <time>2009-06-25T07:20:09Z</time>
      </trkpt>
      <trkpt lat="43.15213" lon="5.93811">
        <ele>496.98419189453</ele>
        <time>2009-06-25T07:20:14Z</time>
      </trkpt>
      <trkpt lat="43.15214" lon="5.93833">
        <ele>498.07965087891</ele>
        <time>2009-06-25T07:20:17Z</time>
      </trkpt>
      <trkpt lat="43.15226" lon="5.93883">
        <ele>506.69299316406</ele>
        <time>2009-06-25T07:20:24Z</time>
      </trkpt>
      <trkpt lat="43.15231" lon="5.93897">
        <ele>510.51342773438</ele>
        <time>2009-06-25T07:20:26Z</time>
      </trkpt>
      <trkpt lat="43.15242" lon="5.93932">
        <ele>516.89227294922</ele>
        <time>2009-06-25T07:20:31Z</time>
      </trkpt>
      <trkpt lat="43.15242" lon="5.93967">
        <ele>519.65277099609</ele>
        <time>2009-06-25T07:20:36Z</time>
      </trkpt>
      <trkpt lat="43.15239" lon="5.93978">
        <ele>520.54901123047</ele>
        <time>2009-06-25T07:20:38Z</time>
      </trkpt>
      <trkpt lat="43.15223" lon="5.93982">
        <ele>519.50018310547</ele>
        <time>2009-06-25T07:20:42Z</time>
      </trkpt>
      <trkpt lat="43.15187" lon="5.9399">
        <ele>518.7939453125</ele>
        <time>2009-06-25T07:20:49Z</time>
      </trkpt>
      <trkpt lat="43.15179" lon="5.93993">
        <ele>518.90606689453</ele>
        <time>2009-06-25T07:20:51Z</time>
      </trkpt>
      <trkpt lat="43.15163" lon="5.93996">
        <ele>518.73712158203</ele>
        <time>2009-06-25T07:20:55Z</time>
      </trkpt>
      <trkpt lat="43.15131" lon="5.94004">
        <ele>517.66192626953</ele>
        <time>2009-06-25T07:21:03Z</time>
      </trkpt>
      <trkpt lat="43.15097" lon="5.94012">
        <ele>515.52337646484</ele>
        <time>2009-06-25T07:21:12Z</time>
      </trkpt>
      <trkpt lat="43.15065" lon="5.94012">
        <ele>507.99337768555</ele>
        <time>2009-06-25T07:21:20Z</time>
      </trkpt>
      <trkpt lat="43.15057" lon="5.94014">
        <ele>506.2734375</ele>
        <time>2009-06-25T07:21:22Z</time>
      </trkpt>
      <trkpt lat="43.15041" lon="5.94023">
        <ele>504.75082397461</ele>
        <time>2009-06-25T07:21:26Z</time>
      </trkpt>
      <trkpt lat="43.15031" lon="5.94035">
        <ele>504.69143676758</ele>
        <time>2009-06-25T07:21:29Z</time>
      </trkpt>
      <trkpt lat="43.1502" lon="5.94053">
        <ele>504.69500732422</ele>
        <time>2009-06-25T07:21:33Z</time>
      </trkpt>
      <trkpt lat="43.15007" lon="5.94083">
        <ele>504.10601806641</ele>
        <time>2009-06-25T07:21:38Z</time>
      </trkpt>
      <trkpt lat="43.1501" lon="5.9413">
        <ele>509.5573425293</ele>
        <time>2009-06-25T07:21:44Z</time>
      </trkpt>
      <trkpt lat="43.1501" lon="5.94153">
        <ele>510.51538085938</ele>
        <time>2009-06-25T07:21:47Z</time>
      </trkpt>
      <trkpt lat="43.1501" lon="5.94201">
        <ele>510.33483886719</ele>
        <time>2009-06-25T07:21:53Z</time>
      </trkpt>
      <trkpt lat="43.15012" lon="5.94232">
        <ele>511.59228515625</ele>
        <time>2009-06-25T07:21:57Z</time>
      </trkpt>
      <trkpt lat="43.15026" lon="5.94291">
        <ele>516.45397949219</ele>
        <time>2009-06-25T07:22:05Z</time>
      </trkpt>
      <trkpt lat="43.15044" lon="5.94357">
        <ele>518.29455566406</ele>
        <time>2009-06-25T07:22:14Z</time>
      </trkpt>
      <trkpt lat="43.1506" lon="5.94405">
        <ele>519.85040283203</ele>
        <time>2009-06-25T07:22:21Z</time>
      </trkpt>
      <trkpt lat="43.15081" lon="5.94467">
        <ele>519.86120605469</ele>
        <time>2009-06-25T07:22:30Z</time>
      </trkpt>
      <trkpt lat="43.15086" lon="5.94487">
        <ele>520.69189453125</ele>
        <time>2009-06-25T07:22:33Z</time>
      </trkpt>
      <trkpt lat="43.15083" lon="5.94517">
        <ele>519.92584228516</ele>
        <time>2009-06-25T07:22:38Z</time>
      </trkpt>
      <trkpt lat="43.1507" lon="5.94519">
        <ele>518.70806884766</ele>
        <time>2009-06-25T07:22:41Z</time>
      </trkpt>
      <trkpt lat="43.15058" lon="5.94514">
        <ele>517.71038818359</ele>
        <time>2009-06-25T07:22:43Z</time>
      </trkpt>
      <trkpt lat="43.15046" lon="5.94506">
        <ele>517.12432861328</ele>
        <time>2009-06-25T07:22:45Z</time>
      </trkpt>
      <trkpt lat="43.15016" lon="5.94478">
        <ele>513.91137695312</ele>
        <time>2009-06-25T07:22:51Z</time>
      </trkpt>
      <trkpt lat="43.15011" lon="5.94473">
        <ele>513.01873779297</ele>
        <time>2009-06-25T07:22:52Z</time>
      </trkpt>
      <trkpt lat="43.14985" lon="5.94461">
        <ele>507.3369140625</ele>
        <time>2009-06-25T07:22:56Z</time>
      </trkpt>
      <trkpt lat="43.14957" lon="5.94464">
        <ele>504.15310668945</ele>
        <time>2009-06-25T07:23:00Z</time>
      </trkpt>
      <trkpt lat="43.14946" lon="5.94472">
        <ele>504.05523681641</ele>
        <time>2009-06-25T07:23:02Z</time>
      </trkpt>
      <trkpt lat="43.14927" lon="5.94494">
        <ele>503.56134033203</ele>
        <time>2009-06-25T07:23:06Z</time>
      </trkpt>
      <trkpt lat="43.14929" lon="5.94514">
        <ele>504.89233398438</ele>
        <time>2009-06-25T07:23:09Z</time>
      </trkpt>
      <trkpt lat="43.14933" lon="5.94525">
        <ele>505.95666503906</ele>
        <time>2009-06-25T07:23:11Z</time>
      </trkpt>
      <trkpt lat="43.14939" lon="5.94543">
        <ele>507.68011474609</ele>
        <time>2009-06-25T07:23:14Z</time>
      </trkpt>
      <trkpt lat="43.14949" lon="5.94566">
        <ele>510.47009277344</ele>
        <time>2009-06-25T07:23:18Z</time>
      </trkpt>
      <trkpt lat="43.14956" lon="5.94584">
        <ele>512.83215332031</ele>
        <time>2009-06-25T07:23:21Z</time>
      </trkpt>
      <trkpt lat="43.14959" lon="5.94612">
        <ele>516.12084960938</ele>
        <time>2009-06-25T07:23:26Z</time>
      </trkpt>
      <trkpt lat="43.14949" lon="5.94623">
        <ele>516.21356201172</ele>
        <time>2009-06-25T07:23:29Z</time>
      </trkpt>
      <trkpt lat="43.14932" lon="5.94633">
        <ele>515.66424560547</ele>
        <time>2009-06-25T07:23:33Z</time>
      </trkpt>
      <trkpt lat="43.14923" lon="5.94636">
        <ele>515.20422363281</ele>
        <time>2009-06-25T07:23:35Z</time>
      </trkpt>
      <trkpt lat="43.14878" lon="5.94651">
        <ele>512.76385498047</ele>
        <time>2009-06-25T07:23:45Z</time>
      </trkpt>
      <trkpt lat="43.14874" lon="5.94651">
        <ele>512.16644287109</ele>
        <time>2009-06-25T07:23:46Z</time>
      </trkpt>
      <trkpt lat="43.14851" lon="5.94658">
        <ele>510.60861206055</ele>
        <time>2009-06-25T07:23:51Z</time>
      </trkpt>
      <trkpt lat="43.1484" lon="5.94666">
        <ele>511.07553100586</ele>
        <time>2009-06-25T07:23:54Z</time>
      </trkpt>
      <trkpt lat="43.14824" lon="5.94677">
        <ele>511.17282104492</ele>
        <time>2009-06-25T07:23:58Z</time>
      </trkpt>
      <trkpt lat="43.14809" lon="5.94703">
        <ele>512.00268554688</ele>
        <time>2009-06-25T07:24:03Z</time>
      </trkpt>
      <trkpt lat="43.14807" lon="5.9472">
        <ele>512.95025634766</ele>
        <time>2009-06-25T07:24:06Z</time>
      </trkpt>
      <trkpt lat="43.14808" lon="5.94739">
        <ele>515.09814453125</ele>
        <time>2009-06-25T07:24:10Z</time>
      </trkpt>
      <trkpt lat="43.14808" lon="5.9476">
        <ele>517.36975097656</ele>
        <time>2009-06-25T07:24:14Z</time>
      </trkpt>
      <trkpt lat="43.14805" lon="5.94805">
        <ele>519.81005859375</ele>
        <time>2009-06-25T07:24:23Z</time>
      </trkpt>
      <trkpt lat="43.14798" lon="5.94836">
        <ele>521.78363037109</ele>
        <time>2009-06-25T07:24:30Z</time>
      </trkpt>
      <trkpt lat="43.14789" lon="5.94858">
        <ele>522.50543212891</ele>
        <time>2009-06-25T07:24:35Z</time>
      </trkpt>
      <trkpt lat="43.1478" lon="5.9489">
        <ele>521.82287597656</ele>
        <time>2009-06-25T07:24:41Z</time>
      </trkpt>
      <trkpt lat="43.14778" lon="5.94926">
        <ele>524.99389648438</ele>
        <time>2009-06-25T07:24:48Z</time>
      </trkpt>
      <trkpt lat="43.1478" lon="5.94951">
        <ele>525.96472167969</ele>
        <time>2009-06-25T07:24:53Z</time>
      </trkpt>
      <trkpt lat="43.1479" lon="5.94983">
        <ele>530.94934082031</ele>
        <time>2009-06-25T07:25:00Z</time>
      </trkpt>
      <trkpt lat="43.14794" lon="5.95014">
        <ele>532.61877441406</ele>
        <time>2009-06-25T07:25:06Z</time>
      </trkpt>
      <trkpt lat="43.14798" lon="5.95057">
        <ele>534.26635742188</ele>
        <time>2009-06-25T07:25:14Z</time>
      </trkpt>
      <trkpt lat="43.14805" lon="5.95096">
        <ele>539.47277832031</ele>
        <time>2009-06-25T07:25:21Z</time>
      </trkpt>
      <trkpt lat="43.14806" lon="5.95103">
        <ele>540.04632568359</ele>
        <time>2009-06-25T07:25:22Z</time>
      </trkpt>
      <trkpt lat="43.14807" lon="5.95116">
        <ele>539.38818359375</ele>
        <time>2009-06-25T07:25:24Z</time>
      </trkpt>
      <trkpt lat="43.14807" lon="5.95131">
        <ele>537.39459228516</ele>
        <time>2009-06-25T07:25:26Z</time>
      </trkpt>
      <trkpt lat="43.14805" lon="5.95191">
        <ele>529.87188720703</ele>
        <time>2009-06-25T07:25:34Z</time>
      </trkpt>
      <trkpt lat="43.14804" lon="5.95252">
        <ele>529.52868652344</ele>
        <time>2009-06-25T07:25:42Z</time>
      </trkpt>
      <trkpt lat="43.14804" lon="5.95277">
        <ele>529.41271972656</ele>
        <time>2009-06-25T07:25:45Z</time>
      </trkpt>
      <trkpt lat="43.14799" lon="5.9533">
        <ele>532.50103759766</ele>
        <time>2009-06-25T07:25:51Z</time>
      </trkpt>
      <trkpt lat="43.14792" lon="5.95381">
        <ele>533.84521484375</ele>
        <time>2009-06-25T07:25:56Z</time>
      </trkpt>
      <trkpt lat="43.14783" lon="5.95433">
        <ele>535.14855957031</ele>
        <time>2009-06-25T07:26:01Z</time>
      </trkpt>
      <trkpt lat="43.14772" lon="5.95483">
        <ele>531.28875732422</ele>
        <time>2009-06-25T07:26:07Z</time>
      </trkpt>
      <trkpt lat="43.14769" lon="5.95491">
        <ele>530.31402587891</ele>
        <time>2009-06-25T07:26:08Z</time>
      </trkpt>
      <trkpt lat="43.14756" lon="5.95538">
        <ele>532.55242919922</ele>
        <time>2009-06-25T07:26:14Z</time>
      </trkpt>
      <trkpt lat="43.14735" lon="5.95605">
        <ele>531.41735839844</ele>
        <time>2009-06-25T07:26:23Z</time>
      </trkpt>
      <trkpt lat="43.14716" lon="5.95657">
        <ele>537.57019042969</ele>
        <time>2009-06-25T07:26:31Z</time>
      </trkpt>
      <trkpt lat="43.14703" lon="5.95692">
        <ele>534.18115234375</ele>
        <time>2009-06-25T07:26:37Z</time>
      </trkpt>
      <trkpt lat="43.14691" lon="5.95726">
        <ele>540</ele>
        <time>2009-06-25T07:26:44Z</time>
      </trkpt>
      <trkpt lat="43.14682" lon="5.95751">
        <ele>540</ele>
        <time>2009-06-25T07:26:51Z</time>
      </trkpt>
      <trkpt lat="43.14677" lon="5.95771">
        <ele>540</ele>
        <time>2009-06-25T07:26:56Z</time>
      </trkpt>
      <trkpt lat="43.1467" lon="5.95794">
        <ele>539.13812255859</ele>
        <time>2009-06-25T07:27:02Z</time>
      </trkpt>
      <trkpt lat="43.14663" lon="5.95825">
        <ele>540</ele>
        <time>2009-06-25T07:27:09Z</time>
      </trkpt>
      <trkpt lat="43.14653" lon="5.9585">
        <ele>540</ele>
        <time>2009-06-25T07:27:15Z</time>
      </trkpt>
      <trkpt lat="43.14647" lon="5.95873">
        <ele>539.37335205078</ele>
        <time>2009-06-25T07:27:21Z</time>
      </trkpt>
      <trkpt lat="43.14639" lon="5.95897">
        <ele>540</ele>
        <time>2009-06-25T07:27:27Z</time>
      </trkpt>
      <trkpt lat="43.14626" lon="5.9593">
        <ele>538.68151855469</ele>
        <time>2009-06-25T07:27:35Z</time>
      </trkpt>
      <trkpt lat="43.14613" lon="5.95953">
        <ele>539.58038330078</ele>
        <time>2009-06-25T07:27:41Z</time>
      </trkpt>
      <trkpt lat="43.14596" lon="5.95963">
        <ele>540</ele>
        <time>2009-06-25T07:27:46Z</time>
      </trkpt>
      <trkpt lat="43.14581" lon="5.95969">
        <ele>540</ele>
        <time>2009-06-25T07:27:50Z</time>
      </trkpt>
      <trkpt lat="43.14567" lon="5.95976">
        <ele>540</ele>
        <time>2009-06-25T07:27:54Z</time>
      </trkpt>
      <trkpt lat="43.14565" lon="5.95977">
        <ele>540</ele>
        <time>2009-06-25T07:27:55Z</time>
      </trkpt>
      <trkpt lat="43.14519" lon="5.95998">
        <ele>540</ele>
        <time>2009-06-25T07:34:54Z</time>
      </trkpt>
      <trkpt lat="43.14515" lon="5.96001">
        <ele>540</ele>
        <time>2009-06-25T07:34:55Z</time>
      </trkpt>
      <trkpt lat="43.14502" lon="5.96003">
        <ele>540</ele>
        <time>2009-06-25T07:35:00Z</time>
      </trkpt>
      <trkpt lat="43.14495" lon="5.95989">
        <ele>540</ele>
        <time>2009-06-25T07:35:03Z</time>
      </trkpt>
      <trkpt lat="43.14495" lon="5.95983">
        <ele>540</ele>
        <time>2009-06-25T07:35:04Z</time>
      </trkpt>
      <trkpt lat="43.14495" lon="5.95943">
        <ele>539.98492431641</ele>
        <time>2009-06-25T07:35:09Z</time>
      </trkpt>
      <trkpt lat="43.14495" lon="5.95895">
        <ele>539.22784423828</ele>
        <time>2009-06-25T07:35:13Z</time>
      </trkpt>
      <trkpt lat="43.14496" lon="5.95823">
        <ele>537.09362792969</ele>
        <time>2009-06-25T07:35:18Z</time>
      </trkpt>
      <trkpt lat="43.14497" lon="5.9579">
        <ele>533.32873535156</ele>
        <time>2009-06-25T07:35:21Z</time>
      </trkpt>
      <trkpt lat="43.14484" lon="5.95784">
        <ele>528.50592041016</ele>
        <time>2009-06-25T07:35:25Z</time>
      </trkpt>
      <trkpt lat="43.14465" lon="5.95806">
        <ele>523.60791015625</ele>
        <time>2009-06-25T07:35:28Z</time>
      </trkpt>
      <trkpt lat="43.14445" lon="5.95845">
        <ele>520.68615722656</ele>
        <time>2009-06-25T07:35:32Z</time>
      </trkpt>
      <trkpt lat="43.14428" lon="5.95908">
        <ele>517.14990234375</ele>
        <time>2009-06-25T07:35:37Z</time>
      </trkpt>
      <trkpt lat="43.14415" lon="5.9597">
        <ele>514.95739746094</ele>
        <time>2009-06-25T07:35:42Z</time>
      </trkpt>
      <trkpt lat="43.14413" lon="5.95979">
        <ele>514.59698486328</ele>
        <time>2009-06-25T07:35:43Z</time>
      </trkpt>
      <trkpt lat="43.14407" lon="5.95982">
        <ele>511.33511352539</ele>
        <time>2009-06-25T07:35:47Z</time>
      </trkpt>
      <trkpt lat="43.14408" lon="5.95976">
        <ele>511.18182373047</ele>
        <time>2009-06-25T07:35:48Z</time>
      </trkpt>
      <trkpt lat="43.14413" lon="5.95935">
        <ele>512.36669921875</ele>
        <time>2009-06-25T07:35:52Z</time>
      </trkpt>
      <trkpt lat="43.14414" lon="5.95924">
        <ele>511.5588684082</ele>
        <time>2009-06-25T07:35:53Z</time>
      </trkpt>
      <trkpt lat="43.14407" lon="5.95897">
        <ele>505.84600830078</ele>
        <time>2009-06-25T07:35:57Z</time>
      </trkpt>
      <trkpt lat="43.14396" lon="5.95907">
        <ele>501.74673461914</ele>
        <time>2009-06-25T07:36:00Z</time>
      </trkpt>
      <trkpt lat="43.14389" lon="5.95936">
        <ele>499.78070068359</ele>
        <time>2009-06-25T07:36:03Z</time>
      </trkpt>
      <trkpt lat="43.14386" lon="5.95955">
        <ele>498.81774902344</ele>
        <time>2009-06-25T07:36:06Z</time>
      </trkpt>
      <trkpt lat="43.14381" lon="5.95944">
        <ele>497.16354370117</ele>
        <time>2009-06-25T07:36:09Z</time>
      </trkpt>
      <trkpt lat="43.14382" lon="5.95937">
        <ele>497.12582397461</ele>
        <time>2009-06-25T07:36:10Z</time>
      </trkpt>
      <trkpt lat="43.14384" lon="5.95887">
        <ele>495.01049804688</ele>
        <time>2009-06-25T07:36:14Z</time>
      </trkpt>
      <trkpt lat="43.14374" lon="5.95808">
        <ele>486.79559326172</ele>
        <time>2009-06-25T07:36:19Z</time>
      </trkpt>
      <trkpt lat="43.14372" lon="5.9577">
        <ele>484.51412963867</ele>
        <time>2009-06-25T07:36:22Z</time>
      </trkpt>
      <trkpt lat="43.14365" lon="5.95749">
        <ele>480.96691894531</ele>
        <time>2009-06-25T07:36:25Z</time>
      </trkpt>
      <trkpt lat="43.14359" lon="5.95767">
        <ele>480.4033203125</ele>
        <time>2009-06-25T07:36:28Z</time>
      </trkpt>
      <trkpt lat="43.14356" lon="5.95783">
        <ele>480.62576293945</ele>
        <time>2009-06-25T07:36:29Z</time>
      </trkpt>
      <trkpt lat="43.14337" lon="5.95872">
        <ele>480.79244995117</ele>
        <time>2009-06-25T07:36:35Z</time>
      </trkpt>
      <trkpt lat="43.14334" lon="5.95887">
        <ele>480.09768676758</ele>
        <time>2009-06-25T07:36:36Z</time>
      </trkpt>
      <trkpt lat="43.14326" lon="5.95935">
        <ele>474.96936035156</ele>
        <time>2009-06-25T07:36:40Z</time>
      </trkpt>
      <trkpt lat="43.14325" lon="5.95942">
        <ele>474.01751708984</ele>
        <time>2009-06-25T07:36:43Z</time>
      </trkpt>
      <trkpt lat="43.14328" lon="5.95914">
        <ele>476.58825683594</ele>
        <time>2009-06-25T07:36:46Z</time>
      </trkpt>
      <trkpt lat="43.14326" lon="5.95885">
        <ele>475.6901550293</ele>
        <time>2009-06-25T07:36:48Z</time>
      </trkpt>
      <trkpt lat="43.14319" lon="5.95848">
        <ele>469.13970947266</ele>
        <time>2009-06-25T07:36:50Z</time>
      </trkpt>
      <trkpt lat="43.14304" lon="5.95755">
        <ele>459.55960083008</ele>
        <time>2009-06-25T07:36:56Z</time>
      </trkpt>
      <trkpt lat="43.143" lon="5.95712">
        <ele>456.70065307617</ele>
        <time>2009-06-25T07:36:59Z</time>
      </trkpt>
      <trkpt lat="43.14284" lon="5.95716">
        <ele>451.6413269043</ele>
        <time>2009-06-25T07:37:02Z</time>
      </trkpt>
      <trkpt lat="43.14278" lon="5.95734">
        <ele>450.08560180664</ele>
        <time>2009-06-25T07:37:04Z</time>
      </trkpt>
      <trkpt lat="43.14275" lon="5.95754">
        <ele>449.12142944336</ele>
        <time>2009-06-25T07:37:05Z</time>
      </trkpt>
      <trkpt lat="43.1426" lon="5.95847">
        <ele>442.50888061523</ele>
        <time>2009-06-25T07:37:11Z</time>
      </trkpt>
      <trkpt lat="43.14251" lon="5.95898">
        <ele>437.57754516602</ele>
        <time>2009-06-25T07:37:15Z</time>
      </trkpt>
      <trkpt lat="43.14249" lon="5.95906">
        <ele>436.27496337891</ele>
        <time>2009-06-25T07:37:16Z</time>
      </trkpt>
      <trkpt lat="43.14241" lon="5.95899">
        <ele>432.62890625</ele>
        <time>2009-06-25T07:37:20Z</time>
      </trkpt>
      <trkpt lat="43.14243" lon="5.95886">
        <ele>434.07641601562</ele>
        <time>2009-06-25T07:37:21Z</time>
      </trkpt>
      <trkpt lat="43.14236" lon="5.95824">
        <ele>432.65417480469</ele>
        <time>2009-06-25T07:37:25Z</time>
      </trkpt>
      <trkpt lat="43.14222" lon="5.95752">
        <ele>428.93698120117</ele>
        <time>2009-06-25T07:37:30Z</time>
      </trkpt>
      <trkpt lat="43.14214" lon="5.95735">
        <ele>426.40768432617</ele>
        <time>2009-06-25T07:37:32Z</time>
      </trkpt>
      <trkpt lat="43.14201" lon="5.95743">
        <ele>421.73162841797</ele>
        <time>2009-06-25T07:37:35Z</time>
      </trkpt>
      <trkpt lat="43.14191" lon="5.95772">
        <ele>416.40017700195</ele>
        <time>2009-06-25T07:37:37Z</time>
      </trkpt>
      <trkpt lat="43.14187" lon="5.95787">
        <ele>413.78820800781</ele>
        <time>2009-06-25T07:37:38Z</time>
      </trkpt>
      <trkpt lat="43.14173" lon="5.95838">
        <ele>403.91479492188</ele>
        <time>2009-06-25T07:37:42Z</time>
      </trkpt>
      <trkpt lat="43.14164" lon="5.95838">
        <ele>399.53894042969</ele>
        <time>2009-06-25T07:37:45Z</time>
      </trkpt>
      <trkpt lat="43.14151" lon="5.95821">
        <ele>398.43286132812</ele>
        <time>2009-06-25T07:37:47Z</time>
      </trkpt>
      <trkpt lat="43.14125" lon="5.95775">
        <ele>395.75183105469</ele>
        <time>2009-06-25T07:37:52Z</time>
      </trkpt>
      <trkpt lat="43.14127" lon="5.95731">
        <ele>397.53341674805</ele>
        <time>2009-06-25T07:37:55Z</time>
      </trkpt>
      <trkpt lat="43.14134" lon="5.95639">
        <ele>399.35144042969</ele>
        <time>2009-06-25T07:38:01Z</time>
      </trkpt>
      <trkpt lat="43.14137" lon="5.95573">
        <ele>402.62631225586</ele>
        <time>2009-06-25T07:38:06Z</time>
      </trkpt>
      <trkpt lat="43.14146" lon="5.9551">
        <ele>397.95068359375</ele>
        <time>2009-06-25T07:38:11Z</time>
      </trkpt>
      <trkpt lat="43.14154" lon="5.95449">
        <ele>393.41409301758</ele>
        <time>2009-06-25T07:38:15Z</time>
      </trkpt>
      <trkpt lat="43.14157" lon="5.95418">
        <ele>390.26211547852</ele>
        <time>2009-06-25T07:38:17Z</time>
      </trkpt>
      <trkpt lat="43.14149" lon="5.95355">
        <ele>382.18273925781</ele>
        <time>2009-06-25T07:38:21Z</time>
      </trkpt>
      <trkpt lat="43.14142" lon="5.95344">
        <ele>379.9580078125</ele>
        <time>2009-06-25T07:38:22Z</time>
      </trkpt>
      <trkpt lat="43.1413" lon="5.95323">
        <ele>378.08337402344</ele>
        <time>2009-06-25T07:38:24Z</time>
      </trkpt>
      <trkpt lat="43.14104" lon="5.95265">
        <ele>376.19946289062</ele>
        <time>2009-06-25T07:38:30Z</time>
      </trkpt>
      <trkpt lat="43.141" lon="5.95255">
        <ele>375.74627685547</ele>
        <time>2009-06-25T07:38:31Z</time>
      </trkpt>
      <trkpt lat="43.14089" lon="5.95206">
        <ele>374.63391113281</ele>
        <time>2009-06-25T07:38:36Z</time>
      </trkpt>
      <trkpt lat="43.14087" lon="5.95148">
        <ele>375.23034667969</ele>
        <time>2009-06-25T07:38:41Z</time>
      </trkpt>
      <trkpt lat="43.14085" lon="5.95136">
        <ele>375.09301757812</ele>
        <time>2009-06-25T07:38:42Z</time>
      </trkpt>
      <trkpt lat="43.14062" lon="5.95096">
        <ele>370.41760253906</ele>
        <time>2009-06-25T07:38:46Z</time>
      </trkpt>
      <trkpt lat="43.14041" lon="5.95053">
        <ele>372.06927490234</ele>
        <time>2009-06-25T07:38:50Z</time>
      </trkpt>
      <trkpt lat="43.14039" lon="5.95016">
        <ele>371.68536376953</ele>
        <time>2009-06-25T07:38:53Z</time>
      </trkpt>
      <trkpt lat="43.14049" lon="5.94987">
        <ele>369.62939453125</ele>
        <time>2009-06-25T07:38:56Z</time>
      </trkpt>
      <trkpt lat="43.14054" lon="5.9498">
        <ele>368.44970703125</ele>
        <time>2009-06-25T07:38:57Z</time>
      </trkpt>
      <trkpt lat="43.14072" lon="5.94918">
        <ele>373.44451904297</ele>
        <time>2009-06-25T07:39:02Z</time>
      </trkpt>
      <trkpt lat="43.14077" lon="5.9489">
        <ele>374.94665527344</ele>
        <time>2009-06-25T07:39:04Z</time>
      </trkpt>
      <trkpt lat="43.14098" lon="5.94848">
        <ele>378.02685546875</ele>
        <time>2009-06-25T07:39:08Z</time>
      </trkpt>
      <trkpt lat="43.14116" lon="5.94803">
        <ele>379.15887451172</ele>
        <time>2009-06-25T07:39:12Z</time>
      </trkpt>
      <trkpt lat="43.14128" lon="5.94749">
        <ele>379.59832763672</ele>
        <time>2009-06-25T07:39:16Z</time>
      </trkpt>
      <trkpt lat="43.14137" lon="5.9471">
        <ele>379.94165039062</ele>
        <time>2009-06-25T07:39:19Z</time>
      </trkpt>
      <trkpt lat="43.14124" lon="5.94657">
        <ele>380</ele>
        <time>2009-06-25T07:39:23Z</time>
      </trkpt>
      <trkpt lat="43.14108" lon="5.94618">
        <ele>379.87048339844</ele>
        <time>2009-06-25T07:39:26Z</time>
      </trkpt>
      <trkpt lat="43.14079" lon="5.94574">
        <ele>377.18432617188</ele>
        <time>2009-06-25T07:39:30Z</time>
      </trkpt>
      <trkpt lat="43.14054" lon="5.94558">
        <ele>366.54446411133</ele>
        <time>2009-06-25T07:39:33Z</time>
      </trkpt>
      <trkpt lat="43.14034" lon="5.94552">
        <ele>361.63635253906</ele>
        <time>2009-06-25T07:39:35Z</time>
      </trkpt>
      <trkpt lat="43.13991" lon="5.94544">
        <ele>358.27261352539</ele>
        <time>2009-06-25T07:39:40Z</time>
      </trkpt>
      <trkpt lat="43.13983" lon="5.94547">
        <ele>358.38098144531</ele>
        <time>2009-06-25T07:39:42Z</time>
      </trkpt>
      <trkpt lat="43.13992" lon="5.94519">
        <ele>351.59204101562</ele>
        <time>2009-06-25T07:39:45Z</time>
      </trkpt>
      <trkpt lat="43.13998" lon="5.94497">
        <ele>344.87615966797</ele>
        <time>2009-06-25T07:39:47Z</time>
      </trkpt>
      <trkpt lat="43.14007" lon="5.9447">
        <ele>343.70639038086</ele>
        <time>2009-06-25T07:39:49Z</time>
      </trkpt>
      <trkpt lat="43.1401" lon="5.94414">
        <ele>339.50338745117</ele>
        <time>2009-06-25T07:39:53Z</time>
      </trkpt>
      <trkpt lat="43.14006" lon="5.94327">
        <ele>341.24307250977</ele>
        <time>2009-06-25T07:39:59Z</time>
      </trkpt>
      <trkpt lat="43.13984" lon="5.94262">
        <ele>321.74273681641</ele>
        <time>2009-06-25T07:40:04Z</time>
      </trkpt>
      <trkpt lat="43.13963" lon="5.94214">
        <ele>298.10107421875</ele>
        <time>2009-06-25T07:40:08Z</time>
      </trkpt>
      <trkpt lat="43.13933" lon="5.94178">
        <ele>273.4660949707</ele>
        <time>2009-06-25T07:40:12Z</time>
      </trkpt>
      <trkpt lat="43.13923" lon="5.94161">
        <ele>265.68872070312</ele>
        <time>2009-06-25T07:40:14Z</time>
      </trkpt>
      <trkpt lat="43.13905" lon="5.94151">
        <ele>253.09132385254</ele>
        <time>2009-06-25T07:40:18Z</time>
      </trkpt>
      <trkpt lat="43.13909" lon="5.94164">
        <ele>256.38037109375</ele>
        <time>2009-06-25T07:40:20Z</time>
      </trkpt>
      <trkpt lat="43.13916" lon="5.94184">
        <ele>263.73684692383</ele>
        <time>2009-06-25T07:40:22Z</time>
      </trkpt>
      <trkpt lat="43.13928" lon="5.94219">
        <ele>273.42889404297</ele>
        <time>2009-06-25T07:40:25Z</time>
      </trkpt>
      <trkpt lat="43.13955" lon="5.94274">
        <ele>292.70098876953</ele>
        <time>2009-06-25T07:40:30Z</time>
      </trkpt>
      <trkpt lat="43.13957" lon="5.94299">
        <ele>293.4030456543</ele>
        <time>2009-06-25T07:40:32Z</time>
      </trkpt>
      <trkpt lat="43.13948" lon="5.94365">
        <ele>293.21304321289</ele>
        <time>2009-06-25T07:40:38Z</time>
      </trkpt>
      <trkpt lat="43.13952" lon="5.9439">
        <ele>300.14270019531</ele>
        <time>2009-06-25T07:40:41Z</time>
      </trkpt>
      <trkpt lat="43.13953" lon="5.94418">
        <ele>307.52352905273</ele>
        <time>2009-06-25T07:40:43Z</time>
      </trkpt>
      <trkpt lat="43.13954" lon="5.94437">
        <ele>315.52490234375</ele>
        <time>2009-06-25T07:40:45Z</time>
      </trkpt>
      <trkpt lat="43.13955" lon="5.94434">
        <ele>314.86126708984</ele>
        <time>2009-06-25T07:40:49Z</time>
      </trkpt>
      <trkpt lat="43.13939" lon="5.94406">
        <ele>299.03405761719</ele>
        <time>2009-06-25T07:40:53Z</time>
      </trkpt>
      <trkpt lat="43.13918" lon="5.94389">
        <ele>287.46563720703</ele>
        <time>2009-06-25T07:40:56Z</time>
      </trkpt>
      <trkpt lat="43.13905" lon="5.94378">
        <ele>280.10510253906</ele>
        <time>2009-06-25T07:40:58Z</time>
      </trkpt>
      <trkpt lat="43.13875" lon="5.94375">
        <ele>269.35400390625</ele>
        <time>2009-06-25T07:41:02Z</time>
      </trkpt>
      <trkpt lat="43.13866" lon="5.94374">
        <ele>266.6526184082</ele>
        <time>2009-06-25T07:41:03Z</time>
      </trkpt>
      <trkpt lat="43.13849" lon="5.94373">
        <ele>259.94766235352</ele>
        <time>2009-06-25T07:41:05Z</time>
      </trkpt>
      <trkpt lat="43.13817" lon="5.94387">
        <ele>254.23231506348</ele>
        <time>2009-06-25T07:41:09Z</time>
      </trkpt>
      <trkpt lat="43.13802" lon="5.9439">
        <ele>250.46029663086</ele>
        <time>2009-06-25T07:41:12Z</time>
      </trkpt>
      <trkpt lat="43.13809" lon="5.94392">
        <ele>253.26577758789</ele>
        <time>2009-06-25T07:41:16Z</time>
      </trkpt>
      <trkpt lat="43.13824" lon="5.94381">
        <ele>253.62626647949</ele>
        <time>2009-06-25T07:41:18Z</time>
      </trkpt>
      <trkpt lat="43.13837" lon="5.94365">
        <ele>251.69175720215</ele>
        <time>2009-06-25T07:41:20Z</time>
      </trkpt>
      <trkpt lat="43.13882" lon="5.94342">
        <ele>262.93481445312</ele>
        <time>2009-06-25T07:41:25Z</time>
      </trkpt>
      <trkpt lat="43.13905" lon="5.9433">
        <ele>271.05358886719</ele>
        <time>2009-06-25T07:41:28Z</time>
      </trkpt>
      <trkpt lat="43.13906" lon="5.94289">
        <ele>267.9128112793</ele>
        <time>2009-06-25T07:41:31Z</time>
      </trkpt>
      <trkpt lat="43.13895" lon="5.94257">
        <ele>257.29840087891</ele>
        <time>2009-06-25T07:41:34Z</time>
      </trkpt>
      <trkpt lat="43.13879" lon="5.94253">
        <ele>249.36743164062</ele>
        <time>2009-06-25T07:41:36Z</time>
      </trkpt>
      <trkpt lat="43.13849" lon="5.94242">
        <ele>234.82550048828</ele>
        <time>2009-06-25T07:41:39Z</time>
      </trkpt>
      <trkpt lat="43.13842" lon="5.94236">
        <ele>230.68768310547</ele>
        <time>2009-06-25T07:41:40Z</time>
      </trkpt>
      <trkpt lat="43.1381" lon="5.94182">
        <ele>196.53729248047</ele>
        <time>2009-06-25T07:41:45Z</time>
      </trkpt>
      <trkpt lat="43.13799" lon="5.94134">
        <ele>190.11053466797</ele>
        <time>2009-06-25T07:41:49Z</time>
      </trkpt>
      <trkpt lat="43.13799" lon="5.94126">
        <ele>189.54405212402</ele>
        <time>2009-06-25T07:41:52Z</time>
      </trkpt>
      <trkpt lat="43.13799" lon="5.94116">
        <ele>188.87800598144</ele>
        <time>2009-06-25T07:41:53Z</time>
      </trkpt>
      <trkpt lat="43.13798" lon="5.941">
        <ele>187.74607849121</ele>
        <time>2009-06-25T07:41:54Z</time>
      </trkpt>
      <trkpt lat="43.13789" lon="5.9407">
        <ele>185.61717224121</ele>
        <time>2009-06-25T07:41:57Z</time>
      </trkpt>
      <trkpt lat="43.1378" lon="5.94022">
        <ele>182.66606140137</ele>
        <time>2009-06-25T07:42:02Z</time>
      </trkpt>
      <trkpt lat="43.13796" lon="5.93987">
        <ele>181.54632568359</ele>
        <time>2009-06-25T07:42:05Z</time>
      </trkpt>
      <trkpt lat="43.1384" lon="5.93922">
        <ele>179.84210205078</ele>
        <time>2009-06-25T07:42:11Z</time>
      </trkpt>
      <trkpt lat="43.13875" lon="5.93894">
        <ele>183.15621948242</ele>
        <time>2009-06-25T07:42:15Z</time>
      </trkpt>
      <trkpt lat="43.13914" lon="5.93882">
        <ele>196.82081604004</ele>
        <time>2009-06-25T07:42:19Z</time>
      </trkpt>
      <trkpt lat="43.13942" lon="5.9388">
        <ele>213.17834472656</ele>
        <time>2009-06-25T07:42:23Z</time>
      </trkpt>
      <trkpt lat="43.13948" lon="5.93852">
        <ele>216.45343017578</ele>
        <time>2009-06-25T07:42:27Z</time>
      </trkpt>
      <trkpt lat="43.13941" lon="5.93843">
        <ele>211.16191101074</ele>
        <time>2009-06-25T07:42:29Z</time>
      </trkpt>
      <trkpt lat="43.13923" lon="5.93837">
        <ele>198.76754760742</ele>
        <time>2009-06-25T07:42:31Z</time>
      </trkpt>
      <trkpt lat="43.13879" lon="5.93815">
        <ele>179.39723205566</ele>
        <time>2009-06-25T07:42:36Z</time>
      </trkpt>
      <trkpt lat="43.13861" lon="5.93806">
        <ele>175.98963928223</ele>
        <time>2009-06-25T07:42:38Z</time>
      </trkpt>
      <trkpt lat="43.13816" lon="5.93761">
        <ele>163.98164367676</ele>
        <time>2009-06-25T07:42:43Z</time>
      </trkpt>
      <trkpt lat="43.1378" lon="5.93742">
        <ele>159.41200256348</ele>
        <time>2009-06-25T07:42:47Z</time>
      </trkpt>
      <trkpt lat="43.13773" lon="5.93739">
        <ele>158.28607177734</ele>
        <time>2009-06-25T07:42:48Z</time>
      </trkpt>
      <trkpt lat="43.13756" lon="5.93721">
        <ele>155.13851928711</ele>
        <time>2009-06-25T07:42:52Z</time>
      </trkpt>
      <trkpt lat="43.1375" lon="5.93729">
        <ele>152.37396240234</ele>
        <time>2009-06-25T07:43:37Z</time>
      </trkpt>
      <trkpt lat="43.13754" lon="5.93736">
        <ele>152.78425598144</ele>
        <time>2009-06-25T07:43:38Z</time>
      </trkpt>
      <trkpt lat="43.13771" lon="5.93757">
        <ele>155.60194396973</ele>
        <time>2009-06-25T07:43:42Z</time>
      </trkpt>
      <trkpt lat="43.13775" lon="5.93763">
        <ele>156.40213012695</ele>
        <time>2009-06-25T07:43:43Z</time>
      </trkpt>
      <trkpt lat="43.13776" lon="5.93803">
        <ele>157.47718811035</ele>
        <time>2009-06-25T07:43:46Z</time>
      </trkpt>
      <trkpt lat="43.13775" lon="5.93813">
        <ele>157.81718444824</ele>
        <time>2009-06-25T07:43:47Z</time>
      </trkpt>
      <trkpt lat="43.13765" lon="5.93844">
        <ele>158.37158203125</ele>
        <time>2009-06-25T07:43:51Z</time>
      </trkpt>
      <trkpt lat="43.13753" lon="5.9385">
        <ele>157.50984191894</ele>
        <time>2009-06-25T07:43:53Z</time>
      </trkpt>
      <trkpt lat="43.13704" lon="5.93858">
        <ele>143.82992553711</ele>
        <time>2009-06-25T07:44:00Z</time>
      </trkpt>
      <trkpt lat="43.13672" lon="5.93865">
        <ele>137.24928283691</ele>
        <time>2009-06-25T07:44:04Z</time>
      </trkpt>
      <trkpt lat="43.13645" lon="5.93886">
        <ele>133.08897399902</ele>
        <time>2009-06-25T07:44:08Z</time>
      </trkpt>
      <trkpt lat="43.13631" lon="5.93914">
        <ele>135.97845458984</ele>
        <time>2009-06-25T07:44:11Z</time>
      </trkpt>
      <trkpt lat="43.13626" lon="5.93954">
        <ele>139.57757568359</ele>
        <time>2009-06-25T07:44:15Z</time>
      </trkpt>
      <trkpt lat="43.13634" lon="5.93994">
        <ele>143.73313903809</ele>
        <time>2009-06-25T07:44:19Z</time>
      </trkpt>
      <trkpt lat="43.1365" lon="5.94021">
        <ele>147.37756347656</ele>
        <time>2009-06-25T07:44:22Z</time>
      </trkpt>
      <trkpt lat="43.13656" lon="5.94028">
        <ele>148.29307556152</ele>
        <time>2009-06-25T07:44:23Z</time>
      </trkpt>
      <trkpt lat="43.13668" lon="5.94041">
        <ele>150.87742614746</ele>
        <time>2009-06-25T07:44:25Z</time>
      </trkpt>
      <trkpt lat="43.13679" lon="5.94073">
        <ele>158.45443725586</ele>
        <time>2009-06-25T07:44:29Z</time>
      </trkpt>
      <trkpt lat="43.1368" lon="5.94083">
        <ele>159.34364318848</ele>
        <time>2009-06-25T07:44:30Z</time>
      </trkpt>
      <trkpt lat="43.13678" lon="5.9412">
        <ele>161.92051696777</ele>
        <time>2009-06-25T07:44:34Z</time>
      </trkpt>
      <trkpt lat="43.13655" lon="5.94135">
        <ele>156.86578369141</ele>
        <time>2009-06-25T07:44:38Z</time>
      </trkpt>
      <trkpt lat="43.13648" lon="5.94133">
        <ele>156.24780273438</ele>
        <time>2009-06-25T07:44:39Z</time>
      </trkpt>
      <trkpt lat="43.13635" lon="5.94128">
        <ele>154.74931335449</ele>
        <time>2009-06-25T07:44:41Z</time>
      </trkpt>
      <trkpt lat="43.13608" lon="5.94131">
        <ele>151.46440124512</ele>
        <time>2009-06-25T07:44:45Z</time>
      </trkpt>
      <trkpt lat="43.13602" lon="5.94134">
        <ele>150.67431640625</ele>
        <time>2009-06-25T07:44:46Z</time>
      </trkpt>
      <trkpt lat="43.13585" lon="5.9415">
        <ele>149.58871459961</ele>
        <time>2009-06-25T07:44:49Z</time>
      </trkpt>
      <trkpt lat="43.13568" lon="5.94175">
        <ele>149.89895629883</ele>
        <time>2009-06-25T07:44:53Z</time>
      </trkpt>
      <trkpt lat="43.13534" lon="5.94228">
        <ele>151.92530822754</ele>
        <time>2009-06-25T07:45:01Z</time>
      </trkpt>
      <trkpt lat="43.13513" lon="5.94275">
        <ele>153.25526428223</ele>
        <time>2009-06-25T07:45:07Z</time>
      </trkpt>
      <trkpt lat="43.13486" lon="5.94354">
        <ele>157.83062744141</ele>
        <time>2009-06-25T07:45:16Z</time>
      </trkpt>
      <trkpt lat="43.13474" lon="5.94419">
        <ele>161.69354248047</ele>
        <time>2009-06-25T07:45:23Z</time>
      </trkpt>
      <trkpt lat="43.13461" lon="5.94477">
        <ele>160.98434448242</ele>
        <time>2009-06-25T07:45:29Z</time>
      </trkpt>
      <trkpt lat="43.13446" lon="5.94566">
        <ele>160.34173583984</ele>
        <time>2009-06-25T07:45:39Z</time>
      </trkpt>
      <trkpt lat="43.13437" lon="5.94637">
        <ele>158.63134765625</ele>
        <time>2009-06-25T07:45:47Z</time>
      </trkpt>
      <trkpt lat="43.13428" lon="5.94695">
        <ele>160.01213073731</ele>
        <time>2009-06-25T07:45:54Z</time>
      </trkpt>
      <trkpt lat="43.13417" lon="5.94753">
        <ele>159.25273132324</ele>
        <time>2009-06-25T07:46:01Z</time>
      </trkpt>
      <trkpt lat="43.13404" lon="5.94817">
        <ele>160.62898254394</ele>
        <time>2009-06-25T07:46:09Z</time>
      </trkpt>
      <trkpt lat="43.134" lon="5.9484">
        <ele>161.39886474609</ele>
        <time>2009-06-25T07:46:12Z</time>
      </trkpt>
      <trkpt lat="43.13389" lon="5.94866">
        <ele>160.36427307129</ele>
        <time>2009-06-25T07:46:16Z</time>
      </trkpt>
      <trkpt lat="43.13353" lon="5.94902">
        <ele>150.14649963379</ele>
        <time>2009-06-25T07:46:22Z</time>
      </trkpt>
      <trkpt lat="43.13325" lon="5.94935">
        <ele>144.4504699707</ele>
        <time>2009-06-25T07:46:26Z</time>
      </trkpt>
      <trkpt lat="43.13316" lon="5.94962">
        <ele>143.57388305664</ele>
        <time>2009-06-25T07:46:28Z</time>
      </trkpt>
      <trkpt lat="43.13289" lon="5.95054">
        <ele>138.00814819336</ele>
        <time>2009-06-25T07:46:34Z</time>
      </trkpt>
      <trkpt lat="43.13268" lon="5.95112">
        <ele>129.99954223633</ele>
        <time>2009-06-25T07:46:38Z</time>
      </trkpt>
      <trkpt lat="43.13248" lon="5.95163">
        <ele>123.00080871582</ele>
        <time>2009-06-25T07:46:42Z</time>
      </trkpt>
      <trkpt lat="43.13247" lon="5.95207">
        <ele>122.32007598877</ele>
        <time>2009-06-25T07:46:46Z</time>
      </trkpt>
      <trkpt lat="43.13263" lon="5.95243">
        <ele>124.16300201416</ele>
        <time>2009-06-25T07:46:50Z</time>
      </trkpt>
      <trkpt lat="43.13282" lon="5.95266">
        <ele>127.98122406006</ele>
        <time>2009-06-25T07:46:53Z</time>
      </trkpt>
      <trkpt lat="43.13309" lon="5.95317">
        <ele>132.09921264648</ele>
        <time>2009-06-25T07:46:59Z</time>
      </trkpt>
      <trkpt lat="43.13321" lon="5.9535">
        <ele>133.26782226562</ele>
        <time>2009-06-25T07:47:03Z</time>
      </trkpt>
      <trkpt lat="43.1333" lon="5.95373">
        <ele>135.30561828613</ele>
        <time>2009-06-25T07:47:07Z</time>
      </trkpt>
      <trkpt lat="43.1333" lon="5.9539">
        <ele>136.6487121582</ele>
        <time>2009-06-25T07:47:12Z</time>
      </trkpt>
      <trkpt lat="43.13326" lon="5.9539">
        <ele>135.94250488281</ele>
        <time>2009-06-25T07:47:16Z</time>
      </trkpt>
      <trkpt lat="43.13307" lon="5.9538">
        <ele>132.59336853027</ele>
        <time>2009-06-25T07:47:20Z</time>
      </trkpt>
      <trkpt lat="43.13282" lon="5.95372">
        <ele>126.26156616211</ele>
        <time>2009-06-25T07:47:23Z</time>
      </trkpt>
      <trkpt lat="43.13228" lon="5.95355">
        <ele>112.65534973144</ele>
        <time>2009-06-25T07:47:28Z</time>
      </trkpt>
      <trkpt lat="43.13218" lon="5.95351">
        <ele>110.47662353516</ele>
        <time>2009-06-25T07:47:29Z</time>
      </trkpt>
      <trkpt lat="43.13171" lon="5.95324">
        <ele>100.75945281982</ele>
        <time>2009-06-25T07:47:34Z</time>
      </trkpt>
      <trkpt lat="43.1313" lon="5.95316">
        <ele>89.278984069824</ele>
        <time>2009-06-25T07:47:38Z</time>
      </trkpt>
      <trkpt lat="43.13065" lon="5.9531">
        <ele>75.516151428223</ele>
        <time>2009-06-25T07:47:44Z</time>
      </trkpt>
      <trkpt lat="43.1301" lon="5.95293">
        <ele>69.461769104004</ele>
        <time>2009-06-25T07:47:49Z</time>
      </trkpt>
      <trkpt lat="43.12993" lon="5.95286">
        <ele>68.116607666016</ele>
        <time>2009-06-25T07:47:51Z</time>
      </trkpt>
      <trkpt lat="43.12977" lon="5.95288">
        <ele>65.085067749023</ele>
        <time>2009-06-25T07:47:54Z</time>
      </trkpt>
      <trkpt lat="43.12973" lon="5.95307">
        <ele>63.006542205811</ele>
        <time>2009-06-25T07:47:57Z</time>
      </trkpt>
      <trkpt lat="43.12973" lon="5.95316">
        <ele>62.457885742188</ele>
        <time>2009-06-25T07:47:58Z</time>
      </trkpt>
      <trkpt lat="43.12981" lon="5.95384">
        <ele>61.014579772949</ele>
        <time>2009-06-25T07:48:05Z</time>
      </trkpt>
      <trkpt lat="43.12982" lon="5.95394">
        <ele>60.89665222168</ele>
        <time>2009-06-25T07:48:06Z</time>
      </trkpt>
      <trkpt lat="43.12991" lon="5.95449">
        <ele>59.3759765625</ele>
        <time>2009-06-25T07:48:12Z</time>
      </trkpt>
      <trkpt lat="43.12993" lon="5.95458">
        <ele>59.513305664062</ele>
        <time>2009-06-25T07:48:13Z</time>
      </trkpt>
      <trkpt lat="43.12986" lon="5.95483">
        <ele>58.638893127441</ele>
        <time>2009-06-25T07:48:17Z</time>
      </trkpt>
      <trkpt lat="43.12966" lon="5.95486">
        <ele>56.860107421875</ele>
        <time>2009-06-25T07:48:20Z</time>
      </trkpt>
      <trkpt lat="43.12952" lon="5.9548">
        <ele>55.531448364258</ele>
        <time>2009-06-25T07:48:22Z</time>
      </trkpt>
      <trkpt lat="43.12919" lon="5.95475">
        <ele>53.096733093262</ele>
        <time>2009-06-25T07:48:27Z</time>
      </trkpt>
      <trkpt lat="43.12913" lon="5.95478">
        <ele>52.524284362793</ele>
        <time>2009-06-25T07:48:28Z</time>
      </trkpt>
      <trkpt lat="43.12867" lon="5.95513">
        <ele>48.113319396973</ele>
        <time>2009-06-25T07:48:34Z</time>
      </trkpt>
      <trkpt lat="43.1284" lon="5.95535">
        <ele>45.196876525879</ele>
        <time>2009-06-25T07:48:38Z</time>
      </trkpt>
      <trkpt lat="43.12833" lon="5.95539">
        <ele>44.548843383789</ele>
        <time>2009-06-25T07:48:39Z</time>
      </trkpt>
      <trkpt lat="43.1282" lon="5.95557">
        <ele>42.53010559082</ele>
        <time>2009-06-25T07:48:43Z</time>
      </trkpt>
      <trkpt lat="43.1282" lon="5.95563">
        <ele>42.315528869629</ele>
        <time>2009-06-25T07:48:44Z</time>
      </trkpt>
      <trkpt lat="43.1282" lon="5.95597">
        <ele>41.051094055176</ele>
        <time>2009-06-25T07:48:48Z</time>
      </trkpt>
      <trkpt lat="43.12823" lon="5.95609">
        <ele>40.74153137207</ele>
        <time>2009-06-25T07:48:52Z</time>
      </trkpt>
      <trkpt lat="43.12823" lon="5.9561">
        <ele>40.686126708984</ele>
        <time>2009-06-25T07:48:54Z</time>
      </trkpt>
      <trkpt lat="43.12811" lon="5.95609">
        <ele>40.202701568604</ele>
        <time>2009-06-25T07:48:58Z</time>
      </trkpt>
      <trkpt lat="43.12784" lon="5.95614">
        <ele>38.205673217773</ele>
        <time>2009-06-25T07:49:03Z</time>
      </trkpt>
      <trkpt lat="43.12751" lon="5.95622">
        <ele>35.662181854248</ele>
        <time>2009-06-25T07:49:08Z</time>
      </trkpt>
      <trkpt lat="43.12716" lon="5.95629">
        <ele>31.890472412109</ele>
        <time>2009-06-25T07:49:13Z</time>
      </trkpt>
      <trkpt lat="43.12693" lon="5.95634">
        <ele>30.031379699707</ele>
        <time>2009-06-25T07:49:17Z</time>
      </trkpt>
      <trkpt lat="43.12669" lon="5.95635">
        <ele>28.328498840332</ele>
        <time>2009-06-25T07:49:22Z</time>
      </trkpt>
      <trkpt lat="43.12654" lon="5.9564">
        <ele>27.09619140625</ele>
        <time>2009-06-25T07:49:25Z</time>
      </trkpt>
      <trkpt lat="43.12644" lon="5.95667">
        <ele>26.348457336426</ele>
        <time>2009-06-25T07:49:30Z</time>
      </trkpt>
      <trkpt lat="43.12645" lon="5.95674">
        <ele>26.195678710938</ele>
        <time>2009-06-25T07:49:31Z</time>
      </trkpt>
      <trkpt lat="43.12652" lon="5.9572">
        <ele>25.012931823731</ele>
        <time>2009-06-25T07:49:37Z</time>
      </trkpt>
      <trkpt lat="43.12652" lon="5.95728">
        <ele>24.760589599609</ele>
        <time>2009-06-25T07:49:38Z</time>
      </trkpt>
    </trkseg>
  </trk>
</gpx>